[[{"header":{"parameterUnit":"m.s-1","parameterCategory":1,"la1":31.0,"la2":29.5877,"lo1":-88.7671,"lo2":-86.6584,"dy":0.0162,"dx":0.0185,"nx":115,"ny":88,"refTime":"2023-03-15T18:00:00:Z","depth":0,"parameterNumber":2,"parameterNumberName":"U-component_of_WINDS"},"data":[0.0,0.0,0.0,0.0,0.0,0.0,0.0,0.0,0.0,0.0,0.0,0.0,0.0,0.0,0.0,0.0,0.0,0.0,0.0,0.0,0.0,0.0,0.0,0.0,0.0,0.0,0.0,0.0,0.0,0.0,0.0,0.0,0.0,0.0,0.0,0.0,0.0,0.0,0.0,0.0,0.0,0.0,0.0,0.0,0.0,0.0,0.0,0.0,0.0,0.0,0.0,0.0,0.0,0.0,0.0,0.0,0.0,0.0,0.0,0.0,0.0,0.0,0.0,0.0,0.0,0.0,0.0,0.0,0.0,0.0,0.0,0.0,0.0,0.0,0.0,0.0,0.0,0.0,0.0,0.0,0.0,0.0,0.0,0.0,0.0,0.0,0.0,0.0,0.0,0.0,0.0,0.0,0.0,0.0,0.0,0.0,0.0,0.0,0.0,0.0,0.0,0.0,0.0,0.0,0.0,0.0,0.0,0.0,0.0,0.0,0.0,0.0,0.0,0.0,0.0,0.0,0.0,0.0,0.0,0.0,0.0,0.0,0.0,0.0,0.0,0.0,0.0,0.0,0.0,0.0,0.0,0.0,0.0,0.0,0.0,0.0,0.0,0.0,0.0,0.0,0.0,0.0,0.0,0.0,0.0,0.0,0.0,0.0,0.0,0.0,0.0,0.0,0.0,0.0,0.0,0.0,0.0,0.0,0.0,0.0,0.0,0.0,0.0,0.0,0.0,0.0,0.0,0.0,0.0,0.0,0.0,0.0,0.0,0.0,0.0,0.0,0.0,0.0,0.0,0.0,0.0,0.0,0.0,0.0,0.0,0.0,0.0,0.0,0.0,0.0,0.0,0.0,0.0,0.0,0.0,0.0,0.0,0.0,0.0,0.0,0.0,0.0,0.0,0.0,0.0,0.0,0.0,0.0,0.0,0.0,0.0,0.0,0.0,0.0,0.0,0.0,0.0,0.0,0.0,0.0,0.0,0.0,0.0,0.0,0.0,0.0,0.0,0.0,0.0,0.0,0.0,0.0,0.0,0.0,0.0,0.0,0.0,0.0,0.0,0.0,0.0,0.0,0.0,0.0,0.0,0.0,0.0,0.0,0.0,0.0,0.0,0.0,0.0,0.0,0.0,0.0,0.0,0.0,0.0,0.0,0.0,0.0,0.0,0.0,0.0,0.0,0.0,0.0,0.0,0.0,0.0,0.0,0.0,0.0,0.0,0.0,0.0,0.0,0.0,0.0,0.0,0.0,0.0,0.0,0.0,0.0,0.0,0.0,0.0,0.0,0.0,0.0,0.0,0.0,0.0,0.0,0.0,0.0,0.0,0.0,0.0,0.0,0.0,0.0,0.0,0.0,0.0,0.0,0.0,0.0,0.0,0.0,0.0,0.0,0.0,0.0,0.0,0.0,0.0,0.0,0.0,0.0,0.0,0.0,0.0,0.0,0.0,0.0,0.0,0.0,0.0,0.0,0.0,0.0,0.0,0.0,0.0,0.0,0.0,0.0,0.0,0.0,0.0,0.0,0.0,0.0,0.0,0.0,0.0,0.0,0.0,0.0,0.0,0.0,0.0,0.0,0.0,0.0,0.0,0.0,0.0,0.0,0.0,0.0,0.0,0.0,0.0,0.0,0.0,0.0,0.0,0.0,0.0,0.0,0.0,0.0,0.0,0.0,0.0,0.0,0.0,0.0,0.0,0.0,0.0,0.0,0.0,0.0,0.0,0.0,0.0,0.0,0.0,0.0,0.0,0.0,0.0,0.0,0.0,0.0,0.0,0.0,0.0,0.0,0.0,0.0,0.0,0.0,0.0,0.0,0.0,0.0,0.0,0.0,0.0,0.0,0.0,0.0,0.0,0.0,0.0,0.0,0.0,0.0,0.0,0.0,0.0,0.0,0.0,0.0,0.0,0.0,0.0,0.0,0.0,0.0,0.0,0.0,0.0,0.0,0.0,0.0,0.0,0.0,0.0,0.0,0.0,0.0,0.0,0.0,0.0,0.0,0.0,0.0,0.0,0.0,0.0,0.0,0.0,0.0,0.0,0.0,0.0,0.0,0.0,0.0,0.0,0.0,0.0,0.0,0.0,0.0,0.0,0.0,0.0,0.0,0.0,0.0,0.0,0.0,0.0,0.0,0.0,0.0,0.0,0.0,0.0,0.0,0.0,0.0,0.0,0.0,0.0,0.0,0.0,0.0,0.0,0.0,0.0,0.0,0.0,0.0,0.0,0.0,0.0,0.0,0.0,0.0,0.0,0.0,0.0,0.0,0.0,0.0,0.0,0.0,0.0,0.0,0.0,0.0,0.0,0.0,0.0,0.0,0.0,0.0,0.0,0.0,0.0,0.0,0.0,0.0,0.0,0.0,0.0,0.0,0.0,0.0,0.0,0.0,0.0,0.0,0.0,0.0,0.0,0.0,0.0,0.0,0.0,0.0,0.0,0.0,0.0,0.0,0.0,0.0,0.0,0.0,0.0,0.0,0.0,0.0,0.0,0.0,0.0,0.0,0.0,0.0,0.0,0.0,0.0,0.0,0.0,0.0,0.0,0.0,0.0,0.0,0.0,0.0,0.0,0.0,0.0,0.0,0.0,0.0,0.0,0.0,0.0,0.0,0.0,0.0,0.0,0.0,0.0,0.0,0.0,0.0,0.0,0.0,0.0,0.0,0.0,0.0,0.0,0.0,0.0,0.0,0.0,0.0,0.0,0.0,0.0,0.0,0.0,0.0,0.0,0.0,0.0,0.0,0.0,0.0,0.0,0.0,0.0,0.0,0.0,0.0,0.0,0.0,0.0,0.0,0.0,0.0,0.0,0.0,0.0,0.0,0.0,0.0,0.0,0.0,0.0,0.0,0.0,0.0,0.0,0.0,0.0,0.0,0.0,0.0,0.0,0.0,0.0,0.0,0.0,0.0,0.0,0.0,0.0,0.0,0.0,0.0,0.0,0.0,0.0,0.0,0.0,0.0,0.0,0.0,0.0,0.0,0.0,0.0,0.0,0.0,0.0,0.0,0.0,0.0,0.0,0.0,0.0,0.0,0.0,0.0,0.0,0.0,0.0,0.0,0.0,0.0,0.0,0.0,0.0,0.0,0.0,0.0,0.0,0.0,0.0,0.0,0.0,0.0,0.0,0.0,0.0,0.0,0.0,0.0,0.0,0.0,0.0,0.0,0.0,0.0,0.0,0.0,0.0,0.0,0.0,0.0,0.0,0.0,0.0,0.0,0.0,0.0,0.0,0.0,0.0,0.0,0.0,0.0,0.0,0.0,0.0,0.0,0.0,0.0,0.0,0.0,0.0,0.0,0.0,0.0,0.0,0.0,0.0,0.0,0.0,0.0,0.0,0.0,0.0,0.0,0.0,0.0,0.0,0.0,0.0,0.0,0.0,0.0,0.0,0.0,0.0,0.0,0.0,0.0,0.0,0.0,0.0,0.0,0.0,0.0,0.0,0.0,0.0,0.0,0.0,0.0,0.0,0.0,0.0,0.0,0.0,0.0,0.0,0.0,0.0,0.0,0.0,0.0,0.0,0.0,0.0,0.0,0.0,0.0,0.0,0.0,0.0,0.0,0.0,0.0,0.0,0.0,0.0,0.0,0.0,0.0,0.0,0.0,0.0,0.0,0.0,0.0,0.0,0.0,0.0,0.0,0.0,0.0,0.0,0.0,0.0,0.0,0.0,0.0,0.0,0.0,0.0,0.0,0.0,0.0,0.0,0.0,0.0,0.0,0.0,0.0,0.0,0.0,0.0,0.0,0.0,0.0,0.0,0.0,0.0,0.0,0.0,0.0,0.0,0.0,0.0,0.0,0.0,0.0,0.0,0.0,0.0,0.0,0.0,0.0,0.0,0.0,0.0,0.0,0.0,0.0,0.0,0.0,0.0,0.0,0.0,0.0,0.0,0.0,0.0,0.0,0.0,0.0,0.0,0.0,0.0,0.0,0.0,0.0,0.0,0.0,0.0,0.0,0.0,0.0,0.0,0.0,0.0,0.0,0.0,0.0,0.0,0.0,0.0,0.0,0.0,0.0,0.0,0.0,0.0,0.0,0.0,0.0,0.0,0.0,0.0,0.0,0.0,0.0,0.0,0.0,0.0,0.0,0.0,0.0,0.0,0.0,0.0,0.0,0.0,0.0,0.0,0.0,0.0,0.0,0.0,0.0,0.0,0.0,0.0,0.0,0.0,0.0,0.0,0.0,0.0,0.0,0.0,0.0,0.0,0.0,0.0,0.0,0.0,0.0,0.0,0.0,0.0,0.0,0.0,0.0,0.0,0.0,-0.6881,0.0,0.0,0.0,0.0,0.0,0.0,0.0,0.0,0.0,0.0,0.0,0.0,0.0,0.0,0.0,0.0,0.0,0.0,0.0,0.0,0.0,0.0,0.0,0.0,0.0,0.0,0.0,0.0,0.0,0.0,0.0,0.0,0.0,0.0,0.0,0.0,0.0,0.0,0.0,0.0,0.0,0.0,0.0,0.0,0.0,0.0,0.0,0.0,0.0,0.0,0.0,0.0,0.0,0.0,0.0,0.0,0.0,0.0,0.0,0.0,0.0,0.0,0.0,0.0,0.0,0.0,0.0,0.0,0.0,0.0,0.0,0.0,0.0,0.0,0.0,0.0,0.0,0.0,0.0,0.0,0.0,0.0,0.0,0.0,0.0,0.0,0.0,0.0,0.0,0.0,0.0,0.0,0.0,0.0,0.0,0.0,0.0,0.0,0.0,0.0,0.0,0.0,0.0,0.0,0.0,0.0,0.0,0.0,0.0,0.0,-0.3797,-0.4446,-0.5267,-0.6044,-0.6769,0.0,0.0,0.0,0.0,0.0,0.0,0.0,0.0,0.0,0.0,0.0,0.0,0.0,0.0,0.0,0.0,0.0,0.0,0.0,0.0,0.0,0.0,0.0,0.0,0.0,0.0,0.0,0.0,0.0,0.0,0.0,0.0,0.0,0.0,0.0,0.0,0.0,0.0,0.0,0.0,0.0,0.0,0.0,0.0,0.0,0.0,0.0,0.0,0.0,0.0,0.0,0.0,0.0,0.0,0.0,0.0,0.0,0.0,0.0,0.0,0.0,0.0,0.0,0.0,0.0,0.0,0.0,0.0,0.0,0.0,0.0,0.0,0.0,0.0,0.0,0.0,0.0,0.0,0.0,0.0,0.0,0.0,0.0,0.0,0.0,0.0,0.0,0.0,0.0,0.0,0.0,0.0,0.0,0.0,0.0,0.0,0.0,0.0,0.0,0.0,0.0,0.0,0.0,0.0,0.0,0.0,0.0,0.0,0.0,0.0,0.0,0.0,-0.4972,-0.5994,-0.6999,0.0,0.0,0.0,0.0,0.0,0.0,0.0,0.0,0.0,0.0,0.0,0.0,0.0,0.0,0.0,0.0,0.0,0.0,0.0,0.0,0.0,0.0,0.0,0.0,0.0,0.0,0.0,0.0,0.0,0.0,0.0,0.0,0.0,0.0,0.0,0.0,0.0,0.0,0.0,0.0,0.0,0.0,0.0,0.0,0.0,0.0,0.0,0.0,0.0,0.0,0.0,0.0,0.0,0.0,0.0,0.0,0.0,0.0,0.0,0.0,0.0,0.0,0.0,0.0,0.0,0.0,0.0,0.0,0.0,0.0,0.0,0.0,0.0,0.0,0.0,0.0,0.0,0.0,0.0,0.0,0.0,0.0,0.0,0.0,0.0,0.0,0.0,0.0,0.0,0.0,0.0,0.0,0.0,0.0,0.0,0.0,0.0,0.0,0.0,0.0,0.0,0.0,0.0,0.0,0.0,0.0,0.0,0.0,0.0,0.0,-0.2908,-0.3629,-0.4686,0.0,-0.7597,0.0,0.0,0.0,0.0,0.0,0.0,0.0,0.0,0.0,0.0,0.0,0.0,0.0,0.0,0.0,0.0,0.0,0.0,0.0,0.0,0.0,0.0,0.0,0.0,0.0,0.0,0.0,0.0,0.0,0.0,0.0,0.0,0.0,0.0,0.0,0.0,0.0,0.0,0.0,0.0,0.0,0.0,0.0,0.0,0.0,0.0,0.0,0.0,0.0,0.0,0.0,0.0,0.0,0.0,0.0,0.0,0.0,0.0,0.0,0.0,0.0,0.0,0.0,0.0,0.0,0.0,0.0,0.0,0.0,0.0,0.0,0.0,0.0,0.0,0.0,0.0,0.0,0.0,0.0,0.0,0.0,0.0,0.0,0.0,0.0,0.0,0.0,0.0,0.0,0.0,0.0,0.0,0.0,0.0,0.0,0.0,0.0,0.0,0.0,0.0,0.0,0.0,0.0,0.0,0.0,0.0,0.0,0.0,0.0,0.0,-0.2618,-0.3582,-0.513,-0.6428,0.0,0.0,0.0,0.0,0.0,0.0,0.0,0.0,0.0,0.0,0.0,0.0,0.0,0.0,0.0,0.0,0.0,0.0,0.0,0.0,0.0,0.0,0.0,0.0,0.0,0.0,0.0,0.0,0.0,0.0,0.0,0.0,0.0,0.0,0.0,0.0,0.0,0.0,0.0,0.0,0.0,0.0,0.0,0.0,0.0,0.0,0.0,0.0,0.0,0.0,0.0,0.0,0.0,0.0,0.0,0.0,0.0,0.0,0.0,0.0,0.0,0.0,0.0,0.0,0.0,0.0,0.0,0.0,0.0,0.0,0.0,0.0,0.0,0.0,0.0,0.0,0.0,0.0,0.0,0.0,0.0,0.0,0.0,0.0,0.0,0.0,0.0,0.0,0.0,0.0,0.0,0.0,0.0,0.0,0.0,0.0,0.0,0.0,0.0,0.0,0.0,0.0,0.0,0.0,0.0,0.0,0.0,0.0,0.0,0.0,-0.1464,-0.249,-0.3874,-0.5464,-0.657,-0.7114,0.0,0.0,0.0,0.0,0.0,0.0,0.0,0.0,0.0,0.0,0.0,0.0,0.0,0.0,0.0,0.0,0.0,0.0,0.0,0.0,0.0,0.0,0.0,0.0,0.0,0.0,0.0,0.0,0.0,0.0,0.0,0.0,0.0,0.0,0.0,0.0,0.0,0.0,0.0,0.0,0.0,0.0,0.0,0.0,0.0,0.0,0.0,0.0,0.0,0.0,0.0,0.0,0.0,0.0,0.0,0.0,0.0,0.0,0.0,0.0,0.0,0.0,0.0,0.0,0.0,0.0,0.0,0.0,0.0,0.0,0.0,0.0,0.0,0.0,0.0,0.0,0.0,0.0,0.0,0.0,0.0,0.0,0.0,0.0,0.0,0.0,0.0,0.0,0.0,0.0,0.0,0.0,0.0,0.0,0.0,0.0,0.0,0.0,0.0,0.0,0.0,0.0,0.0,0.0,0.0,0.0,0.0,0.0,-0.0438,-0.129,-0.2663,-0.4573,-0.5418,-0.621,0.0,0.0,0.0,0.0,0.0,0.0,0.0,0.0,0.0,0.0,0.0,0.0,0.0,0.0,0.0,0.0,0.0,0.0,0.0,0.0,0.0,0.0,0.0,0.0,0.0,0.0,0.0,0.0,0.0,0.0,0.0,0.0,0.0,0.0,0.0,0.0,0.0,0.0,0.0,0.0,0.0,0.0,0.0,0.0,0.0,0.0,0.0,0.0,0.0,0.0,0.0,0.0,0.0,0.0,0.0,0.0,0.0,0.0,0.0,0.0,0.0,0.0,0.0,0.0,0.0,0.0,0.0,0.0,0.0,0.0,0.0,0.0,0.0,0.0,0.0,0.0,0.0,0.0,0.0,0.0,0.0,0.0,0.0,0.0,0.0,0.0,0.0,0.0,0.0,0.0,0.0,0.0,0.0,0.0,0.0,0.0,0.0,0.0,0.0,0.0,0.0,0.0,0.0,0.0,0.0,0.0,0.0,0.0,0.0,-0.0689,-0.2296,-0.3663,-0.4675,-0.5666,-0.6422,0.0,0.0,0.0,0.0,0.0,0.0,0.0,0.0,0.0,0.0,0.0,0.0,0.0,0.0,0.0,0.0,0.0,0.0,0.0,0.0,0.0,0.0,0.0,0.0,0.0,0.0,0.0,0.0,0.0,0.0,0.0,0.0,0.0,0.0,0.0,0.0,0.0,0.0,0.0,0.0,0.0,0.0,0.0,0.0,0.0,0.0,0.0,0.0,0.0,0.0,0.0,0.0,0.0,0.0,0.0,0.0,0.0,0.0,0.0,0.0,0.0,0.0,0.0,0.0,0.0,0.0,0.0,0.0,0.0,0.0,0.0,0.0,0.0,0.0,0.0,0.0,0.0,0.0,0.0,0.0,0.0,0.0,0.0,0.0,0.0,0.0,0.0,0.0,0.0,0.0,0.0,0.0,0.0,0.0,0.0,0.0,0.0,0.0,0.0,0.0,0.0,0.0,0.0,0.0,0.0,0.0,0.0,0.0,0.0,-0.1405,0.0,-0.4211,-0.4825,-0.5722,-0.6435,0.0,0.0,0.0,0.0,0.0,0.0,0.0,0.0,0.0,0.0,0.0,0.0,0.0,0.0,0.0,0.0,0.0,0.0,0.0,0.0,0.0,0.0,0.0,0.0,0.0,0.0,0.0,0.0,0.0,0.0,0.0,0.0,0.0,0.0,0.0,0.0,0.0,0.0,0.0,0.0,0.0,0.0,0.0,0.0,0.0,0.0,0.0,0.0,0.0,0.0,0.0,0.0,0.0,0.0,0.0,0.0,0.0,0.0,0.0,0.0,0.0,0.0,0.0,0.0,0.0,0.0,0.0,0.0,0.0,0.0,0.0,0.0,0.0,0.0,0.0,0.0,0.0,0.0,0.0,0.0,0.0,0.0,0.0,0.0,0.0,0.0,0.0,0.0,0.0,0.0,0.0,0.0,0.0,0.0,0.0,0.0,0.0,0.0,0.0,0.0,0.0,0.0,0.0,0.0,0.0,0.0,0.0,0.0,-0.0839,-0.2619,-0.3433,-0.4257,-0.5066,-0.5583,-0.6157,0.0,0.0,0.0,0.0,0.0,0.0,0.0,0.0,0.0,0.0,0.0,0.0,0.0,0.0,0.0,0.0,0.0,0.0,0.0,0.0,0.0,0.0,0.0,0.0,0.0,0.0,0.0,0.0,0.0,0.0,0.0,0.0,0.0,0.0,0.0,0.0,0.0,0.0,0.0,0.0,0.0,0.0,0.0,0.0,0.0,0.0,0.0,0.0,0.0,0.0,0.0,0.0,0.0,0.0,0.0,0.0,0.0,0.0,0.0,0.0,0.0,0.0,0.0,0.0,0.0,0.0,0.0,0.0,0.0,0.0,0.0,0.0,0.0,0.0,0.0,0.0,0.0,0.0,0.0,0.0,0.0,0.0,0.0,0.0,0.0,0.0,0.0,0.0,0.0,0.0,0.0,0.0,0.0,0.0,0.0,0.0,0.0,0.0,0.0,0.0,0.0,0.0,0.0,0.0,0.0,0.0,0.0,0.0,0.0,-0.3241,-0.4062,-0.4769,-0.5373,-0.5838,-0.6286,0.0,0.0,0.0,0.0,0.0,0.0,0.0,0.0,0.0,0.0,0.0,0.0,0.0,0.0,0.0,0.0,0.0,0.0,0.0,0.0,0.0,0.0,0.0,0.0,0.0,0.0,0.0,0.0,0.0,0.0,0.0,0.0,0.0,0.0,0.0,0.0,0.0,0.0,0.0,0.0,0.0,0.0,0.0,0.0,0.0,0.0,0.0,0.0,0.0,0.0,0.0,0.0,0.0,0.0,0.0,0.0,0.0,0.0,0.0,0.0,0.0,0.0,0.0,0.0,0.0,0.0,0.0,0.0,0.0,0.0,0.0,0.0,0.0,0.0,0.0,0.0,0.0,0.0,0.0,0.0,0.0,0.0,0.0,0.0,0.0,0.0,0.0,0.0,0.0,0.0,0.0,0.0,0.0,0.0,0.0,0.0,0.0,0.0,0.0,0.0,0.0,0.0,0.0,0.0,0.0,0.0,0.0,0.0,0.0,-0.4336,-0.4808,-0.5338,-0.5905,-0.6088,-0.6387,-0.6771,0.0,0.0,0.0,0.0,0.0,0.0,0.0,0.0,0.0,0.0,0.0,0.0,0.0,0.0,0.0,0.0,0.0,0.0,0.0,0.0,0.0,0.0,0.0,0.0,0.0,0.0,0.0,0.0,0.0,0.0,0.0,0.0,0.0,0.0,0.0,0.0,0.0,0.0,0.0,0.0,0.0,0.0,0.0,0.0,0.0,0.0,0.0,0.0,0.0,0.0,0.0,0.0,0.0,0.0,0.0,0.0,0.0,0.0,0.0,0.0,0.0,0.0,0.0,0.0,0.0,0.0,0.0,0.0,0.0,0.0,0.0,0.0,0.0,0.0,0.0,0.0,0.0,0.0,0.0,0.0,0.0,0.0,0.0,0.0,0.0,0.0,0.0,0.0,0.0,0.0,0.0,0.0,0.0,0.0,0.0,0.0,0.0,0.0,0.0,0.0,0.0,0.0,0.0,0.0,0.0,0.0,0.0,0.0,-0.5773,-0.5674,-0.5938,-0.6582,-0.6349,-0.6419,0.0,0.0,0.0,0.0,0.0,0.0,0.0,0.0,0.0,0.0,0.0,0.0,0.0,0.0,0.0,0.0,0.0,0.0,0.0,0.0,0.0,0.0,0.0,0.0,0.0,0.0,0.0,0.0,0.0,0.0,0.0,0.0,0.0,0.0,0.0,0.0,0.0,0.0,0.0,0.0,0.0,0.0,0.0,0.0,0.0,0.0,0.0,0.0,0.0,0.0,0.0,0.0,0.0,0.0,0.0,0.0,0.0,0.0,0.0,0.0,0.0,0.0,0.0,0.0,0.0,0.0,0.0,0.0,0.0,0.0,0.0,0.0,0.0,0.0,0.0,0.0,0.0,0.0,0.0,0.0,0.0,0.0,0.0,0.0,0.0,0.0,0.0,0.0,0.0,0.0,0.0,0.0,0.0,0.0,0.0,0.0,0.0,0.0,0.0,0.0,0.0,0.0,0.0,0.0,0.0,0.0,0.0,0.0,0.0,-0.6779,-0.6919,-0.6897,-0.6749,-0.6594,-0.6527,0.0,0.0,0.0,0.0,0.0,0.0,0.0,0.0,0.0,0.0,0.0,0.0,0.0,0.0,0.0,0.0,0.0,0.0,0.0,0.0,0.0,0.0,0.0,0.0,0.0,0.0,0.0,0.0,0.0,0.0,0.0,0.0,0.0,0.0,0.0,0.0,0.0,0.0,0.0,0.0,0.0,0.0,0.0,0.0,0.0,0.0,0.0,0.0,0.0,0.0,0.0,0.0,0.0,0.0,0.0,0.0,0.0,0.0,0.0,0.0,0.0,0.0,0.0,0.0,0.0,0.0,0.0,0.0,0.0,0.0,0.0,0.0,0.0,0.0,0.0,0.0,0.0,0.0,0.0,0.0,0.0,0.0,0.0,0.0,0.0,0.0,0.0,0.0,0.0,0.0,0.0,0.0,0.0,0.0,0.0,0.0,0.0,0.0,0.0,0.0,0.0,0.0,0.0,0.0,0.0,0.0,0.0,0.0,-0.6823,-0.7362,-0.7653,-0.7571,-0.7106,-0.6809,-0.6576,0.0,0.0,0.0,0.0,0.0,0.0,0.0,0.0,0.0,0.0,0.0,0.0,0.0,0.0,0.0,0.0,0.0,0.0,0.0,0.0,0.0,0.0,0.0,0.0,0.0,0.0,0.0,0.0,0.0,0.0,0.0,0.0,0.0,0.0,0.0,0.0,0.0,0.0,0.0,0.0,0.0,0.0,0.0,0.0,0.0,0.0,0.0,0.0,0.0,0.0,0.0,0.0,0.0,0.0,0.0,0.0,0.0,0.0,0.0,0.0,0.0,0.0,0.0,0.0,0.0,0.0,0.0,0.0,0.0,0.0,0.0,0.0,0.0,0.0,0.0,0.0,0.0,0.0,0.0,0.0,0.0,0.0,0.0,0.0,0.0,0.0,0.0,0.0,0.0,0.0,0.0,0.0,0.0,0.0,0.0,0.0,0.0,0.0,0.0,0.0,0.0,0.0,0.0,0.0,0.0,0.0,0.0,0.0,-0.7407,-0.77,-0.7979,-0.7953,-0.7522,-0.6988,-0.6605,0.0,0.0,0.0,0.0,0.0,0.0,0.0,0.0,0.0,0.0,0.0,0.0,0.0,0.0,0.0,0.0,0.0,0.0,0.0,0.0,0.0,0.0,0.0,0.0,0.0,0.0,0.0,0.0,0.0,0.0,0.0,0.0,0.0,0.0,0.0,0.0,0.0,0.0,0.0,0.0,0.0,0.0,0.0,0.0,0.0,0.0,0.0,0.0,0.0,0.0,0.0,0.0,0.0,0.0,0.0,0.0,0.0,0.0,0.0,0.0,0.0,0.0,0.0,0.0,0.0,0.0,0.0,0.0,0.0,0.0,0.0,0.0,0.0,0.0,0.0,0.0,0.0,0.0,0.0,0.0,0.0,0.0,0.0,0.0,0.0,0.0,0.0,0.0,0.0,0.0,0.0,0.0,0.0,0.0,0.0,0.0,0.0,0.0,0.0,0.0,0.0,0.0,0.0,0.0,0.0,0.0,0.0,0.0,-0.7895,-0.8373,-0.8008,-0.7775,-0.7658,-0.713,-0.6621,0.0,0.0,0.0,0.0,0.0,0.0,0.0,0.0,0.0,0.0,0.0,0.0,0.0,0.0,0.0,0.0,0.0,0.0,0.0,0.0,0.0,0.0,0.0,0.0,0.0,0.0,0.0,0.0,0.0,0.0,0.0,0.0,0.0,0.0,0.0,0.0,0.0,0.0,0.0,0.0,0.0,0.0,0.0,0.0,0.0,0.0,0.0,0.0,0.4076,0.0,0.0,0.0,0.0,0.0,0.0,0.0,0.0,0.0,0.0,0.0,0.0,0.0,0.0,0.0,0.0,0.0,0.0,0.0,0.0,0.0,0.0,0.0,0.0,0.0,0.0,0.0,0.0,0.0,0.0,0.0,0.0,0.0,0.0,0.0,0.0,0.0,0.0,0.0,0.0,0.0,0.0,0.0,0.0,0.0,0.0,0.0,0.0,0.0,0.0,0.0,0.0,0.0,0.0,0.0,0.0,0.0,0.0,0.0,-0.8157,-0.8665,-0.8048,-0.7683,-0.7683,-0.7041,-0.6438,0.0,0.0,0.0,0.0,0.0,0.0,0.0,0.0,0.0,0.0,0.0,0.0,0.0,0.0,0.0,0.0,0.0,0.0,0.0,0.0,0.0,0.0,0.0,0.0,0.0,0.0,0.0,0.0,0.0,0.0,0.0,0.0,0.0,0.0,0.0,0.0,0.0,0.0,0.0,0.0,0.0,0.0,0.0,0.0,0.0,0.0,0.0,0.0,0.0,0.0,0.0,0.0,0.0,0.0,0.0,0.0,0.0,0.0,0.0,0.0,0.0,0.0,0.0,0.0,0.0,0.0,0.0,0.0,0.0,0.0,0.0,0.0,0.0,0.0,0.0,0.0,0.0,0.0,0.0,0.0,0.0,0.0,0.0,0.0,0.0,0.0,0.0,0.0,0.0,0.0,0.0,0.0,0.0,0.0,0.0,0.0,0.0,0.0,0.0,0.0,0.0,0.0,0.0,0.0,0.0,0.0,0.0,-0.7973,-0.8343,-0.8751,-0.8095,-0.7692,-0.7688,-0.6817,-0.6178,-0.5872,0.0,0.0,0.0,0.0,0.0,0.0,0.0,0.0,0.0,0.0,0.0,0.0,0.0,0.0,0.0,0.0,0.0,0.0,0.0,0.0,0.0,0.0,0.0,0.0,0.0,0.0,0.0,0.0,0.0,0.0,0.0,0.0,0.0,0.0,0.0,0.0,0.0,0.0,0.284,0.3,0.0,0.0,0.0,0.0,0.0,0.0,0.0,0.0,0.3833,0.0,0.0,0.0,0.0,0.0,0.0,0.0,0.0,0.0,0.0,0.0,0.0,0.0,0.0,0.0,0.0,0.0,0.0,0.0,0.0,0.0,0.0,0.0,0.0,0.0,0.0,0.0,0.0,0.0,0.0,0.0,0.0,0.0,0.0,0.0,0.0,0.0,0.0,0.0,0.0,0.0,0.0,0.0,0.0,0.0,0.0,0.0,0.0,0.0,0.0,0.0,0.0,0.0,0.0,0.0,0.0,-0.809,-0.848,-0.8737,-0.8866,-0.8116,-0.767,-0.7592,-0.6613,-0.5932,-0.563,0.0,0.0,0.0,0.0,0.0,0.0,0.0,0.0,0.0,0.0,0.0,0.0,0.0,0.0,0.0,0.0,0.0,0.0,0.0,0.0,0.0,0.0,0.0,0.0,0.0,0.0,0.0,0.0,0.0,0.0,0.0,0.0,0.0,0.0,0.0,0.0,0.0,0.0,0.0,0.2956,0.3286,0.0,0.0,0.0,0.0,0.0,0.0,0.0,0.0,0.3745,0.0,0.0,0.0,0.0,0.0,0.0,0.0,0.0,0.0,0.0,0.0,0.0,0.0,0.0,0.0,0.0,0.0,0.0,0.0,0.0,0.0,0.0,0.0,0.0,0.0,0.0,0.0,0.0,0.0,0.0,0.0,0.0,0.0,0.0,0.0,0.0,0.0,0.0,0.0,0.0,0.0,0.0,0.0,0.0,0.0,0.0,0.0,0.0,0.0,0.0,0.0,0.0,0.0,0.0,0.0,-0.8157,-0.8482,-0.8638,-0.8613,-0.7923,-0.7487,-0.7314,-0.6403,-0.5727,0.0,0.0,0.0,0.0,0.0,0.0,0.0,0.0,0.0,0.0,0.0,0.0,0.0,0.0,0.0,0.0,0.0,0.0,0.0,0.0,0.0,0.0,0.0,0.0,0.0,0.0,0.0,0.0,0.0,0.0,0.0,0.0,0.0,0.0,0.0,0.0,0.0,0.0,0.0,0.0,0.2804,0.3034,0.3185,0.0,0.0,0.0,0.0,0.0,0.0,0.3643,0.3639,0.0,0.0,0.0,0.0,0.0,0.0,0.0,0.0,0.0,0.0,0.0,0.0,0.0,0.0,0.0,0.0,0.0,0.0,0.0,0.0,0.0,0.0,0.0,0.0,0.0,0.0,0.0,0.0,0.0,0.0,0.0,0.0,0.0,0.0,0.0,0.0,0.0,0.0,0.0,0.0,0.0,0.0,0.0,0.0,0.0,0.0,0.0,0.0,0.0,0.0,0.0,0.0,0.0,0.0,0.0,-0.8287,-0.8473,-0.8508,-0.8354,-0.7728,-0.7274,-0.7012,-0.6163,-0.5477,0.0,0.0,0.0,0.0,0.0,0.0,0.0,0.0,0.0,0.0,0.0,0.0,0.0,0.0,0.0,0.0,0.0,0.0,0.0,0.0,0.0,0.0,0.0,0.0,0.0,0.0,0.0,0.0,0.0,0.0,0.0,0.0,0.0,0.0,0.0,0.0,0.0,0.0,0.0,0.0,0.0,0.2655,0.272,0.3053,0.0,0.0,0.0,0.0,0.3209,0.3271,0.0,0.0,0.0,0.0,0.0,0.0,0.0,0.0,0.0,0.0,0.0,0.0,0.0,0.0,0.0,0.0,0.0,0.0,0.0,0.0,0.0,0.0,0.0,0.0,0.0,0.0,0.0,0.0,0.0,0.0,0.0,0.0,0.0,0.0,0.0,0.0,0.0,0.0,0.0,0.0,0.0,0.0,0.0,0.0,0.0,0.0,0.0,0.0,0.0,0.0,0.0,0.0,0.0,0.0,0.0,0.0,-0.8871,-0.8869,-0.8645,-0.8215,-0.768,-0.7195,-0.6747,-0.5837,-0.516,0.0,0.0,0.0,0.0,0.0,0.0,0.0,0.0,0.0,0.0,0.0,0.0,0.0,0.0,0.0,0.0,0.0,0.0,0.0,0.0,0.0,0.0,0.0,0.0,0.0,0.0,0.0,0.0,0.0,0.0,0.0,0.0,0.0,0.0,0.0,0.0,0.0,0.0,0.0,0.0,0.0,0.2124,0.2186,0.243,0.2658,0.0,0.0,0.2909,0.2704,0.2796,0.0,0.0,0.0,0.0,0.0,0.0,0.0,0.0,0.0,0.0,0.0,0.0,0.0,0.0,0.0,0.0,0.0,0.0,0.0,0.0,0.0,0.0,0.0,0.0,0.0,0.0,0.0,0.0,0.0,0.0,0.0,0.0,0.0,0.0,0.0,0.0,0.0,0.0,0.0,0.0,0.0,0.0,0.0,0.0,0.0,0.0,0.0,0.0,0.0,0.0,0.0,0.0,0.0,0.0,0.0,-0.8718,-0.8879,-0.8817,-0.8443,-0.7771,-0.7407,-0.6904,-0.6268,-0.5478,-0.4867,0.0,0.0,0.0,0.0,0.0,0.0,0.0,0.0,0.0,0.0,0.0,0.0,0.0,0.0,0.0,0.0,0.0,0.0,0.0,0.0,0.0,0.0,0.0,0.0,0.0,0.0,0.0,0.0,0.0,0.0,0.0,0.0,0.0,0.0,0.0,0.0,0.0,0.0,0.0,0.0,0.0,0.0,0.1437,0.1711,0.0,0.0,0.0,0.2196,0.2113,0.0,0.0,0.0,0.0,0.0,0.0,0.0,0.0,0.0,0.0,0.0,0.0,0.0,0.0,0.0,0.0,0.0,0.0,0.0,0.0,0.0,0.0,0.0,0.0,0.0,0.0,0.0,0.0,0.0,0.0,0.0,0.0,0.0,0.0,0.0,0.0,0.0,0.0,0.0,0.0,0.0,0.0,0.0,0.0,0.0,0.0,0.0,0.0,0.0,0.0,0.0,0.0,0.0,0.0,0.0,0.0,0.0,-0.8932,-0.8843,-0.8343,-0.7424,-0.7214,-0.6718,-0.5871,-0.522,0.0,0.0,0.0,0.0,0.0,0.0,0.0,0.0,0.0,0.0,0.0,0.0,0.0,0.0,0.0,0.0,0.0,0.0,0.0,0.0,0.0,0.0,0.0,0.0,0.0,0.0,0.0,0.4368,0.0,0.0,0.0,0.0,0.0,0.0,0.0,0.0,0.0,0.0,0.0,0.0,0.0,0.0,0.1022,0.0746,0.096,0.1141,0.0,0.0,0.1504,0.164,0.2103,0.2576,0.0,0.0,0.0,0.0,0.0,0.0,0.0,0.0,0.0,0.0,0.0,0.0,0.0,0.0,0.0,0.0,0.0,0.0,0.0,0.0,0.0,0.0,0.0,0.0,0.0,0.0,0.0,0.0,0.0,0.0,0.0,0.0,0.0,0.0,0.0,0.0,0.0,0.0,0.0,0.0,0.0,0.0,0.0,0.0,0.0,0.0,0.0,0.0,0.0,0.0,0.0,0.0,0.0,0.0,0.0,-0.9263,-0.9134,-0.8532,-0.7449,-0.7199,-0.6674,-0.5746,-0.5172,-0.4512,0.0,0.0,0.0,0.0,0.0,0.0,0.0,0.0,0.0,0.0,0.0,0.0,0.0,0.0,0.0,0.0,0.0,0.0,0.0,0.0,0.0,0.0,0.0,0.0,0.0,0.0,0.0,0.0,0.0,0.0,0.0,0.0,0.0,0.0,0.0,0.0,0.0,0.0,0.0,0.0,0.0,0.0314,0.0182,0.0184,0.0307,0.0,0.0,0.0944,0.1425,0.1796,0.2242,0.282,0.0,0.0,0.0,0.0,0.0,0.0,0.0,0.0,0.0,0.0,0.0,0.0,0.0,0.0,0.0,0.0,0.0,0.0,0.0,0.0,0.0,0.0,0.0,0.0,0.0,0.0,0.0,0.0,0.0,0.0,0.0,0.0,0.0,0.0,0.0,0.0,0.0,0.0,0.0,0.0,0.0,0.0,0.0,0.0,0.0,0.0,0.0,0.0,0.0,0.0,0.0,0.0,0.0,-0.9558,-0.9663,-0.9424,-0.8842,-0.7977,-0.7516,-0.6846,-0.5951,-0.5176,-0.4405,0.0,0.0,0.0,0.0,0.0,0.0,0.0,0.0,0.0,0.0,0.0,0.0,0.0,0.0,0.0,0.0,0.0,0.0,0.0,0.0,0.0,0.0,0.0,0.0,0.0,0.0,0.0,0.0,0.5224,0.5406,0.5521,0.0,0.0,0.0,0.0,0.0,0.0,0.0,0.0,0.0,0.0,-0.03,-0.0431,-0.0267,0.0,0.0,0.0422,0.0743,0.119,0.1638,0.2097,0.2578,0.3134,0.0,0.0,0.0,0.0,0.0,0.0,0.0,0.0,0.0,0.0,0.0,0.0,0.0,0.0,0.0,0.0,0.0,0.0,0.0,0.0,0.0,0.0,0.0,0.0,0.0,0.0,0.0,0.0,0.0,0.0,0.0,0.0,0.0,0.0,0.0,0.0,0.0,0.0,0.0,0.0,0.0,0.0,0.0,0.0,0.0,0.0,0.0,0.0,0.0,0.0,0.0,0.0,-0.9839,-0.9892,-0.9645,-0.9126,-0.8322,-0.776,-0.7052,-0.622,-0.5298,-0.4449,0.0,0.0,0.0,0.0,0.0,0.0,0.0,0.0,0.0,0.0,0.0,0.0,0.0,0.0,0.0,0.0,0.0,0.0,0.0,0.0,0.0,0.0,0.0,0.0,0.0,0.0,0.0,0.0,0.5068,0.5192,0.5329,0.0,0.0,0.0,0.0,0.0,0.0,0.0,0.0,0.0,0.0,-0.0941,-0.1093,-0.0871,-0.0621,-0.0409,-0.0166,0.0202,0.0706,0.121,0.175,0.2251,0.0,0.0,0.0,0.0,0.0,0.0,0.0,0.0,0.0,0.0,0.0,0.0,0.0,0.0,0.0,0.0,0.0,0.0,0.0,0.0,0.0,0.0,0.0,0.0,0.0,0.0,0.0,0.0,0.0,0.0,0.0,0.0,0.0,0.0,0.0,0.0,0.0,0.0,0.0,0.0,0.0,0.0,0.0,0.0,0.0,0.0,0.0,0.0,0.0,0.0,0.0,0.0,0.0,-1.0038,-0.9906,-0.9838,-0.9323,-0.8365,-0.7849,-0.7228,-0.642,-0.5549,-0.4684,-0.381,0.0,0.0,0.0,0.0,0.0,0.0,0.0,0.0,0.0,0.0,0.0,0.0,0.0,0.0,0.0,0.0,0.0,0.0,0.0,0.0,0.0,0.0,0.0,0.0,0.0,0.0,0.526,0.4943,0.472,0.0,0.0,0.0,0.0,0.0,0.0,0.0,0.0,0.0,0.0,-0.1624,-0.1658,-0.1837,-0.1695,-0.1494,-0.1276,-0.1142,-0.0806,-0.0067,0.047,0.1081,0.0,0.0,0.0,0.0,0.0,0.0,0.0,0.0,0.0,0.0,0.0,0.0,0.0,0.0,0.0,0.0,0.0,0.0,0.0,0.0,0.0,0.0,0.0,0.0,0.0,0.0,0.0,0.0,0.0,0.0,0.0,0.0,0.0,0.0,0.0,0.0,0.0,0.0,0.0,0.0,-1.0107,-0.9875,0.0,0.0,0.0,0.0,0.0,0.0,0.0,0.0,0.0,0.0,0.0,0.0,-1.0532,-1.0499,-1.0262,-0.9847,-0.9317,-0.8661,-0.7918,-0.7096,-0.6043,-0.4773,-0.3258,0.0,0.0,0.0,0.0,0.0,0.0,0.0,0.0,0.0,0.0,0.0,0.0,0.0,0.0,0.0,0.0,0.0,0.0,0.0,0.0,0.0,0.0,0.0,0.0,0.0,0.4693,0.0,0.0,0.0,0.0,0.0,0.0,0.0,0.0,0.0,0.0,0.0,-0.1821,-0.2723,-0.2732,-0.2644,-0.2651,-0.2351,-0.1981,0.0,0.0,0.0,0.0,0.0,0.0,0.0,0.0,0.0,0.0,0.0,0.0,0.0,0.0,0.4152,0.5038,0.5029,0.4818,0.4712,0.0,0.0,0.0,0.0,0.0,0.0,0.0,0.0,0.0,0.0,0.0,0.0,0.0,0.0,0.0,0.0,-0.8542,0.0,0.0,0.0,0.0,0.0,0.0,0.0,0.0,-1.1791,-1.1762,-1.1625,-1.1319,-1.1219,0.0,-1.066,-1.0094,0.0,0.0,0.0,0.0,0.0,0.0,0.0,0.0,-1.0807,-1.0785,-1.0475,-1.0165,-0.9849,-0.9177,-0.8438,-0.7678,-0.6296,-0.4798,-0.3258,-0.2483,-0.1849,0.0,0.0,0.0,0.0,0.0,0.0,0.0,0.0,0.0,0.0,0.0,0.0,0.0,0.0,0.0,0.0,0.0,0.0,0.0,0.0,0.0,0.0,0.0,0.391,0.0,0.0,0.0,0.0,0.0,0.0,0.0,0.0,0.0,-0.1931,-0.2456,-0.3091,-0.3787,-0.3713,-0.3558,-0.3456,0.0,0.0,0.0,0.0,0.0,0.0,0.0,-0.0403,0.0067,0.0414,0.0768,0.121,0.1656,0.2029,0.2217,0.0,0.0,0.3833,0.3799,0.3531,0.3369,0.3015,0.262,0.2189,0.1703,0.1242,0.0,0.0,0.0,0.0,0.0,0.0,0.0,0.0,-1.052,-1.0527,0.0,-1.074,0.0,0.0,0.0,0.0,0.0,0.0,0.0,0.0,-1.3115,-1.306,-1.2991,-1.2569,-1.2352,-1.232,-1.1828,-1.1538,-1.1447,-1.0228,0.0,0.0,0.0,0.0,0.0,0.0,-1.0807,-1.0807,-1.0475,-1.0212,-1.0009,-0.9373,-0.8734,-0.8135,-0.6249,-0.4801,-0.3853,-0.3042,-0.2372,-0.1839,-0.1182,0.0,0.0,0.0,0.0,0.0,0.0,0.0,0.0,0.0,0.0,0.0,0.0,0.0,0.0,0.0,0.0,0.0,0.0,0.0,0.0,0.3307,0.0,0.0,0.0,0.0,0.0,0.0,0.0,0.0,0.0,0.0,-0.3421,-0.3775,-0.4247,-0.478,0.0,0.0,0.0,0.0,-0.3553,-0.3503,-0.3086,-0.2669,-0.2467,-0.1999,-0.153,-0.121,0.0,0.0,0.0302,0.0604,0.0721,0.074,0.0723,0.115,0.2445,0.2472,0.2246,0.203,0.1607,0.1186,0.0927,0.0301,-0.0252,-1.4503,0.0,0.0,0.0,0.0,-1.2647,-1.2882,-1.3185,-1.3185,-1.3185,-1.3187,-1.3133,0.0,0.0,0.0,0.0,0.0,0.0,-1.5108,-1.4738,-1.457,-1.4339,-1.4072,-1.3787,-1.3668,-1.3634,-1.3098,-1.2723,-1.2469,-1.193,-1.1423,-1.0996,0.0,0.0,0.0,0.0,-1.1012,-1.0996,-1.0681,-1.0419,-1.0222,-0.9803,-0.8901,-0.7529,-0.6235,-0.5154,-0.432,-0.3522,-0.2859,-0.2328,-0.1428,0.0,0.0,0.0,0.0,0.0,0.0,0.0,0.0,0.0,0.0,0.0,0.0,0.0,0.0,0.0,0.0,0.0,0.0,0.0,0.2353,0.178,0.1376,0.0,0.0,0.0,0.0,0.0,0.0,0.0,0.0,0.0,-0.5447,-0.53,-0.535,0.0,0.0,-0.5385,-0.5249,-0.4885,-0.4519,-0.4137,0.0,0.0,0.0,-0.3052,-0.2885,-0.2649,-0.2179,-0.1712,-0.1292,-0.0939,-0.0692,-0.0655,-0.0864,-0.0917,-0.0595,0.0243,0.064,0.0398,0.0018,-0.0341,-0.0773,-0.1175,-0.1454,-1.9161,-1.7094,-1.5824,-1.5405,-1.5587,-1.5679,-1.5848,-1.613,-1.6121,-1.6121,-1.6132,-1.6027,-1.6036,-1.6138,-1.6429,0.0,0.0,0.0,-1.6813,-1.6257,-1.5947,-1.5615,-1.5252,-1.4999,-1.4808,-1.4657,-1.4214,-1.3841,-1.3527,-1.3367,-1.2917,-1.2177,0.0,0.0,-1.1779,-1.1641,-1.1536,-1.1455,-1.1079,-1.0783,-1.0574,-0.9928,-0.8897,-0.7446,-0.6544,-0.5705,-0.4877,-0.4116,-0.3425,-0.2837,-0.1886,-0.1072,0.0,0.0,0.0,0.0,0.0,0.0,0.0,0.0,0.0,0.0,0.0,0.3956,0.0,0.0,0.0,0.0,0.1821,0.1324,0.0782,0.0384,0.0,0.0,0.0,0.0,0.0,0.0,0.0,-0.4812,-0.5409,-0.598,-0.6626,-0.6428,-0.633,-0.6568,-0.6301,-0.6053,-0.593,0.0,-0.5186,-0.4868,-0.4702,-0.4503,-0.4187,-0.4068,-0.3954,-0.3785,-0.3503,-0.3117,-0.2733,-0.2447,-0.2268,-0.2238,-0.2394,-0.2626,-0.2784,-0.2186,-0.1615,-0.1511,-0.1665,-0.1989,-0.2472,-0.2731,-0.293,-2.3475,-2.321,-2.041,-1.9111,-1.8905,-1.9124,-1.9184,-1.9193,-1.9193,-1.9214,-1.9204,-1.9157,-1.9121,-1.9134,-1.9482,0.0,0.0,-1.8954,-1.839,-1.7675,-1.7159,-1.6752,-1.6419,-1.6096,-1.5775,-1.5455,-1.5176,-1.4854,-1.4592,-1.4565,-1.4235,-1.3572,-1.2839,-1.2492,-1.2499,-1.2357,-1.2204,-1.201,-1.1542,-1.1156,-1.0906,-0.987,-0.8824,-0.7757,-0.7083,-0.6321,-0.5483,-0.4741,-0.4059,-0.3405,-0.2485,-0.1674,-0.1022,0.0,0.0,0.0,0.0,0.0,0.0,0.0,0.0,0.0,0.0,0.0,0.0,0.0,0.0,0.0,-0.017,0.0,-0.0868,-0.1023,0.0,0.0,0.0,-0.274,-0.3544,-0.4281,-0.5014,-0.5872,0.0,0.0,0.0,0.0,-0.7155,-0.6963,-0.6667,-0.6465,-0.6432,-0.6017,-0.5683,-0.5633,-0.5385,-0.519,-0.512,-0.4984,-0.4835,-0.4725,-0.4691,-0.4459,-0.4006,-0.3892,-0.3866,-0.3791,-0.384,-0.3933,-0.4272,-0.4434,-0.4454,-0.3544,-0.3463,-0.3653,-0.4011,-0.4263,-0.4389,-2.6765,-2.6354,-2.5189,-2.3432,-2.146,-2.1697,-2.1783,-2.1783,-2.1792,-2.1804,-2.1764,-2.1422,-2.1161,-2.095,-2.0898,-2.0816,-2.0673,-1.9948,-1.9226,-1.8474,-1.7673,-1.7068,-1.6705,-1.6404,-1.6243,-1.6162,-1.6081,-1.5745,-1.5198,-1.5176,-1.4874,-1.4279,-1.4084,-1.347,-1.2529,-1.2357,-1.2272,-1.2221,-1.1616,-1.0954,-1.0242,-0.9825,-0.9122,-0.811,-0.7277,-0.6574,-0.5955,-0.5277,-0.4642,-0.4074,-0.3212,-0.2496,-0.1912,-0.1115,0.0,0.0,0.0,0.0,0.0,0.0,0.0,0.0,0.0,0.1288,0.0637,0.0,-0.0449,0.0,-0.1749,-0.223,-0.2363,-0.2825,0.0,0.0,-0.38,-0.4282,-0.4877,-0.5318,-0.5831,-0.6445,-0.6811,-0.7122,-0.7396,-0.7423,-0.7412,-0.7363,-0.7155,-0.6958,-0.6815,-0.6593,-0.6342,-0.6095,-0.5963,-0.5864,-0.5736,-0.5673,-0.562,-0.5591,-0.5455,-0.5286,-0.506,-0.4888,-0.4797,-0.4836,-0.4977,-0.5174,-0.5422,-0.5672,-0.5813,-0.573,-0.5284,-0.4936,-0.517,-0.5272,-0.531,-2.8544,-2.8091,-2.7897,-2.6591,-2.4618,-2.4045,-2.38,-2.3823,-2.3823,-2.3823,-2.3791,-2.3546,-2.3332,-2.3191,-2.3083,-2.2889,-2.2606,-2.1916,-2.0922,-1.972,-1.8989,-1.8128,-1.7206,-1.704,-1.6906,-1.6766,-1.6676,-1.6397,-1.6027,-1.5919,-1.5526,-1.4904,-1.4896,-1.4392,-1.3433,-1.3299,-1.3252,-1.3147,-1.2403,-1.1529,-1.0567,-1.0176,-0.9535,-0.8662,-0.7738,-0.7057,-0.6589,-0.5914,-0.5348,-0.4882,-0.4054,-0.3396,-0.3028,-0.2226,-0.1741,0.0,0.0,0.0,0.0,0.0,0.0,0.0,0.0,0.0,0.0,0.0,-0.2261,0.0,0.0,0.0,-0.3865,-0.4187,-0.4456,-0.468,-0.4981,-0.5352,-0.5793,-0.6136,-0.6482,-0.6872,-0.7167,-0.7379,-0.7493,-0.751,-0.751,-0.751,-0.7396,-0.7248,-0.7057,-0.6843,-0.6621,-0.6461,-0.6346,-0.6251,-0.6119,-0.6119,-0.6123,-0.6103,-0.6037,-0.5918,-0.5789,-0.567,-0.5619,-0.5732,-0.5835,-0.6004,-0.6275,-0.6498,-0.6695,-0.6772,-0.6572,-0.6298,-0.6202,-0.6183,-0.6162,-2.9633,-2.9229,-2.9332,-2.8827,-2.777,-2.6205,-2.5525,-2.5464,-2.5464,-2.5434,-2.5384,-2.5384,-2.5343,-2.5293,-2.5257,-2.4972,-2.4503,-2.3938,-2.2754,-2.108,-2.0503,-1.9445,-1.7943,-1.7804,-1.7585,-1.7264,-1.7052,-1.6913,-1.6817,-1.6573,-1.6126,-1.5549,-1.5469,-1.5204,-1.4697,-1.4638,-1.4464,-1.4146,-1.3386,-1.2446,-1.1313,-1.0774,-1.0095,-0.9276,-0.8343,-0.7674,-0.7269,-0.6572,-0.6046,-0.5699,-0.4918,-0.4386,-0.4198,-0.3528,-0.3177,0.0,-0.3077,0.0,0.0,0.0,0.0,0.0,0.0,0.0,0.0,-0.3509,-0.412,-0.4799,-0.4963,-0.5132,-0.5326,-0.5376,-0.551,-0.579,-0.599,-0.6224,-0.6518,-0.6822,-0.7066,-0.7265,-0.7475,-0.7598,-0.759,-0.7581,-0.7609,-0.7547,-0.7526,-0.7461,-0.7265,-0.6937,-0.6724,-0.6708,-0.6531,-0.6371,-0.6371,-0.6387,-0.6387,-0.6404,-0.6371,-0.6354,-0.6235,-0.6214,-0.6245,-0.6414,-0.6466,-0.6579,-0.69,-0.7099,-0.7238,-0.7219,-0.7315,-0.7288,-0.7019,-0.6938,-0.6992,-3.1309,-3.0861,-3.0154,-2.9741,-2.9436,-2.7998,-2.7215,-2.6885,-2.6909,-2.6679,-2.6339,-2.6352,-2.6123,-2.576,-2.5589,-2.5247,-2.47,-2.3998,-2.3065,-2.1919,-2.1031,-2.0087,-1.913,-1.8422,-1.7954,-1.769,-1.7362,-1.71,-1.6883,-1.683,-1.6609,-1.6213,-1.5943,-1.576,0.0,0.0,0.0,0.0,-1.3644,-1.2995,-1.1895,-1.1578,-1.0855,-0.9656,-0.9003,0.0,-0.7627,-0.7057,-0.6597,-0.6251,-0.5666,0.0,0.0,0.0,0.0,0.0,0.0,0.0,0.0,0.0,0.0,0.0,-0.588,-0.5617,-0.4762,-0.5226,-0.5746,-0.6105,-0.6253,-0.6427,-0.6606,-0.6794,-0.6895,-0.6983,-0.7145,-0.7289,-0.7386,-0.7517,-0.7635,-0.7687,-0.8006,-0.8147,-0.7938,-0.8043,-0.8008,-0.7705,-0.7666,-0.7596,-0.7461,-0.7106,-0.6827,-0.6724,-0.6515,-0.6404,-0.6404,-0.6404,-0.6404,-0.6404,-0.6404,-0.6404,-0.6371,-0.6354,-0.6492,-0.6777,-0.6881,-0.6975,-0.7301,-0.7407,-0.7426,-0.7446,-0.7484,-0.748,-0.7403,-0.7365,-0.741,-3.1785,0.0,-3.0626,-3.0103,0.0,0.0,-2.8431,-2.7572,-2.7379,-2.7151,-2.6933,-2.6933,-2.6822,-2.6581,-2.6486,-2.6136,-2.5611,-2.4978,-2.3984,-2.2676,-2.1767,-2.0679,-1.9478,-1.8911,-1.8495,-1.822,-1.7768,-1.7534,-1.752,-1.7241,-1.6946,-1.6631,-1.6477,-1.6301,-1.6155,-1.5826,-1.5208,-1.4301,-1.4294,-1.3811,-1.288,-1.2408,-1.1717,-1.0696,0.0,0.0,0.0,0.0,0.0,0.0,0.0,0.0,0.0,0.0,0.0,-0.6407,-0.6369,-0.6352,-0.6437,-0.6616,-0.6885,-0.7168,-0.7577,-0.7497,-0.6685,-0.6937,-0.7142,-0.719,-0.725,-0.7324,-0.7384,-0.7477,-0.7588,-0.7673,-0.7784,-0.7859,-0.7859,-0.7908,-0.7978,-0.8112,-0.8271,-0.8363,-0.8342,-0.8303,-0.8208,-0.7948,-0.7774,-0.7655,-0.751,-0.7155,-0.6831,-0.6593,-0.6482,-0.6404,-0.6404,-0.6404,-0.6404,-0.6404,-0.6404,-0.6404,-0.6404,-0.6404,-0.6538,-0.6902,-0.6984,-0.7102,-0.741,-0.7499,-0.7499,-0.7499,-0.7499,-0.7499,-0.7499,-0.7499,-0.7561,-3.1847,-3.1367,-3.0884,-3.0201,-2.9456,-2.9746,-2.9125,-2.7869,0.0,0.0,0.0,-2.732,-2.732,-2.7286,-2.7262,-2.6962,-2.6482,-2.5849,-2.4748,-2.3265,-2.2425,-2.118,-1.9689,-1.9339,-1.902,-1.8709,-1.8162,-1.8008,-1.8193,-1.7704,-1.734,-1.7094,-1.699,-1.68,-1.6404,-1.6147,-1.5687,-1.5097,-1.4958,-1.4565,-1.387,-1.3229,-1.2563,-1.1892,-1.0742,-0.9897,-0.9428,-0.8516,-0.8106,-0.823,-0.7773,-0.7667,-0.8004,-0.785,-0.7757,-0.7792,-0.7779,-0.7814,-0.7845,-0.8014,-0.8192,-0.8426,-0.875,-0.874,-0.8324,-0.8297,-0.8227,-0.8088,-0.8106,-0.8084,-0.8063,-0.8072,-0.8108,-0.8252,-0.8283,-0.8305,-0.8265,-0.8301,-0.8396,-0.8548,-0.8622,-0.8658,-0.8773,-0.8633,-0.8407,-0.823,-0.8015,-0.7728,-0.7544,-0.7176,-0.6815,-0.6531,-0.6449,-0.6404,-0.6404,-0.6404,-0.6404,-0.6404,-0.6404,-0.6404,-0.6408,-0.6428,-0.6595,-0.6926,-0.7008,-0.7157,-0.7422,-0.7499,-0.7499,-0.7499,-0.7499,-0.7499,-0.7499,-0.7499,-0.7564,-3.2109,-3.1357,-3.0884,-3.0387,-2.987,-2.9539,-2.8835,-2.7879,-2.7458,-2.732,-2.732,-2.732,-2.732,-2.7286,-2.7058,-2.6794,-2.6424,-2.547,-2.4492,0.0,-2.2575,-2.1474,-2.0358,-1.9793,-1.926,-1.8777,-1.8394,-1.8257,-1.8282,-1.8213,-1.7999,-1.7684,-1.7375,-1.6967,-1.644,-1.6367,-1.6155,-1.576,-1.5192,-1.4756,-1.4467,-1.387,-1.3227,-1.2577,-1.1841,-1.1064,-1.0266,-0.9656,-0.9194,-0.8884,-0.8476,-0.8351,-0.8566,-0.8407,-0.8362,-0.8531,-0.8549,-0.8614,-0.8795,-0.883,-0.9007,-0.9368,-0.9614,-0.9419,-0.8712,-0.8619,-0.87,-0.8834,-0.8823,-0.8908,-0.9064,-0.906,-0.8975,-0.8896,-0.9019,-0.9056,-0.8872,-0.8975,-0.9102,-0.9139,-0.9319,-0.9339,-0.921,-0.9155,-0.897,-0.8654,-0.8307,-0.8085,-0.7754,-0.7254,-0.6882,-0.6679,-0.6515,-0.642,-0.6404,-0.6404,-0.6404,-0.6404,-0.6404,-0.6412,-0.6428,-0.6533,-0.6717,-0.6959,-0.7092,-0.7244,-0.7462,-0.7499,-0.7499,-0.7499,-0.7499,-0.7499,-0.7499,-0.7499,-0.756,-3.2471,-3.2033,-3.1388,-3.0818,-3.0315,-2.9601,-2.9063,-2.8613,-2.8193,-2.7731,-2.733,-2.732,-2.7214,-2.7081,-2.6938,-2.6578,-2.6028,-2.5109,-2.4239,-2.3429,-2.2232,-2.1275,-2.0506,-1.9915,-1.9437,-1.9082,-1.8723,-1.8562,-1.858,-1.8394,-1.8225,-1.8047,-1.7925,-1.753,-1.693,-1.6887,-1.6652,-1.6191,-1.568,-1.5216,-1.4759,-1.4497,-1.3997,-1.3266,-1.2675,-1.1989,-1.1133,-1.0411,-0.9968,-0.9834,-0.9423,-0.9369,-0.9661,-0.957,-0.9647,-0.9875,-1.0035,-1.022,-1.0455,-1.0418,-1.0407,-1.0414,-1.04,-1.0179,-0.9706,-0.9476,-0.9348,-0.9341,-0.9327,-0.9318,-0.9311,-0.9303,-0.927,-0.9175,-0.9246,-0.9246,-0.9194,-0.9232,-0.9322,-0.9435,-0.9544,-0.9545,-0.9484,-0.9369,-0.915,-0.8764,-0.842,-0.8125,-0.7996,-0.7552,-0.7126,-0.689,-0.6697,-0.6535,-0.6437,-0.6404,-0.6404,-0.6404,-0.6404,-0.6444,-0.6538,-0.6677,-0.6802,-0.7037,-0.7179,-0.727,-0.7467,-0.7499,-0.7499,-0.7499,-0.7499,-0.7499,-0.7499,-0.7499,-0.7601,-3.2729,-3.2481,-3.1826,-3.1232,-3.0663,-2.9922,-2.9497,-2.928,-2.8918,-2.8317,-2.7638,-2.7445,-2.7198,-2.6911,-2.6723,-2.6245,-2.5538,-2.4639,-2.3784,-2.2954,-2.1776,-2.0891,-2.0333,-1.9861,-1.9558,-1.9294,-1.9041,-1.8924,-1.8895,-1.8642,-1.8482,-1.8408,-1.8343,-1.805,-1.756,-1.7521,-1.723,-1.6638,-1.633,-1.587,-1.5148,-1.5046,-1.466,-1.4012,-1.353,-1.2949,-1.2214,-1.1453,-1.1026,-1.0979,-1.0627,-1.0583,-1.0819,-1.0836,-1.0948,-1.1198,-1.1411,-1.1671,-1.195,-1.1983,-1.1818,-1.1475,-1.1194,-1.0938,-1.0617,-1.0208,-0.9884,-0.9695,-0.9666,-0.9595,-0.9492,-0.9454,-0.9416,-0.9378,-0.9411,-0.9416,-0.9378,-0.9416,-0.9468,-0.9638,-0.9676,-0.9657,-0.9569,-0.9436,-0.9153,-0.8762,-0.843,-0.8262,-0.8198,-0.791,-0.7599,-0.7233,-0.6915,-0.6671,-0.6494,-0.6432,-0.642,-0.6404,-0.6444,-0.6546,-0.6664,-0.6758,-0.6899,-0.7145,-0.7242,-0.7323,-0.7471,-0.7499,-0.7499,-0.7499,-0.7499,-0.7515,-0.7568,-0.76,-0.7666,-3.2851,-3.2129,-3.1984,-3.1447,-3.0766,-3.0584,-3.0087,-2.9373,-2.9259,-2.897,-2.8402,-2.7838,-2.7327,-2.6835,-2.6159,-2.5664,-2.524,-2.3992,-2.2979,-2.2198,-2.1326,-2.0532,-1.9835,-1.9706,-1.9576,-1.9324,-1.9254,-1.9224,-1.9224,-1.9195,-1.9049,-1.8738,-1.8445,-1.8291,-1.8211,-1.8203,-1.7889,-1.7236,-1.7193,-1.6732,-1.5848,-1.5512,-1.5177,-1.48,-1.4322,-1.3974,-1.3622,-1.328,-1.2831,-1.2419,-1.2183,-1.1991,-1.1877,-1.1863,-1.1955,-1.2138,-1.221,-1.2401,-1.283,-1.3041,-1.2949,-1.249,-1.2047,-1.1589,-1.1018,-1.0484,-1.0092,-0.9924,-0.9857,-0.9846,-0.986,-0.9809,-0.9733,-0.9601,-0.9695,-0.9771,-0.9625,-0.9733,-0.986,-0.9865,-0.9846,-0.9809,-0.9595,-0.9394,-0.912,-0.8755,-0.8637,-0.8571,-0.8557,-0.8387,-0.8082,-0.7694,-0.7171,-0.6758,-0.6646,-0.6498,-0.6432,-0.642,-0.6562,-0.6672,-0.6769,-0.6972,-0.7185,-0.7218,-0.7354,-0.7447,-0.7483,-0.7499,-0.7499,-0.7499,-0.7531,-0.7567,-0.7714,-0.7735,-0.7801,-3.276,-3.2419,-3.2419,-3.2057,-3.1467,-3.1205,-3.0638,-2.9845,-2.9824,-2.9356,-2.8508,-2.7878,-2.7457,-2.7147,-2.627,-2.5465,-2.4621,-2.3226,-2.2249,-2.1573,-2.0627,-2.0009,-1.9706,-1.9524,-1.9402,-1.9305,-1.9298,-1.9298,-1.9298,-1.9298,-1.9232,-1.9081,-1.8935,-1.8782,-1.8631,-1.8616,-1.8357,-1.7911,-1.7689,-1.7309,-1.6747,-1.6243,-1.5738,-1.5236,-1.502,-1.4637,-1.4109,-1.3791,-1.3509,-1.32,-1.2982,-1.2863,-1.2764,-1.2771,-1.2882,-1.3125,-1.3397,-1.36,-1.3762,-1.3836,-1.3734,-1.3397,-1.2936,-1.2413,-1.1818,-1.1316,-1.0833,-1.0368,-1.0045,-0.9884,-0.9889,-0.9884,-0.9884,-0.9809,-0.9841,-0.9865,-0.979,-0.9841,-0.9884,-0.9884,-0.9809,-0.9638,-0.9411,-0.9146,-0.8894,-0.8723,-0.8703,-0.8703,-0.867,-0.8529,-0.8253,-0.786,-0.7366,-0.6978,-0.6758,-0.6531,-0.6473,-0.655,-0.6635,-0.6742,-0.6972,-0.7072,-0.723,-0.735,-0.7427,-0.7495,-0.7495,-0.7499,-0.7499,-0.7499,-0.7511,-0.758,-0.7763,-0.768,-0.7644,-3.2698,-3.2698,-3.2698,-3.2372,-3.1873,-3.1581,-3.0949,-3.0197,-3.0157,-2.9507,-2.8476,-2.7935,-2.7455,-2.6959,-2.6091,-2.5099,-2.4021,-2.2749,-2.1842,-2.1195,-2.0316,-1.993,-1.9817,-1.9641,-1.9535,-1.9542,-1.955,-1.955,-1.9554,-1.9466,-1.9437,-1.943,-1.9323,-1.918,-1.8975,-1.8946,-1.876,-1.8445,-1.8189,-1.7857,-1.7434,-1.7004,-1.6418,-1.5746,-1.5687,-1.534,-1.4715,-1.4511,-1.4307,-1.403,-1.3876,-1.3755,-1.3695,-1.3675,-1.3811,-1.4077,-1.4462,-1.465,-1.459,-1.4596,-1.4504,-1.4224,-1.3747,-1.316,-1.2547,-1.1936,-1.1364,-1.0782,-1.0334,-1.0113,-1.0096,-1.0077,-1.0077,-1.0091,-1.0053,-1.0005,-1.001,-0.9957,-0.9884,-0.9803,-0.9714,-0.9487,-0.9246,-0.8932,-0.8703,-0.8703,-0.8703,-0.8703,-0.8675,-0.8538,-0.8268,-0.792,-0.7557,-0.7163,-0.678,-0.6531,-0.6506,-0.6578,-0.666,-0.688,-0.7131,-0.7192,-0.7287,-0.7423,-0.7483,-0.7499,-0.7499,-0.7499,-0.7499,-0.7499,-0.7515,-0.7616,-0.7825,-0.7604,-0.7437,-3.2698,-3.2669,-3.2698,-3.2241,-3.1631,-3.1554,-3.0964,-2.9968,-2.9968,-2.9378,-2.8401,-2.8062,-2.7297,-2.6164,-2.535,-2.4464,-2.3587,-2.2654,-2.1804,-2.1094,-2.0685,-2.0416,-2.0194,-2.0166,-2.0144,-2.0086,-2.0079,-2.0101,-2.0101,-1.9906,-1.9774,-1.9752,-1.9481,-1.9305,-1.925,-1.9254,-1.9115,-1.8789,-1.8734,-1.843,-1.7889,-1.7741,-1.726,-1.6477,-1.6345,-1.6148,-1.5833,-1.579,-1.5559,-1.5054,-1.4962,-1.4865,-1.4657,-1.4629,-1.474,-1.4984,-1.5228,-1.534,-1.5311,-1.5296,-1.5199,-1.4989,-1.4343,-1.3682,-1.3044,-1.2249,-1.156,-1.1038,-1.079,-1.0606,-1.058,-1.0501,-1.0506,-1.0516,-1.039,-1.0293,-1.0277,-1.0059,-0.9825,-0.9692,-0.9592,-0.9378,-0.9061,-0.8846,-0.8723,-0.8703,-0.8703,-0.8703,-0.868,-0.8533,-0.8303,-0.8051,-0.7664,-0.7163,-0.6789,-0.6531,-0.6424,-0.6509,-0.6746,-0.6971,-0.7102,-0.7233,-0.7373,-0.7472,-0.7499,-0.7499,-0.7499,-0.7499,-0.7499,-0.7507,-0.7536,-0.7654,-0.7906,-0.7569,-0.7346,-3.2889,-3.2402,-3.1971,-3.1639,-3.1384,-3.099,-3.0352,-2.9555,-2.9327,-2.8625,-2.7714,-2.7366,-2.6738,-2.585,-2.5026,-2.4092,-2.3124,-2.2215,-2.1437,-2.0795,-2.0503,-2.0285,-2.021,-2.021,-2.021,-2.021,-2.021,-2.021,-2.0203,-2.0086,-2.0062,-2.0011,-1.9767,-1.9613,-1.9583,-1.94,-1.9239,-1.9122,-1.8906,-1.8672,-1.843,-1.8233,-1.7852,-1.7295,-1.6909,-1.6558,-1.6243,-1.6016,-1.5812,-1.5618,-1.5422,-1.5236,-1.5166,-1.5152,-1.5187,-1.5277,-1.5368,-1.541,-1.541,-1.541,-1.5368,-1.527,-1.4774,-1.422,-1.3715,-1.2998,-1.2323,-1.1746,-1.1427,-1.1264,-1.1031,-1.0785,-1.0597,-1.0587,-1.0548,-1.0463,-1.0451,-1.029,-1.0076,-0.9837,-0.9513,-0.9099,-0.8899,-0.8746,-0.8703,-0.8703,-0.8703,-0.8703,-0.8665,-0.8537,-0.8335,-0.811,-0.7837,-0.7512,-0.7133,-0.6664,-0.6436,-0.6578,-0.6758,-0.6933,-0.708,-0.7188,-0.7308,-0.7423,-0.7471,-0.7487,-0.7487,-0.7532,-0.7528,-0.754,-0.7564,-0.7764,-0.7967,-0.7558,-0.7222,-3.2952,-3.2318,-3.1653,-3.124,-3.0986,-3.0505,-2.9816,-2.9059,-2.8807,-2.8062,-2.708,-2.6775,-2.622,-2.5411,-2.4743,-2.3921,-2.295,-2.2193,-2.1582,-2.1141,-2.0916,-2.0831,-2.0817,-2.0736,-2.0678,-2.0663,-2.0568,-2.0524,-2.0502,-2.0415,-2.0371,-2.0349,-2.0077,-1.9891,-1.9774,-1.9588,-1.9448,-1.9283,-1.9085,-1.8906,-1.8782,-1.8577,-1.8299,-1.7947,-1.7466,-1.6983,-1.6572,-1.6345,-1.6155,-1.6052,-1.5848,-1.5709,-1.5731,-1.5738,-1.5731,-1.5702,-1.5622,-1.5563,-1.5549,-1.5468,-1.5368,-1.5305,-1.4929,-1.4503,-1.3998,-1.3434,-1.2796,-1.2176,-1.1817,-1.1575,-1.1235,-1.0913,-1.0763,-1.0774,-1.0709,-1.0603,-1.0576,-1.0338,-1.005,-0.9716,-0.9249,-0.887,-0.8727,-0.8703,-0.8703,-0.8703,-0.8703,-0.8703,-0.8665,-0.8527,-0.8367,-0.8207,-0.7949,-0.772,-0.7491,-0.7142,-0.6781,-0.6831,-0.6881,-0.6999,-0.703,-0.7128,-0.7241,-0.7357,-0.7415,-0.7435,-0.7476,-0.7552,-0.7581,-0.7597,-0.7715,-0.791,-0.7799,-0.7517,-0.7167,-3.2845,-3.2403,-3.1785,-3.1011,-3.0466,-3.0018,-2.9384,-2.8606,-2.8453,-2.7685,-2.6656,-2.6491,-2.5856,-2.4807,-2.4596,-2.3996,-2.3232,-2.278,-2.2386,-2.2082,-2.2052,-2.203,-2.1993,-2.1715,-2.1562,-2.1547,-2.1328,-2.116,-2.1108,-2.0831,-2.07,-2.0641,-2.0371,-2.0098,-1.9837,-1.9767,-1.9605,-1.9364,-1.9261,-1.9129,-1.8865,-1.8796,-1.8635,-1.8313,-1.7984,-1.7545,-1.6991,-1.6888,-1.669,-1.6448,-1.636,-1.6374,-1.6309,-1.6309,-1.6353,-1.6272,-1.6089,-1.5935,-1.5863,-1.5558,-1.5293,-1.5083,-1.4818,-1.4335,-1.3773,-1.3281,-1.2717,-1.2093,-1.175,-1.1481,-1.1083,-1.0934,-1.0982,-1.1187,-1.0828,-1.0608,-1.0517,-1.019,-0.9744,-0.9385,-0.898,-0.8723,-0.8703,-0.8703,-0.8703,-0.8703,-0.8703,-0.8703,-0.8684,-0.8537,-0.8418,-0.8339,-0.8163,-0.7927,-0.7806,-0.7672,-0.735,-0.7126,-0.7124,-0.7151,-0.7029,-0.7046,-0.7138,-0.7267,-0.737,-0.7407,-0.7585,-0.7646,-0.7727,-0.778,-0.7923,-0.8032,-0.7915,-0.7667,-0.7062,-3.1663,-3.1449,-3.059,-3.0085,-2.9775,-2.9018,-2.8495,-2.8179,-2.776,-2.7177,-2.6592,-2.6325,-2.5844,-2.5256,-2.4808,-2.4275,-2.3795,-2.3412,-2.2905,-2.2317,-2.2198,-2.2206,-2.2184,-2.2118,-2.195,-2.1715,-2.1598,-2.1423,-2.124,-2.1087,-2.1057,-2.097,-2.07,-2.0378,-2.0064,-1.9898,-1.9654,-1.9342,-1.9298,-1.9246,-1.9159,-1.9125,-1.8964,-1.8672,-1.8533,-1.8277,-1.7884,-1.7239,-1.6851,-1.6756,-1.6506,-1.6389,-1.6396,-1.6389,-1.6389,-1.6382,-1.6316,-1.614,-1.5936,-1.5526,-1.5148,-1.485,-1.4365,-1.3885,-1.3493,-1.2972,-1.2431,-1.1844,-1.1445,-1.1062,-1.0803,-1.072,-1.0773,-1.0791,-1.0683,-1.0581,-1.0502,-1.0095,-0.9672,-0.9314,-0.8956,-0.8742,-0.8703,-0.8703,-0.8723,-0.8703,-0.8703,-0.8703,-0.8665,-0.8551,-0.8479,-0.8537,-0.8322,-0.8206,-0.8148,-0.8089,-0.7901,-0.7566,-0.7443,-0.7253,-0.7104,-0.6953,-0.7054,-0.7198,-0.7316,-0.7468,-0.7642,-0.7768,-0.787,-0.7975,-0.8093,-0.8153,-0.8191,-0.7806,-0.7174,-3.1149,-3.0921,-3.0041,-2.9604,-2.9439,-2.8668,-2.8276,-2.8071,-2.7524,-2.7087,-2.6756,-2.6316,-2.59,-2.5541,-2.5011,-2.451,-2.4115,-2.386,-2.3333,-2.2632,-2.2528,-2.2528,-2.2506,-2.2389,-2.2184,-2.1928,-2.1876,-2.1774,-2.1576,-2.1452,-2.1386,-2.1342,-2.1036,-2.0707,-2.0393,-2.0098,-1.9811,-1.9518,-1.9371,-1.9298,-1.9298,-1.9298,-1.9202,-1.9012,-1.888,-1.8712,-1.8438,-1.7796,-1.738,-1.721,-1.6924,-1.6755,-1.6726,-1.6733,-1.6741,-1.6704,-1.6533,-1.6311,-1.6014,-1.5435,-1.4911,-1.4535,-1.4039,-1.3613,-1.3315,-1.2825,-1.2465,-1.1995,-1.1629,-1.1249,-1.0939,-1.0678,-1.0596,-1.0489,-1.0489,-1.0446,-1.032,-0.9947,-0.9585,-0.9314,-0.9089,-0.8918,-0.8842,-0.8899,-0.8875,-0.8842,-0.8808,-0.8746,-0.8708,-0.8613,-0.8627,-0.8646,-0.8561,-0.8501,-0.8505,-0.8458,-0.8406,-0.8085,-0.7774,-0.747,-0.7211,-0.7001,-0.6975,-0.723,-0.7387,-0.7638,-0.7829,-0.7963,-0.8077,-0.8166,-0.826,-0.8361,-0.836,-0.7875,-0.7295,-3.1111,-3.075,-3.0074,-2.9578,-2.9276,-2.8918,-2.8552,-2.8226,-2.7809,-2.75,-2.7083,-2.6491,-2.5988,-2.5651,-2.5266,-2.4695,-2.4208,-2.4077,-2.3682,-2.3195,-2.3025,-2.301,-2.2967,-2.2731,-2.2491,-2.2235,-2.2206,-2.2206,-2.2059,-2.184,-2.1708,-2.162,-2.1364,-2.1021,-2.067,-2.0371,-2.0106,-1.9818,-1.9518,-1.9364,-1.9356,-1.9305,-1.929,-1.9261,-1.9019,-1.8865,-1.8792,-1.843,-1.8116,-1.7821,-1.7523,-1.7377,-1.7353,-1.7346,-1.7302,-1.7226,-1.6785,-1.6373,-1.5977,-1.5273,-1.4611,-1.4118,-1.3781,-1.3559,-1.3079,-1.2872,-1.2624,-1.2249,-1.1965,-1.168,-1.1262,-1.0903,-1.0591,-1.0347,-1.0293,-1.0186,-0.9957,-0.9735,-0.9551,-0.9389,-0.9308,-0.9232,-0.9037,-0.9151,-0.9156,-0.908,-0.9008,-0.8884,-0.8784,-0.8708,-0.8703,-0.8684,-0.8665,-0.8642,-0.8609,-0.86,-0.8548,-0.8406,-0.8085,-0.7759,-0.7442,-0.722,-0.7116,-0.7354,-0.7545,-0.7789,-0.7975,-0.813,-0.8244,-0.8338,-0.8444,-0.8558,-0.8366,-0.7937,-0.7423,-3.0171,-3.0018,-2.9585,-2.9387,-2.9258,-2.8937,-2.8766,-2.8612,-2.8212,-2.7986,-2.7704,-2.6885,-2.6418,-2.6238,-2.5477,-2.4734,-2.4278,-2.4131,-2.3736,-2.3199,-2.3106,-2.3106,-2.3106,-2.3025,-2.2806,-2.2542,-2.2506,-2.2396,-2.2191,-2.2103,-2.1942,-2.1693,-2.1606,-2.1248,-2.0758,-2.0619,-2.0407,-2.0113,-1.9825,-1.9657,-1.962,-1.9422,-1.9305,-1.929,-1.9217,-1.9166,-1.9144,-1.8833,-1.8511,-1.8203,-1.8101,-1.8043,-1.7991,-1.7784,-1.7596,-1.7337,-1.6871,-1.6259,-1.5618,-1.4894,-1.4238,-1.3698,-1.3285,-1.2888,-1.2632,-1.2406,-1.217,-1.1909,-1.1646,-1.15,-1.1311,-1.1064,-1.074,-1.0353,-1.0196,-1.0021,-0.9906,-0.9733,-0.9587,-0.9511,-0.9402,-0.9327,-0.9265,-0.9265,-0.9308,-0.9232,-0.9099,-0.8984,-0.8884,-0.8746,-0.8703,-0.8703,-0.8684,-0.8684,-0.8694,-0.8694,-0.8666,-0.8614,-0.8374,-0.8096,-0.7821,-0.7586,-0.7575,-0.7688,-0.7796,-0.8,-0.813,-0.8251,-0.8378,-0.8468,-0.8525,-0.8594,-0.8458,-0.812,-0.7584,-2.9593,-2.9561,-2.9373,-2.9307,-2.929,-2.9085,-2.8999,-2.8931,-2.8614,-2.8443,-2.819,-2.7309,-2.6859,-2.674,-2.5949,-2.5164,-2.4583,-2.439,-2.3915,-2.3351,-2.3147,-2.3113,-2.3106,-2.3098,-2.3003,-2.2849,-2.282,-2.2709,-2.2579,-2.244,-2.2257,-2.2074,-2.1818,-2.1496,-2.1153,-2.0795,-2.0619,-2.0386,-2.0135,-1.9959,-1.9938,-1.9671,-1.9532,-1.9466,-1.9393,-1.9298,-1.9268,-1.9115,-1.8789,-1.8416,-1.8299,-1.8299,-1.8284,-1.813,-1.7875,-1.7606,-1.7016,-1.6338,-1.5606,-1.4726,-1.3962,-1.3521,-1.3024,-1.2724,-1.2597,-1.2419,-1.2266,-1.2202,-1.1925,-1.18,-1.1675,-1.1391,-1.0993,-1.0659,-1.0369,-1.0104,-0.9941,-0.979,-0.9695,-0.962,-0.9587,-0.9511,-0.9454,-0.9492,-0.9487,-0.9411,-0.9251,-0.9118,-0.9003,-0.8822,-0.8703,-0.8703,-0.8627,-0.8589,-0.8589,-0.8589,-0.8608,-0.859,-0.8557,-0.8305,-0.8006,-0.7798,-0.7812,-0.7851,-0.8008,-0.8162,-0.8268,-0.8391,-0.8472,-0.8545,-0.8586,-0.8524,-0.8366,-0.8054,-0.754,-2.9307,-2.9307,-2.9307,-2.9307,-2.9307,-2.9299,-2.9273,-2.9239,-2.8965,-2.8869,-2.8614,-2.7724,-2.7271,-2.7199,-2.6423,-2.576,-2.5037,-2.4747,-2.4198,-2.3637,-2.3281,-2.3106,-2.3106,-2.3106,-2.3084,-2.3054,-2.3098,-2.3069,-2.2952,-2.2762,-2.2645,-2.2462,-2.2045,-2.1811,-2.1606,-2.1167,-2.0831,-2.0773,-2.0451,-2.0276,-2.0203,-1.9981,-1.9811,-1.9713,-1.943,-1.9312,-1.9298,-1.9246,-1.9027,-1.8438,-1.8401,-1.8492,-1.847,-1.8401,-1.8176,-1.775,-1.7097,-1.6377,-1.5727,-1.4593,-1.3809,-1.351,-1.3133,-1.2837,-1.2813,-1.2761,-1.2667,-1.2573,-1.2495,-1.2224,-1.2085,-1.1676,-1.1257,-1.0955,-1.072,-1.044,-1.0107,-0.9973,-0.9897,-0.9739,-0.9864,-0.9832,-0.9765,-0.9768,-0.9803,-0.9525,-0.9397,-0.9289,-0.9118,-0.8941,-0.8803,-0.8703,-0.8608,-0.8475,-0.8475,-0.8475,-0.8494,-0.8504,-0.8575,-0.8388,-0.8026,-0.7857,-0.7865,-0.7937,-0.8086,-0.8239,-0.8407,-0.8497,-0.8554,-0.8582,-0.8612,-0.8432,-0.8204,-0.776,-0.7294,-2.9307,-2.9307,-2.9307,-2.9307,-2.9307,-2.9307,-2.9307,-2.9299,-2.9222,-2.917,-2.8939,-2.8043,-2.7602,-2.7545,-2.6641,-2.5799,-2.5208,-2.499,-2.4502,-2.3623,-2.3259,-2.3128,-2.3128,-2.3157,-2.312,-2.3113,-2.3106,-2.3106,-2.3069,-2.301,-2.2841,-2.2585,-2.2439,-2.2271,-2.2023,-2.1686,-2.1489,-2.1386,-2.0897,-2.0619,-2.0532,-2.0276,-2.0025,-1.9825,-1.9522,-1.9334,-1.9305,-1.9298,-1.9224,-1.9122,-1.9063,-1.9005,-1.8957,-1.8796,-1.8492,-1.7878,-1.6985,-1.6099,-1.5297,-1.4499,-1.3787,-1.3542,-1.3384,-1.3263,-1.3053,-1.2886,-1.2724,-1.2535,-1.2292,-1.2141,-1.1935,-1.1752,-1.1445,-1.1154,-1.0961,-1.0784,-1.0512,-1.0426,-1.0379,-1.0338,-1.0245,-1.0129,-0.9934,-0.9904,-0.9837,-0.9654,-0.953,-0.9454,-0.9265,-0.9056,-0.8903,-0.8765,-0.8608,-0.8499,-0.8493,-0.8516,-0.8558,-0.8566,-0.8605,-0.8517,-0.8144,-0.7948,-0.7977,-0.8052,-0.8146,-0.8288,-0.8407,-0.8501,-0.8537,-0.8566,-0.8568,-0.8296,-0.7981,-0.7536,-0.6985,-2.9307,-2.9307,-2.9307,-2.9307,-2.9307,-2.9307,-2.9307,-2.9307,-2.9307,-2.9218,-2.8962,-2.8269,-2.79,-2.7671,-2.6985,-2.6301,-2.5583,-2.5061,-2.4495,-2.3924,-2.364,-2.3581,-2.3567,-2.3515,-2.3449,-2.3186,-2.3106,-2.3106,-2.3106,-2.3098,-2.301,-2.2811,-2.2673,-2.2535,-2.2374,-2.2111,-2.1832,-2.1657,-2.1379,-2.1115,-2.0904,-2.0605,-2.0283,-1.9996,-1.9708,-1.9532,-1.9539,-1.9371,-1.932,-1.9305,-1.9305,-1.9305,-1.929,-1.9118,-1.8766,-1.8142,-1.7118,-1.6214,-1.5463,-1.4507,-1.3797,-1.3636,-1.3545,-1.3447,-1.326,-1.3085,-1.2913,-1.27,-1.247,-1.2158,-1.1932,-1.1731,-1.1537,-1.1397,-1.1209,-1.108,-1.0925,-1.0742,-1.0597,-1.0576,-1.0494,-1.0406,-1.0295,-1.016,-1.0074,-0.9969,-0.9642,-0.9556,-0.9416,-0.9208,-0.9003,-0.8827,-0.8651,-0.8541,-0.8545,-0.8577,-0.8654,-0.8699,-0.8748,-0.8566,-0.8279,-0.8169,-0.8134,-0.8105,-0.8052,-0.8191,-0.8292,-0.839,-0.8491,-0.8548,-0.8454,-0.816,-0.7735,-0.7205,-0.665,-2.9307,-2.9307,-2.9307,-2.9307,-2.9307,-2.9307,-2.9307,-2.9307,-2.9307,-2.9119,-2.8774,-2.8436,-2.8031,-2.7659,-2.7253,-2.6692,-2.5923,-2.5093,-2.4415,-2.4206,-2.4027,-2.4009,-2.3984,-2.3965,-2.3779,-2.3288,-2.3245,-2.3208,-2.3128,-2.3106,-2.3084,-2.3047,-2.2857,-2.274,-2.2645,-2.2403,-2.2154,-2.1942,-2.1715,-2.1518,-2.1269,-2.0962,-2.0612,-2.0291,-2.0003,-1.9869,-1.9818,-1.963,-1.944,-1.9386,-1.9378,-1.9349,-1.9305,-1.9246,-1.9037,-1.8389,-1.7305,-1.6456,-1.5706,-1.4713,-1.3879,-1.3842,-1.3723,-1.3608,-1.3497,-1.3313,-1.3141,-1.2937,-1.2667,-1.2253,-1.2067,-1.1834,-1.1688,-1.158,-1.1413,-1.1327,-1.1219,-1.0935,-1.0796,-1.0742,-1.073,-1.0656,-1.0536,-1.0413,-1.0358,-1.0256,-0.9944,-0.9675,-0.9569,-0.9437,-0.9285,-0.9121,-0.8959,-0.8851,-0.8831,-0.882,-0.8879,-0.8791,-0.8841,-0.8623,-0.8377,-0.8191,-0.8063,-0.7945,-0.7931,-0.8077,-0.8191,-0.8288,-0.8394,-0.8485,-0.8366,-0.8069,-0.7514,-0.6893,-0.6362,-2.9307,-2.9307,-2.9307,-2.9307,-2.9307,-2.9307,-2.9307,-2.9307,-2.9307,-2.9086,-2.8766,-2.8461,-2.8089,-2.7617,-2.7026,-2.6398,-2.5719,-2.5026,-2.4602,-2.4477,-2.4324,-2.4206,-2.4228,-2.4243,-2.4082,-2.3888,-2.3684,-2.3442,-2.3186,-2.3106,-2.3106,-2.3067,-2.304,-2.2996,-2.2877,-2.2694,-2.2483,-2.2278,-2.2001,-2.1737,-2.1525,-2.1247,-2.0926,-2.0605,-2.0298,-2.0152,-2.013,-2.0064,-1.9952,-1.9745,-1.9715,-1.9554,-1.9307,-1.9242,-1.89,-1.8265,-1.7292,-1.6411,-1.5787,-1.4814,-1.4228,-1.4121,-1.4051,-1.3933,-1.3771,-1.3545,-1.3335,-1.3025,-1.2711,-1.2269,-1.1806,-1.1795,-1.1606,-1.145,-1.1402,-1.1364,-1.1332,-1.1268,-1.1193,-1.1155,-1.1037,-1.0882,-1.0791,-1.0674,-1.0577,-1.0497,-1.0319,-1.0107,-0.9983,-0.9861,-0.9722,-0.9536,-0.9348,-0.9272,-0.9196,-0.9171,-0.9158,-0.8928,-0.8864,-0.8689,-0.8429,-0.8143,-0.7984,-0.798,-0.7931,-0.7967,-0.8089,-0.8207,-0.8357,-0.8519,-0.8277,-0.7981,-0.7382,-0.6782,-0.6362,-2.9307,-2.9307,-2.9307,-2.9307,-2.9307,-2.9307,-2.9307,-2.9307,-2.9275,-2.9021,-2.8601,-2.8329,-2.7965,-2.7451,-2.7159,-2.6532,-2.5808,-2.5155,-2.4892,-2.4807,-2.4697,-2.4617,-2.4602,-2.4602,-2.4499,-2.4375,-2.4145,-2.3808,-2.3384,-2.3179,-2.3128,-2.3106,-2.3106,-2.3106,-2.3084,-2.2928,-2.2746,-2.2593,-2.2315,-2.1993,-2.1701,-2.1386,-2.1123,-2.094,-2.0649,-2.0481,-2.0429,-2.0261,-2.0063,-1.9794,-1.9642,-1.9396,-1.9079,-1.8778,-1.8503,-1.803,-1.7107,-1.6252,-1.5678,-1.4773,-1.4213,-1.4191,-1.4196,-1.4148,-1.3997,-1.3761,-1.3482,-1.3168,-1.295,-1.2576,-1.2151,-1.2075,-1.1951,-1.1774,-1.1698,-1.1693,-1.1704,-1.1704,-1.1634,-1.151,-1.1295,-1.1155,-1.1054,-1.0915,-1.0787,-1.069,-1.0652,-1.0534,-1.0392,-1.0198,-1.0018,-0.9757,-0.9536,-0.9453,-0.9411,-0.9432,-0.9322,-0.909,-0.895,-0.8775,-0.8527,-0.8287,-0.8175,-0.8134,-0.8073,-0.8065,-0.8114,-0.8297,-0.8427,-0.8515,-0.8211,-0.7848,-0.725,-0.6719,-0.638,-2.9307,-2.9307,-2.9307,-2.9307,-2.9307,-2.9307,-2.9307,-2.9307,-2.9307,-2.8988,-2.8469,-2.8296,-2.7932,-2.7367,-2.7,-2.6566,-2.5977,-2.5307,-2.5097,-2.5056,-2.5034,-2.5064,-2.5078,-2.5064,-2.4924,-2.4712,-2.4543,-2.4265,-2.3625,-2.3354,-2.3208,-2.3128,-2.3106,-2.3106,-2.3091,-2.3069,-2.2908,-2.2791,-2.2585,-2.2301,-2.1781,-2.1459,-2.1262,-2.1203,-2.0926,-2.0795,-2.0765,-2.0521,-2.0153,-1.9823,-1.9508,-1.912,-1.8685,-1.8191,-1.7856,-1.7589,-1.6753,-1.6051,-1.5351,-1.4692,-1.4196,-1.4196,-1.4196,-1.4191,-1.4153,-1.3944,-1.3702,-1.3351,-1.3238,-1.305,-1.2641,-1.2501,-1.2379,-1.2185,-1.21,-1.2073,-1.2012,-1.1974,-1.1909,-1.1758,-1.1558,-1.1396,-1.1273,-1.1161,-1.1021,-1.0989,-1.093,-1.0799,-1.0648,-1.0398,-1.0189,-0.9857,-0.9639,-0.9577,-0.9578,-0.9667,-0.9453,-0.9157,-0.9094,-0.9005,-0.8729,-0.8444,-0.8383,-0.8335,-0.8391,-0.8379,-0.8381,-0.8402,-0.8531,-0.8501,-0.8181,-0.7808,-0.7338,-0.6968,-0.6658,-2.9307,-2.9307,-2.9307,-2.9307,-2.9307,-2.9307,-2.9307,-2.9307,-2.9307,-2.9086,-2.8642,-2.8395,-2.8023,-2.7484,-2.6633,-2.6071,-2.5667,-2.5322,-2.5093,-2.5093,-2.5093,-2.5093,-2.5093,-2.5093,-2.5071,-2.4939,-2.4741,-2.4243,-2.3779,-2.3596,-2.3376,-2.3201,-2.3128,-2.3106,-2.3106,-2.3106,-2.306,-2.2965,-2.2762,-2.2337,-2.184,-2.1686,-2.1496,-2.1298,-2.1189,-2.1094,-2.0987,-2.0686,-2.0288,-1.9766,-1.9437,-1.8853,-1.8146,-1.7727,-1.7265,-1.6817,-1.6232,-1.5705,-1.5118,-1.4547,-1.4196,-1.4196,-1.4196,-1.4196,-1.4175,-1.4153,-1.3965,-1.3761,-1.3697,-1.3482,-1.3104,-1.2891,-1.2665,-1.2465,-1.2319,-1.2206,-1.2159,-1.2283,-1.2213,-1.2082,-1.1908,-1.1639,-1.1461,-1.1354,-1.1268,-1.1252,-1.1198,-1.1091,-1.0846,-1.0538,-1.02,-0.9847,-0.9684,-0.962,-0.9509,-0.9628,-0.9493,-0.9183,-0.9131,-0.9113,-0.8798,-0.8533,-0.8554,-0.854,-0.859,-0.869,-0.8746,-0.875,-0.8724,-0.86,-0.8406,-0.7996,-0.7558,-0.7217,-0.6953,-2.9307,-2.9307,-2.9307,-2.9307,-2.9307,-2.9307,-2.9307,-2.9307,-2.9307,-2.8988,-2.8568,-2.837,-2.7965,-2.7326,-2.6473,-2.6037,-2.5801,-2.5322,-2.5093,-2.5093,-2.5093,-2.5093,-2.5093,-2.5093,-2.5093,-2.5056,-2.4924,-2.4697,-2.4206,-2.3764,-2.3501,-2.3384,-2.3193,-2.3106,-2.3106,-2.3106,-2.3106,-2.301,-2.2791,-2.2498,-2.225,-2.2045,-2.1811,-2.1496,-2.1481,-2.1285,-2.0917,-2.0615,-2.007,-1.9405,-1.8854,-1.8206,-1.7481,-1.6998,-1.6536,-1.6142,-1.5768,-1.539,-1.5008,-1.4494,-1.4272,-1.4196,-1.4196,-1.4196,-1.4196,-1.4186,-1.4169,-1.4019,-1.4029,-1.3846,-1.3588,-1.3432,-1.3152,-1.2904,-1.2667,-1.2578,-1.2497,-1.247,-1.2481,-1.2373,-1.2265,-1.2043,-1.186,-1.179,-1.1731,-1.1661,-1.1573,-1.1419,-1.099,-1.0439,-1.0123,-0.9774,-0.9678,-0.9634,-0.9491,-0.9457,-0.9344,-0.9104,-0.9038,-0.8959,-0.8748,-0.8608,-0.8633,-0.8668,-0.872,-0.8865,-0.9039,-0.9109,-0.9087,-0.8882,-0.8662,-0.8274,-0.7892,-0.7622,-0.7512,-2.9307,-2.9307,-2.9307,-2.9307,-2.9307,-2.9307,-2.9307,-2.9307,-2.9307,-2.8988,-2.8494,-2.8229,-2.7733,-2.7067,-2.6432,-2.6037,-2.5902,-2.5363,-2.5127,-2.5093,-2.5093,-2.5093,-2.5093,-2.5093,-2.5093,-2.5093,-2.5064,-2.4902,-2.4617,-2.4181,-2.3823,-2.3596,-2.3245,-2.3128,-2.3106,-2.3106,-2.3106,-2.3084,-2.2893,-2.271,-2.2557,-2.2389,-2.2067,-2.1818,-2.1635,-2.1387,-2.078,-2.0206,-1.9593,-1.888,-1.8115,-1.7496,-1.6842,-1.6483,-1.6138,-1.5789,-1.5494,-1.5287,-1.4976,-1.4619,-1.4326,-1.4213,-1.4196,-1.4196,-1.4196,-1.4196,-1.4191,-1.4164,-1.4164,-1.4073,-1.3949,-1.3841,-1.3599,-1.3362,-1.3195,-1.3112,-1.3004,-1.2934,-1.2902,-1.2875,-1.2762,-1.2589,-1.2398,-1.2309,-1.2201,-1.2105,-1.1937,-1.1729,-1.1193,-1.0561,-1.019,-0.9897,-0.9861,-0.9799,-0.9584,-0.9424,-0.9247,-0.9088,-0.9017,-0.8898,-0.8763,-0.8672,-0.8663,-0.8736,-0.8834,-0.9066,-0.9305,-0.938,-0.9429,-0.9287,-0.908,-0.8674,-0.8309,-0.8043,-0.8062,-2.9307,-2.9307,-2.9307,-2.9307,-2.9307,-2.9307,-2.9307,-2.9307,-2.9307,-2.9086,-2.8601,-2.8056,-2.7392,-2.6792,-2.6331,-2.5936,-2.5633,-2.5255,-2.5127,-2.5093,-2.5093,-2.5093,-2.5093,-2.5093,-2.5093,-2.5093,-2.5093,-2.5071,-2.4954,-2.4587,-2.4101,-2.3647,-2.3384,-2.3193,-2.3106,-2.3106,-2.3106,-2.3106,-2.3018,-2.2886,-2.274,-2.2564,-2.233,-2.1884,-2.1708,-2.1394,-2.0723,-1.9952,-1.9113,-1.8428,-1.7565,-1.6868,-1.6317,-1.6113,-1.5863,-1.5655,-1.544,-1.5274,-1.5054,-1.4785,-1.4439,-1.4277,-1.4196,-1.4196,-1.4196,-1.4196,-1.4196,-1.4196,-1.4196,-1.4186,-1.4078,-1.397,-1.3825,-1.3663,-1.3497,-1.3383,-1.3303,-1.3328,-1.3312,-1.3355,-1.3231,-1.301,-1.2845,-1.2729,-1.2487,-1.237,-1.1976,-1.1767,-1.1398,-1.0822,-1.0443,-1.0173,-1.0117,-0.9988,-0.9763,-0.9562,-0.932,-0.9212,-0.9152,-0.8997,-0.8851,-0.8796,-0.8794,-0.8837,-0.8961,-0.9269,-0.9547,-0.9636,-0.9693,-0.9712,-0.9512,-0.9062,-0.8796,-0.8611,-0.8692,-2.9307,-2.9307,-2.9307,-2.9307,-2.9307,-2.9307,-2.9307,-2.9307,-2.9275,-2.8979,-2.8436,-2.7733,-2.7134,-2.6666,-2.6272,-2.5902,-2.5558,-2.5262,-2.5127,-2.5093,-2.5093,-2.5093,-2.5093,-2.5093,-2.5093,-2.5093,-2.5093,-2.5093,-2.5049,-2.4785,-2.4558,-2.4133,-2.3669,-2.3318,-2.3186,-2.3149,-2.3128,-2.312,-2.3113,-2.3018,-2.295,-2.287,-2.271,-2.2323,-2.2264,-2.1712,-2.0831,-1.9861,-1.8897,-1.7909,-1.6997,-1.6371,-1.5928,-1.5844,-1.575,-1.5626,-1.5459,-1.5368,-1.5206,-1.4911,-1.4659,-1.4428,-1.4288,-1.4213,-1.4245,-1.4213,-1.4196,-1.4196,-1.4207,-1.4223,-1.4153,-1.4094,-1.4008,-1.3857,-1.3713,-1.3647,-1.3599,-1.3593,-1.3598,-1.3587,-1.3495,-1.3339,-1.3226,-1.3098,-1.2853,-1.26,-1.2173,-1.1778,-1.1425,-1.1034,-1.0623,-1.0262,-1.0173,-0.9874,-0.9616,-0.9488,-0.9365,-0.9335,-0.9273,-0.9142,-0.9015,-0.8995,-0.8993,-0.9025,-0.9113,-0.9372,-0.9653,-0.9881,-0.9943,-0.9901,-0.9726,-0.9451,-0.926,-0.9085,-0.9209,-2.9307,-2.9307,-2.9307,-2.9307,-2.9307,-2.9307,-2.9307,-2.9275,-2.9185,-2.8757,-2.8089,-2.7467,-2.6941,-2.654,-2.6238,-2.5801,-2.5464,-2.5194,-2.5127,-2.5093,-2.5093,-2.5093,-2.5093,-2.5093,-2.5093,-2.5093,-2.5093,-2.5093,-2.5078,-2.4858,-2.4675,-2.4456,-2.4137,-2.3771,-2.3479,-2.3288,-2.3259,-2.3252,-2.3149,-2.3113,-2.3098,-2.3076,-2.2899,-2.2599,-2.2534,-2.1991,-2.0986,-1.9961,-1.8868,-1.779,-1.6783,-1.6028,-1.5726,-1.5601,-1.5601,-1.5601,-1.558,-1.548,-1.5308,-1.5047,-1.4826,-1.4643,-1.4536,-1.4449,-1.4401,-1.4385,-1.4428,-1.4207,-1.4239,-1.4256,-1.4186,-1.4083,-1.4116,-1.3997,-1.3981,-1.39,-1.3846,-1.3825,-1.3793,-1.3797,-1.3695,-1.3598,-1.348,-1.3326,-1.2945,-1.264,-1.2205,-1.1844,-1.1566,-1.1163,-1.0706,-1.0382,-1.014,-0.9776,-0.9366,-0.9427,-0.9488,-0.9456,-0.9396,-0.9314,-0.9214,-0.9202,-0.9133,-0.9094,-0.922,-0.9489,-0.9711,-0.9901,-1.0005,-1.0066,-0.9817,-0.9526,-0.9494,-0.933,-0.9399,-2.929,-2.9307,-2.9282,-2.9265,-2.9239,-2.9307,-2.9307,-2.9209,-2.8889,-2.8395,-2.7775,-2.7326,-2.6808,-2.6272,-2.6071,-2.57,-2.5262,-2.5127,-2.5093,-2.5093,-2.5093,-2.5093,-2.5093,-2.5093,-2.5093,-2.5093,-2.5093,-2.5093,-2.5093,-2.5027,-2.4873,-2.4734,-2.4543,-2.4316,-2.4067,-2.3735,-2.3596,-2.3537,-2.3267,-2.3186,-2.3106,-2.3106,-2.2899,-2.2753,-2.271,-2.2209,-2.1334,-2.0264,-1.917,-1.8067,-1.6864,-1.6137,-1.5726,-1.5626,-1.5596,-1.5601,-1.5601,-1.5591,-1.5553,-1.5138,-1.4961,-1.4875,-1.4778,-1.4745,-1.4815,-1.4799,-1.467,-1.4412,-1.4433,-1.4277,-1.4132,-1.4056,-1.4159,-1.4094,-1.4056,-1.4029,-1.3954,-1.3927,-1.3873,-1.3933,-1.3884,-1.3803,-1.3723,-1.352,-1.3072,-1.2649,-1.2232,-1.1912,-1.1648,-1.1225,-1.0738,-1.0435,-1.0156,-0.9845,-0.955,-0.9563,-0.9579,-0.9571,-0.953,-0.9466,-0.9429,-0.9457,-0.936,-0.9229,-0.9403,-0.9747,-0.9836,-0.9929,-1.001,-1.0074,-0.9797,-0.9587,-0.9575,-0.9578,-0.9635,-2.8989,-2.8931,-2.8682,-2.8563,-2.864,-2.9111,-2.9185,-2.8856,-2.8353,-2.794,-2.7609,-2.7126,-2.6599,-2.6171,-2.5835,-2.5532,-2.5161,-2.5093,-2.5093,-2.5093,-2.5093,-2.5093,-2.5093,-2.5093,-2.5093,-2.5093,-2.5093,-2.5093,-2.5093,-2.5093,-2.5064,-2.4939,-2.4844,-2.4609,-2.4236,-2.3925,-2.3837,-2.3625,-2.3464,-2.3347,-2.3142,-2.3098,-2.3016,-2.2899,-2.2923,-2.2554,-2.1829,-2.075,-1.9676,-1.8576,-1.7362,-1.6446,-1.5983,-1.5766,-1.5601,-1.5601,-1.5601,-1.5601,-1.5585,-1.5402,-1.5295,-1.5155,-1.5009,-1.4945,-1.4919,-1.4885,-1.4772,-1.473,-1.4702,-1.4568,-1.44,-1.4352,-1.432,-1.396,-1.3868,-1.3874,-1.3842,-1.3879,-1.3884,-1.404,-1.4078,-1.3943,-1.3846,-1.3672,-1.3251,-1.2801,-1.2385,-1.1984,-1.1693,-1.1188,-1.0707,-1.0433,-1.0164,-0.992,-0.976,-0.9738,-0.9721,-0.968,-0.966,-0.964,-0.9628,-0.9689,-0.9746,-0.971,-0.9841,-0.9972,-1.002,-1.0054,-1.0107,-1.0067,-0.9852,-0.9717,-0.9684,-0.9733,-0.979,-2.8732,-2.8554,-2.8297,-2.8194,-2.8263,-2.8725,-2.8672,-2.8218,-2.7736,-2.7464,-2.729,-2.6855,-2.6465,-2.6104,-2.5734,-2.5431,-2.5127,-2.5093,-2.5093,-2.5093,-2.5093,-2.5093,-2.5093,-2.5093,-2.5093,-2.5093,-2.5093,-2.5093,-2.5093,-2.5093,-2.5078,-2.5071,-2.5086,-2.4866,-2.4543,-2.4368,-2.4093,-2.3852,-2.3654,-2.3413,-2.3208,-2.3106,-2.3106,-2.3084,-2.3038,-2.2809,-2.221,-2.1386,-2.0372,-1.9172,-1.8004,-1.6899,-1.6326,-1.5858,-1.5647,-1.5601,-1.5601,-1.5601,-1.5591,-1.5585,-1.5467,-1.5351,-1.5203,-1.5144,-1.5162,-1.5187,-1.5031,-1.4955,-1.4977,-1.4805,-1.4599,-1.4572,-1.4481,-1.4132,-1.404,-1.4057,-1.4003,-1.403,-1.3955,-1.411,-1.4126,-1.4003,-1.3922,-1.3731,-1.3467,-1.2997,-1.254,-1.2157,-1.1769,-1.1263,-1.0832,-1.0587,-1.0363,-1.0138,-0.9986,-0.9905,-0.9872,-0.9798,-0.9819,-0.9823,-0.9909,-0.9988,-1.0102,-1.018,-1.0135,-1.0114,-1.0159,-1.0196,-1.0222,-1.0147,-1.0019,-0.9896,-0.9819,-0.9854,-0.9944,-2.8552,-2.8194,-2.8169,-2.8117,-2.8143,-2.808,-2.7775,-2.7231,-2.7173,-2.6994,-2.6676,-2.6606,-2.627,-2.5979,-2.5659,-2.5315,-2.5094,-2.5027,-2.5064,-2.5086,-2.5093,-2.5093,-2.5093,-2.5093,-2.5093,-2.5093,-2.5093,-2.5093,-2.5093,-2.5093,-2.5093,-2.5093,-2.5093,-2.4998,-2.488,-2.4712,-2.4371,-2.4049,-2.3833,-2.3501,-2.3208,-2.3106,-2.3106,-2.3106,-2.306,-2.2935,-2.247,-2.18,-2.0826,-1.9673,-1.8398,-1.7368,-1.6586,-1.594,-1.5715,-1.5601,-1.5601,-1.5601,-1.5601,-1.5601,-1.5596,-1.5537,-1.5542,-1.5569,-1.5537,-1.5456,-1.5311,-1.5187,-1.516,-1.4895,-1.4696,-1.4766,-1.4842,-1.4654,-1.4486,-1.4416,-1.4335,-1.4238,-1.4115,-1.4083,-1.4045,-1.3959,-1.3884,-1.3718,-1.3426,-1.3104,-1.2689,-1.2388,-1.1975,-1.1429,-1.1048,-1.0869,-1.0643,-1.041,-1.0259,-1.0076,-1.0026,-0.9973,-1.003,-1.008,-1.0149,-1.0206,-1.0272,-1.03,-1.0247,-1.0259,-1.0341,-1.0329,-1.0302,-1.0223,-1.0213,-1.0129,-1.0064,-1.0013,-0.9981,-2.7878,-2.7749,-2.7509,-2.742,-2.7359,-2.6921,-2.6873,-2.7133,-2.6721,-2.6432,-2.6311,-2.579,-2.558,-2.5347,-2.4791,-2.4683,-2.4709,-2.4778,-2.4917,-2.499,-2.5071,-2.5086,-2.5093,-2.5093,-2.5093,-2.5093,-2.5093,-2.5093,-2.5093,-2.5093,-2.5093,-2.5093,-2.5093,-2.5093,-2.5056,-2.4983,-2.4587,-2.4196,-2.3987,-2.3596,-2.3252,-2.3106,-2.3106,-2.3106,-2.3106,-2.3019,-2.2774,-2.2419,-2.1531,-2.0381,-1.9298,-1.8225,-1.6807,-1.6227,-1.5841,-1.5618,-1.5601,-1.5601,-1.5601,-1.5601,-1.5601,-1.5601,-1.5601,-1.5601,-1.5601,-1.558,-1.551,-1.5418,-1.5365,-1.5158,-1.5,-1.5022,-1.4979,-1.4795,-1.4611,-1.4457,-1.4333,-1.4134,-1.3996,-1.3929,-1.3881,-1.3767,-1.3729,-1.3554,-1.3239,-1.304,-1.279,-1.2517,-1.2173,-1.163,-1.1286,-1.1098,-1.0749,-1.0466,-1.0348,-1.0182,-1.0174,-1.017,-1.0239,-1.0274,-1.0322,-1.0375,-1.0428,-1.044,-1.0451,-1.0504,-1.0585,-1.0536,-1.0455,-1.0536,-1.0521,-1.0402,-1.0278,-1.0159,-0.9868,-2.7518,-2.7372,-2.7167,-2.7112,-2.6982,-2.6388,-2.6387,-2.6602,-2.6198,-2.5945,-2.5898,-2.5374,-2.509,-2.5024,-2.4488,-2.4243,-2.4412,-2.4587,-2.4727,-2.4836,-2.5042,-2.5078,-2.5093,-2.5093,-2.5093,-2.5093,-2.5093,-2.5093,-2.5093,-2.5093,-2.5093,-2.5093,-2.5093,-2.5093,-2.5078,-2.502,-2.4705,-2.4338,-2.4016,-2.3669,-2.3362,-2.3106,-2.3106,-2.3106,-2.3106,-2.3106,-2.3043,-2.2769,-2.2054,-2.104,-2.0044,-1.8877,-1.7551,-1.6783,-1.6081,-1.5837,-1.5639,-1.5618,-1.5601,-1.5601,-1.5601,-1.5601,-1.5601,-1.5601,-1.5601,-1.5591,-1.558,-1.5553,-1.5558,-1.5502,-1.5363,-1.5213,-1.5014,-1.4786,-1.4582,-1.4357,-1.4163,-1.3938,-1.3839,-1.3752,-1.3644,-1.354,-1.3404,-1.3262,-1.3098,-1.2933,-1.276,-1.2524,-1.2207,-1.1774,-1.1523,-1.1349,-1.0895,-1.0486,-1.0386,-1.0353,-1.0386,-1.0414,-1.0463,-1.0489,-1.0498,-1.0511,-1.0562,-1.0607,-1.0679,-1.0695,-1.0679,-1.0695,-1.0662,-1.0692,-1.061,-1.0411,-1.0212,-1.0043,-0.9687,-2.7372,-2.712,-2.7112,-2.7112,-2.7012,-2.638,-2.613,-2.6047,-2.5749,-2.5525,-2.5463,-2.5149,-2.4898,-2.4662,-2.4156,-2.3965,-2.4115,-2.4346,-2.4551,-2.4624,-2.4968,-2.5086,-2.5093,-2.5093,-2.5093,-2.5093,-2.5093,-2.5093,-2.5093,-2.5093,-2.5093,-2.5093,-2.5093,-2.5093,-2.5093,-2.5093,-2.4763,-2.4236,-2.4005,-2.3779,-2.3296,-2.3106,-2.3106,-2.3106,-2.3106,-2.3106,-2.3012,-2.2731,-2.2324,-2.1435,-2.0575,-1.9525,-1.8238,-1.7207,-1.6456,-1.6011,-1.5734,-1.5628,-1.5601,-1.5601,-1.5601,-1.5601,-1.5601,-1.5601,-1.5601,-1.5601,-1.5601,-1.5601,-1.5591,-1.5591,-1.5462,-1.5263,-1.5029,-1.4863,-1.466,-1.4434,-1.42,-1.3939,-1.3671,-1.3571,-1.3458,-1.3372,-1.332,-1.3192,-1.3054,-1.2874,-1.2721,-1.2562,-1.225,-1.186,-1.1665,-1.1507,-1.0994,-1.0585,-1.0601,-1.0585,-1.0634,-1.0671,-1.0635,-1.0631,-1.0615,-1.0643,-1.0711,-1.0719,-1.0719,-1.0719,-1.0711,-1.0719,-1.0692,-1.0665,-1.0559,-1.0339,-1.0131,-0.9857,-0.9325,-2.7189,-2.7112,-2.7112,-2.7112,-2.7012,-2.638,-2.6106,-2.6045,-2.546,-2.5091,-2.482,-2.4516,-2.4226,-2.4027,-2.3656,-2.3515,-2.3764,-2.4082,-2.436,-2.4602,-2.4902,-2.5056,-2.5093,-2.5093,-2.5093,-2.5093,-2.5093,-2.5093,-2.5093,-2.5093,-2.5093,-2.5093,-2.5093,-2.5093,-2.5093,-2.5086,-2.4778,-2.417,-2.4075,-2.3749,-2.3208,-2.3106,-2.3106,-2.3106,-2.3106,-2.3106,-2.3043,-2.3012,-2.2386,-2.1629,-2.1112,-1.9789,-1.804,-1.7046,-1.639,-1.6029,-1.5788,-1.5655,-1.5601,-1.5601,-1.5601,-1.5601,-1.5601,-1.5601,-1.5601,-1.5601,-1.5601,-1.5601,-1.5601,-1.5601,-1.5512,-1.5269,-1.5021,-1.4877,-1.4708,-1.445,-1.4193,-1.3844,-1.3486,-1.338,-1.3274,-1.3221,-1.3202,-1.3139,-1.3006,-1.2883,-1.2826,-1.2635,-1.2353,-1.1996,-1.1785,-1.1543,-1.1036,-1.0718,-1.0719,-1.0719,-1.0719,-1.0719,-1.0695,-1.0703,-1.0719,-1.0719,-1.0719,-1.0719,-1.0719,-1.0719,-1.0719,-1.0719,-1.0692,-1.0665,-1.0476,-1.0257,-0.9702,-0.9354,-0.8778,-2.7112,-2.7112,-2.7112,-2.7012,-2.6792,-2.6327,-2.6014,-2.5778,-2.5318,-2.4826,-2.4386,-2.417,-2.3922,-2.358,-2.3238,-2.3171,-2.3435,-2.372,-2.406,-2.439,-2.4705,-2.4939,-2.502,-2.5071,-2.5093,-2.5093,-2.5093,-2.5093,-2.5093,-2.5093,-2.5093,-2.5093,-2.5093,-2.5093,-2.5093,-2.5042,-2.4771,-2.4148,-2.4126,-2.372,-2.3186,-2.3106,-2.3106,-2.3106,-2.3106,-2.3106,-2.3106,-2.3074,-2.2707,-2.1884,-2.1145,-1.9744,-1.8212,-1.7252,-1.6654,-1.6244,-1.5944,-1.5709,-1.5645,-1.5618,-1.5612,-1.5607,-1.5601,-1.5601,-1.5601,-1.5601,-1.5601,-1.5601,-1.5601,-1.5601,-1.5299,-1.5032,-1.4764,-1.454,-1.4262,-1.3984,-1.3676,-1.3333,-1.3097,-1.3001,-1.2975,-1.3038,-1.3049,-1.3131,-1.3008,-1.3003,-1.2928,-1.2857,-1.253,-1.2077,-1.1877,-1.1618,-1.1119,-1.0807,-1.0719,-1.0719,-1.0719,-1.0719,-1.076,-1.074,-1.0752,-1.0732,-1.0719,-1.074,-1.0744,-1.0719,-1.0719,-1.0719,-1.0719,-1.0692,-1.0445,-1.017,-0.9565,-0.8985,-0.8411,-2.6902,-2.6936,-2.6948,-2.6784,-2.6481,-2.6158,-2.587,-2.5572,-2.5173,-2.4695,-2.417,-2.4046,-2.3829,-2.3518,-2.3269,-2.3168,-2.323,-2.3545,-2.3823,-2.4042,-2.439,-2.4668,-2.488,-2.4998,-2.502,-2.5064,-2.5093,-2.5093,-2.5093,-2.5093,-2.5093,-2.5093,-2.5093,-2.5093,-2.5093,-2.502,-2.4771,-2.4287,-2.4031,-2.3706,-2.3376,-2.3106,-2.3106,-2.3106,-2.3106,-2.3106,-2.3106,-2.3043,-2.2926,-2.2104,-2.1057,-1.9616,-1.8436,-1.7487,-1.6915,-1.6458,-1.6129,-1.5939,-1.5771,-1.5693,-1.5655,-1.5618,-1.5607,-1.5607,-1.5607,-1.5601,-1.5601,-1.5601,-1.5601,-1.5453,-1.5151,-1.4823,-1.453,-1.4202,-1.3898,-1.3534,-1.3195,-1.2891,-1.2792,-1.2689,-1.2779,-1.2865,-1.2901,-1.2984,-1.302,-1.304,-1.3012,-1.2998,-1.2808,-1.2243,-1.1855,-1.1599,-1.1262,-1.099,-1.0825,-1.0798,-1.0834,-1.0863,-1.0903,-1.0822,-1.0809,-1.0858,-1.0858,-1.0769,-1.0761,-1.0789,-1.074,-1.0719,-1.0719,-1.0748,-1.0472,-1.017,-0.973,-0.9099,-0.8285,-2.6127,-2.6153,-2.6185,-2.6163,-2.6056,-2.5799,-2.5664,-2.5519,-2.4941,-2.4456,-2.4115,-2.3798,-2.3518,-2.3199,-2.3137,-2.3113,-2.3157,-2.342,-2.3552,-2.3735,-2.4042,-2.439,-2.4609,-2.4705,-2.4866,-2.4932,-2.4983,-2.5071,-2.4998,-2.5034,-2.5093,-2.5086,-2.5093,-2.5093,-2.5093,-2.4998,-2.4814,-2.436,-2.4027,-2.3779,-2.3325,-2.3128,-2.3106,-2.3106,-2.3106,-2.3106,-2.3106,-2.3106,-2.2894,-2.2198,-2.1026,-1.9673,-1.8553,-1.7616,-1.7047,-1.6664,-1.637,-1.6165,-1.6003,-1.5928,-1.5885,-1.569,-1.565,-1.5628,-1.5618,-1.5601,-1.5601,-1.5601,-1.5542,-1.5359,-1.5091,-1.4769,-1.4441,-1.4047,-1.3688,-1.3234,-1.2835,-1.2715,-1.2625,-1.262,-1.2624,-1.2691,-1.2708,-1.2742,-1.2752,-1.2741,-1.2703,-1.2651,-1.2581,-1.2181,-1.1833,-1.1623,-1.1405,-1.1237,-1.1122,-1.1062,-1.1074,-1.1094,-1.1086,-1.1021,-1.1021,-1.1082,-1.1057,-1.0952,-1.0891,-1.0883,-1.085,-1.0802,-1.0797,-1.0762,-1.05,-1.017,-0.98,-0.9321,-0.8601]},{"header":{"parameterUnit":"m.s-1","parameterCategory":1,"la1":31.0,"la2":29.5877,"lo1":-88.7671,"lo2":-86.6584,"dy":0.0162,"dx":0.0185,"nx":115,"ny":88,"refTime":"2023-03-15T18:00:00:Z","depth":0,"parameterNumber":3,"parameterNumberName":"V-component_of_WINDS"},"data":[0.0,0.0,0.0,0.0,0.0,0.0,0.0,0.0,0.0,0.0,0.0,0.0,0.0,0.0,0.0,0.0,0.0,0.0,0.0,0.0,0.0,0.0,0.0,0.0,0.0,0.0,0.0,0.0,0.0,0.0,0.0,0.0,0.0,0.0,0.0,0.0,0.0,0.0,0.0,0.0,0.0,0.0,0.0,0.0,0.0,0.0,0.0,0.0,0.0,0.0,0.0,0.0,0.0,0.0,0.0,0.0,0.0,0.0,0.0,0.0,0.0,0.0,0.0,0.0,0.0,0.0,0.0,0.0,0.0,0.0,0.0,0.0,0.0,0.0,0.0,0.0,0.0,0.0,0.0,0.0,0.0,0.0,0.0,0.0,0.0,0.0,0.0,0.0,0.0,0.0,0.0,0.0,0.0,0.0,0.0,0.0,0.0,0.0,0.0,0.0,0.0,0.0,0.0,0.0,0.0,0.0,0.0,0.0,0.0,0.0,0.0,0.0,0.0,0.0,0.0,0.0,0.0,0.0,0.0,0.0,0.0,0.0,0.0,0.0,0.0,0.0,0.0,0.0,0.0,0.0,0.0,0.0,0.0,0.0,0.0,0.0,0.0,0.0,0.0,0.0,0.0,0.0,0.0,0.0,0.0,0.0,0.0,0.0,0.0,0.0,0.0,0.0,0.0,0.0,0.0,0.0,0.0,0.0,0.0,0.0,0.0,0.0,0.0,0.0,0.0,0.0,0.0,0.0,0.0,0.0,0.0,0.0,0.0,0.0,0.0,0.0,0.0,0.0,0.0,0.0,0.0,0.0,0.0,0.0,0.0,0.0,0.0,0.0,0.0,0.0,0.0,0.0,0.0,0.0,0.0,0.0,0.0,0.0,0.0,0.0,0.0,0.0,0.0,0.0,0.0,0.0,0.0,0.0,0.0,0.0,0.0,0.0,0.0,0.0,0.0,0.0,0.0,0.0,0.0,0.0,0.0,0.0,0.0,0.0,0.0,0.0,0.0,0.0,0.0,0.0,0.0,0.0,0.0,0.0,0.0,0.0,0.0,0.0,0.0,0.0,0.0,0.0,0.0,0.0,0.0,0.0,0.0,0.0,0.0,0.0,0.0,0.0,0.0,0.0,0.0,0.0,0.0,0.0,0.0,0.0,0.0,0.0,0.0,0.0,0.0,0.0,0.0,0.0,0.0,0.0,0.0,0.0,0.0,0.0,0.0,0.0,0.0,0.0,0.0,0.0,0.0,0.0,0.0,0.0,0.0,0.0,0.0,0.0,0.0,0.0,0.0,0.0,0.0,0.0,0.0,0.0,0.0,0.0,0.0,0.0,0.0,0.0,0.0,0.0,0.0,0.0,0.0,0.0,0.0,0.0,0.0,0.0,0.0,0.0,0.0,0.0,0.0,0.0,0.0,0.0,0.0,0.0,0.0,0.0,0.0,0.0,0.0,0.0,0.0,0.0,0.0,0.0,0.0,0.0,0.0,0.0,0.0,0.0,0.0,0.0,0.0,0.0,0.0,0.0,0.0,0.0,0.0,0.0,0.0,0.0,0.0,0.0,0.0,0.0,0.0,0.0,0.0,0.0,0.0,0.0,0.0,0.0,0.0,0.0,0.0,0.0,0.0,0.0,0.0,0.0,0.0,0.0,0.0,0.0,0.0,0.0,0.0,0.0,0.0,0.0,0.0,0.0,0.0,0.0,0.0,0.0,0.0,0.0,0.0,0.0,0.0,0.0,0.0,0.0,0.0,0.0,0.0,0.0,0.0,0.0,0.0,0.0,0.0,0.0,0.0,0.0,0.0,0.0,0.0,0.0,0.0,0.0,0.0,0.0,0.0,0.0,0.0,0.0,0.0,0.0,0.0,0.0,0.0,0.0,0.0,0.0,0.0,0.0,0.0,0.0,0.0,0.0,0.0,0.0,0.0,0.0,0.0,0.0,0.0,0.0,0.0,0.0,0.0,0.0,0.0,0.0,0.0,0.0,0.0,0.0,0.0,0.0,0.0,0.0,0.0,0.0,0.0,0.0,0.0,0.0,0.0,0.0,0.0,0.0,0.0,0.0,0.0,0.0,0.0,0.0,0.0,0.0,0.0,0.0,0.0,0.0,0.0,0.0,0.0,0.0,0.0,0.0,0.0,0.0,0.0,0.0,0.0,0.0,0.0,0.0,0.0,0.0,0.0,0.0,0.0,0.0,0.0,0.0,0.0,0.0,0.0,0.0,0.0,0.0,0.0,0.0,0.0,0.0,0.0,0.0,0.0,0.0,0.0,0.0,0.0,0.0,0.0,0.0,0.0,0.0,0.0,0.0,0.0,0.0,0.0,0.0,0.0,0.0,0.0,0.0,0.0,0.0,0.0,0.0,0.0,0.0,0.0,0.0,0.0,0.0,0.0,0.0,0.0,0.0,0.0,0.0,0.0,0.0,0.0,0.0,0.0,0.0,0.0,0.0,0.0,0.0,0.0,0.0,0.0,0.0,0.0,0.0,0.0,0.0,0.0,0.0,0.0,0.0,0.0,0.0,0.0,0.0,0.0,0.0,0.0,0.0,0.0,0.0,0.0,0.0,0.0,0.0,0.0,0.0,0.0,0.0,0.0,0.0,0.0,0.0,0.0,0.0,0.0,0.0,0.0,0.0,0.0,0.0,0.0,0.0,0.0,0.0,0.0,0.0,0.0,0.0,0.0,0.0,0.0,0.0,0.0,0.0,0.0,0.0,0.0,0.0,0.0,0.0,0.0,0.0,0.0,0.0,0.0,0.0,0.0,0.0,0.0,0.0,0.0,0.0,0.0,0.0,0.0,0.0,0.0,0.0,0.0,0.0,0.0,0.0,0.0,0.0,0.0,0.0,0.0,0.0,0.0,0.0,0.0,0.0,0.0,0.0,0.0,0.0,0.0,0.0,0.0,0.0,0.0,0.0,0.0,0.0,0.0,0.0,0.0,0.0,0.0,0.0,0.0,0.0,0.0,0.0,0.0,0.0,0.0,0.0,0.0,0.0,0.0,0.0,0.0,0.0,0.0,0.0,0.0,0.0,0.0,0.0,0.0,0.0,0.0,0.0,0.0,0.0,0.0,0.0,0.0,0.0,0.0,0.0,0.0,0.0,0.0,0.0,0.0,0.0,0.0,0.0,0.0,0.0,0.0,0.0,0.0,0.0,0.0,0.0,0.0,0.0,0.0,0.0,0.0,0.0,0.0,0.0,0.0,0.0,0.0,0.0,0.0,0.0,0.0,0.0,0.0,0.0,0.0,0.0,0.0,0.0,0.0,0.0,0.0,0.0,0.0,0.0,0.0,0.0,0.0,0.0,0.0,0.0,0.0,0.0,0.0,0.0,0.0,0.0,0.0,0.0,0.0,0.0,0.0,0.0,0.0,0.0,0.0,0.0,0.0,0.0,0.0,0.0,0.0,0.0,0.0,0.0,0.0,0.0,0.0,0.0,0.0,0.0,0.0,0.0,0.0,0.0,0.0,0.0,0.0,0.0,0.0,0.0,0.0,0.0,0.0,0.0,0.0,0.0,0.0,0.0,0.0,0.0,0.0,0.0,0.0,0.0,0.0,0.0,0.0,0.0,0.0,0.0,0.0,0.0,0.0,0.0,0.0,0.0,0.0,0.0,0.0,0.0,0.0,0.0,0.0,0.0,0.0,0.0,0.0,0.0,0.0,0.0,0.0,0.0,0.0,0.0,0.0,0.0,0.0,0.0,0.0,0.0,0.0,0.0,0.0,0.0,0.0,0.0,0.0,0.0,0.0,0.0,0.0,0.0,0.0,0.0,0.0,0.0,0.0,0.0,0.0,0.0,0.0,0.0,0.0,0.0,0.0,0.0,0.0,0.0,0.0,0.0,0.0,0.0,0.0,0.0,0.0,0.0,0.0,0.0,0.0,0.0,0.0,0.0,0.0,0.0,0.0,0.0,0.0,0.0,0.0,0.0,0.0,0.0,0.0,0.0,0.0,0.0,0.0,0.0,0.0,0.0,0.0,0.0,0.0,0.0,0.0,0.0,0.0,0.0,0.0,0.0,0.0,0.0,0.0,0.0,0.0,0.0,0.0,0.0,0.0,0.0,0.0,0.0,0.0,0.0,0.0,0.0,0.0,0.0,0.0,0.0,0.0,0.0,0.0,0.0,0.0,0.0,0.0,0.0,0.0,0.0,0.0,0.0,0.0,0.0,0.0,0.0,0.0,0.0,0.0,0.0,0.0,0.0,0.0,0.0,0.0,0.0,0.0,0.0,0.0,0.0,0.0,0.0,0.0,0.0,0.0,0.0,1.3745,0.0,0.0,0.0,0.0,0.0,0.0,0.0,0.0,0.0,0.0,0.0,0.0,0.0,0.0,0.0,0.0,0.0,0.0,0.0,0.0,0.0,0.0,0.0,0.0,0.0,0.0,0.0,0.0,0.0,0.0,0.0,0.0,0.0,0.0,0.0,0.0,0.0,0.0,0.0,0.0,0.0,0.0,0.0,0.0,0.0,0.0,0.0,0.0,0.0,0.0,0.0,0.0,0.0,0.0,0.0,0.0,0.0,0.0,0.0,0.0,0.0,0.0,0.0,0.0,0.0,0.0,0.0,0.0,0.0,0.0,0.0,0.0,0.0,0.0,0.0,0.0,0.0,0.0,0.0,0.0,0.0,0.0,0.0,0.0,0.0,0.0,0.0,0.0,0.0,0.0,0.0,0.0,0.0,0.0,0.0,0.0,0.0,0.0,0.0,0.0,0.0,0.0,0.0,0.0,0.0,0.0,0.0,0.0,0.0,0.0,1.3134,1.3362,1.3522,1.392,1.4536,0.0,0.0,0.0,0.0,0.0,0.0,0.0,0.0,0.0,0.0,0.0,0.0,0.0,0.0,0.0,0.0,0.0,0.0,0.0,0.0,0.0,0.0,0.0,0.0,0.0,0.0,0.0,0.0,0.0,0.0,0.0,0.0,0.0,0.0,0.0,0.0,0.0,0.0,0.0,0.0,0.0,0.0,0.0,0.0,0.0,0.0,0.0,0.0,0.0,0.0,0.0,0.0,0.0,0.0,0.0,0.0,0.0,0.0,0.0,0.0,0.0,0.0,0.0,0.0,0.0,0.0,0.0,0.0,0.0,0.0,0.0,0.0,0.0,0.0,0.0,0.0,0.0,0.0,0.0,0.0,0.0,0.0,0.0,0.0,0.0,0.0,0.0,0.0,0.0,0.0,0.0,0.0,0.0,0.0,0.0,0.0,0.0,0.0,0.0,0.0,0.0,0.0,0.0,0.0,0.0,0.0,0.0,0.0,0.0,0.0,0.0,0.0,1.4338,1.4978,1.5719,0.0,0.0,0.0,0.0,0.0,0.0,0.0,0.0,0.0,0.0,0.0,0.0,0.0,0.0,0.0,0.0,0.0,0.0,0.0,0.0,0.0,0.0,0.0,0.0,0.0,0.0,0.0,0.0,0.0,0.0,0.0,0.0,0.0,0.0,0.0,0.0,0.0,0.0,0.0,0.0,0.0,0.0,0.0,0.0,0.0,0.0,0.0,0.0,0.0,0.0,0.0,0.0,0.0,0.0,0.0,0.0,0.0,0.0,0.0,0.0,0.0,0.0,0.0,0.0,0.0,0.0,0.0,0.0,0.0,0.0,0.0,0.0,0.0,0.0,0.0,0.0,0.0,0.0,0.0,0.0,0.0,0.0,0.0,0.0,0.0,0.0,0.0,0.0,0.0,0.0,0.0,0.0,0.0,0.0,0.0,0.0,0.0,0.0,0.0,0.0,0.0,0.0,0.0,0.0,0.0,0.0,0.0,0.0,0.0,0.0,1.4915,1.4796,1.5356,0.0,1.7291,0.0,0.0,0.0,0.0,0.0,0.0,0.0,0.0,0.0,0.0,0.0,0.0,0.0,0.0,0.0,0.0,0.0,0.0,0.0,0.0,0.0,0.0,0.0,0.0,0.0,0.0,0.0,0.0,0.0,0.0,0.0,0.0,0.0,0.0,0.0,0.0,0.0,0.0,0.0,0.0,0.0,0.0,0.0,0.0,0.0,0.0,0.0,0.0,0.0,0.0,0.0,0.0,0.0,0.0,0.0,0.0,0.0,0.0,0.0,0.0,0.0,0.0,0.0,0.0,0.0,0.0,0.0,0.0,0.0,0.0,0.0,0.0,0.0,0.0,0.0,0.0,0.0,0.0,0.0,0.0,0.0,0.0,0.0,0.0,0.0,0.0,0.0,0.0,0.0,0.0,0.0,0.0,0.0,0.0,0.0,0.0,0.0,0.0,0.0,0.0,0.0,0.0,0.0,0.0,0.0,0.0,0.0,0.0,0.0,0.0,1.5384,1.571,1.6649,1.7364,0.0,0.0,0.0,0.0,0.0,0.0,0.0,0.0,0.0,0.0,0.0,0.0,0.0,0.0,0.0,0.0,0.0,0.0,0.0,0.0,0.0,0.0,0.0,0.0,0.0,0.0,0.0,0.0,0.0,0.0,0.0,0.0,0.0,0.0,0.0,0.0,0.0,0.0,0.0,0.0,0.0,0.0,0.0,0.0,0.0,0.0,0.0,0.0,0.0,0.0,0.0,0.0,0.0,0.0,0.0,0.0,0.0,0.0,0.0,0.0,0.0,0.0,0.0,0.0,0.0,0.0,0.0,0.0,0.0,0.0,0.0,0.0,0.0,0.0,0.0,0.0,0.0,0.0,0.0,0.0,0.0,0.0,0.0,0.0,0.0,0.0,0.0,0.0,0.0,0.0,0.0,0.0,0.0,0.0,0.0,0.0,0.0,0.0,0.0,0.0,0.0,0.0,0.0,0.0,0.0,0.0,0.0,0.0,0.0,0.0,1.5556,1.6058,1.6906,1.7732,1.8206,1.8294,0.0,0.0,0.0,0.0,0.0,0.0,0.0,0.0,0.0,0.0,0.0,0.0,0.0,0.0,0.0,0.0,0.0,0.0,0.0,0.0,0.0,0.0,0.0,0.0,0.0,0.0,0.0,0.0,0.0,0.0,0.0,0.0,0.0,0.0,0.0,0.0,0.0,0.0,0.0,0.0,0.0,0.0,0.0,0.0,0.0,0.0,0.0,0.0,0.0,0.0,0.0,0.0,0.0,0.0,0.0,0.0,0.0,0.0,0.0,0.0,0.0,0.0,0.0,0.0,0.0,0.0,0.0,0.0,0.0,0.0,0.0,0.0,0.0,0.0,0.0,0.0,0.0,0.0,0.0,0.0,0.0,0.0,0.0,0.0,0.0,0.0,0.0,0.0,0.0,0.0,0.0,0.0,0.0,0.0,0.0,0.0,0.0,0.0,0.0,0.0,0.0,0.0,0.0,0.0,0.0,0.0,0.0,0.0,1.5443,1.616,1.7178,1.8425,1.8439,1.8662,0.0,0.0,0.0,0.0,0.0,0.0,0.0,0.0,0.0,0.0,0.0,0.0,0.0,0.0,0.0,0.0,0.0,0.0,0.0,0.0,0.0,0.0,0.0,0.0,0.0,0.0,0.0,0.0,0.0,0.0,0.0,0.0,0.0,0.0,0.0,0.0,0.0,0.0,0.0,0.0,0.0,0.0,0.0,0.0,0.0,0.0,0.0,0.0,0.0,0.0,0.0,0.0,0.0,0.0,0.0,0.0,0.0,0.0,0.0,0.0,0.0,0.0,0.0,0.0,0.0,0.0,0.0,0.0,0.0,0.0,0.0,0.0,0.0,0.0,0.0,0.0,0.0,0.0,0.0,0.0,0.0,0.0,0.0,0.0,0.0,0.0,0.0,0.0,0.0,0.0,0.0,0.0,0.0,0.0,0.0,0.0,0.0,0.0,0.0,0.0,0.0,0.0,0.0,0.0,0.0,0.0,0.0,0.0,0.0,1.6196,1.7368,1.8209,1.8662,1.8977,1.9229,0.0,0.0,0.0,0.0,0.0,0.0,0.0,0.0,0.0,0.0,0.0,0.0,0.0,0.0,0.0,0.0,0.0,0.0,0.0,0.0,0.0,0.0,0.0,0.0,0.0,0.0,0.0,0.0,0.0,0.0,0.0,0.0,0.0,0.0,0.0,0.0,0.0,0.0,0.0,0.0,0.0,0.0,0.0,0.0,0.0,0.0,0.0,0.0,0.0,0.0,0.0,0.0,0.0,0.0,0.0,0.0,0.0,0.0,0.0,0.0,0.0,0.0,0.0,0.0,0.0,0.0,0.0,0.0,0.0,0.0,0.0,0.0,0.0,0.0,0.0,0.0,0.0,0.0,0.0,0.0,0.0,0.0,0.0,0.0,0.0,0.0,0.0,0.0,0.0,0.0,0.0,0.0,0.0,0.0,0.0,0.0,0.0,0.0,0.0,0.0,0.0,0.0,0.0,0.0,0.0,0.0,0.0,0.0,0.0,1.7365,0.0,1.8611,1.9087,1.9164,1.9266,0.0,0.0,0.0,0.0,0.0,0.0,0.0,0.0,0.0,0.0,0.0,0.0,0.0,0.0,0.0,0.0,0.0,0.0,0.0,0.0,0.0,0.0,0.0,0.0,0.0,0.0,0.0,0.0,0.0,0.0,0.0,0.0,0.0,0.0,0.0,0.0,0.0,0.0,0.0,0.0,0.0,0.0,0.0,0.0,0.0,0.0,0.0,0.0,0.0,0.0,0.0,0.0,0.0,0.0,0.0,0.0,0.0,0.0,0.0,0.0,0.0,0.0,0.0,0.0,0.0,0.0,0.0,0.0,0.0,0.0,0.0,0.0,0.0,0.0,0.0,0.0,0.0,0.0,0.0,0.0,0.0,0.0,0.0,0.0,0.0,0.0,0.0,0.0,0.0,0.0,0.0,0.0,0.0,0.0,0.0,0.0,0.0,0.0,0.0,0.0,0.0,0.0,0.0,0.0,0.0,0.0,0.0,0.0,1.746,1.8862,1.8135,1.8441,1.9812,1.8961,1.8741,0.0,0.0,0.0,0.0,0.0,0.0,0.0,0.0,0.0,0.0,0.0,0.0,0.0,0.0,0.0,0.0,0.0,0.0,0.0,0.0,0.0,0.0,0.0,0.0,0.0,0.0,0.0,0.0,0.0,0.0,0.0,0.0,0.0,0.0,0.0,0.0,0.0,0.0,0.0,0.0,0.0,0.0,0.0,0.0,0.0,0.0,0.0,0.0,0.0,0.0,0.0,0.0,0.0,0.0,0.0,0.0,0.0,0.0,0.0,0.0,0.0,0.0,0.0,0.0,0.0,0.0,0.0,0.0,0.0,0.0,0.0,0.0,0.0,0.0,0.0,0.0,0.0,0.0,0.0,0.0,0.0,0.0,0.0,0.0,0.0,0.0,0.0,0.0,0.0,0.0,0.0,0.0,0.0,0.0,0.0,0.0,0.0,0.0,0.0,0.0,0.0,0.0,0.0,0.0,0.0,0.0,0.0,0.0,0.0,1.8924,1.9164,1.9443,1.9792,1.9435,1.9274,0.0,0.0,0.0,0.0,0.0,0.0,0.0,0.0,0.0,0.0,0.0,0.0,0.0,0.0,0.0,0.0,0.0,0.0,0.0,0.0,0.0,0.0,0.0,0.0,0.0,0.0,0.0,0.0,0.0,0.0,0.0,0.0,0.0,0.0,0.0,0.0,0.0,0.0,0.0,0.0,0.0,0.0,0.0,0.0,0.0,0.0,0.0,0.0,0.0,0.0,0.0,0.0,0.0,0.0,0.0,0.0,0.0,0.0,0.0,0.0,0.0,0.0,0.0,0.0,0.0,0.0,0.0,0.0,0.0,0.0,0.0,0.0,0.0,0.0,0.0,0.0,0.0,0.0,0.0,0.0,0.0,0.0,0.0,0.0,0.0,0.0,0.0,0.0,0.0,0.0,0.0,0.0,0.0,0.0,0.0,0.0,0.0,0.0,0.0,0.0,0.0,0.0,0.0,0.0,0.0,0.0,0.0,0.0,0.0,1.9764,1.9836,2.0185,2.0677,1.9992,1.9693,1.9874,0.0,0.0,0.0,0.0,0.0,0.0,0.0,0.0,0.0,0.0,0.0,0.0,0.0,0.0,0.0,0.0,0.0,0.0,0.0,0.0,0.0,0.0,0.0,0.0,0.0,0.0,0.0,0.0,0.0,0.0,0.0,0.0,0.0,0.0,0.0,0.0,0.0,0.0,0.0,0.0,0.0,0.0,0.0,0.0,0.0,0.0,0.0,0.0,0.0,0.0,0.0,0.0,0.0,0.0,0.0,0.0,0.0,0.0,0.0,0.0,0.0,0.0,0.0,0.0,0.0,0.0,0.0,0.0,0.0,0.0,0.0,0.0,0.0,0.0,0.0,0.0,0.0,0.0,0.0,0.0,0.0,0.0,0.0,0.0,0.0,0.0,0.0,0.0,0.0,0.0,0.0,0.0,0.0,0.0,0.0,0.0,0.0,0.0,0.0,0.0,0.0,0.0,0.0,0.0,0.0,0.0,0.0,0.0,2.1221,2.0418,2.0708,2.2087,2.0606,2.0052,0.0,0.0,0.0,0.0,0.0,0.0,0.0,0.0,0.0,0.0,0.0,0.0,0.0,0.0,0.0,0.0,0.0,0.0,0.0,0.0,0.0,0.0,0.0,0.0,0.0,0.0,0.0,0.0,0.0,0.0,0.0,0.0,0.0,0.0,0.0,0.0,0.0,0.0,0.0,0.0,0.0,0.0,0.0,0.0,0.0,0.0,0.0,0.0,0.0,0.0,0.0,0.0,0.0,0.0,0.0,0.0,0.0,0.0,0.0,0.0,0.0,0.0,0.0,0.0,0.0,0.0,0.0,0.0,0.0,0.0,0.0,0.0,0.0,0.0,0.0,0.0,0.0,0.0,0.0,0.0,0.0,0.0,0.0,0.0,0.0,0.0,0.0,0.0,0.0,0.0,0.0,0.0,0.0,0.0,0.0,0.0,0.0,0.0,0.0,0.0,0.0,0.0,0.0,0.0,0.0,0.0,0.0,0.0,0.0,2.266,2.2454,2.2256,2.2118,2.1737,2.1308,0.0,0.0,0.0,0.0,0.0,0.0,0.0,0.0,0.0,0.0,0.0,0.0,0.0,0.0,0.0,0.0,0.0,0.0,0.0,0.0,0.0,0.0,0.0,0.0,0.0,0.0,0.0,0.0,0.0,0.0,0.0,0.0,0.0,0.0,0.0,0.0,0.0,0.0,0.0,0.0,0.0,0.0,0.0,0.0,0.0,0.0,0.0,0.0,0.0,0.0,0.0,0.0,0.0,0.0,0.0,0.0,0.0,0.0,0.0,0.0,0.0,0.0,0.0,0.0,0.0,0.0,0.0,0.0,0.0,0.0,0.0,0.0,0.0,0.0,0.0,0.0,0.0,0.0,0.0,0.0,0.0,0.0,0.0,0.0,0.0,0.0,0.0,0.0,0.0,0.0,0.0,0.0,0.0,0.0,0.0,0.0,0.0,0.0,0.0,0.0,0.0,0.0,0.0,0.0,0.0,0.0,0.0,0.0,2.1973,2.3216,2.3553,2.3518,2.3153,2.2896,2.2333,0.0,0.0,0.0,0.0,0.0,0.0,0.0,0.0,0.0,0.0,0.0,0.0,0.0,0.0,0.0,0.0,0.0,0.0,0.0,0.0,0.0,0.0,0.0,0.0,0.0,0.0,0.0,0.0,0.0,0.0,0.0,0.0,0.0,0.0,0.0,0.0,0.0,0.0,0.0,0.0,0.0,0.0,0.0,0.0,0.0,0.0,0.0,0.0,0.0,0.0,0.0,0.0,0.0,0.0,0.0,0.0,0.0,0.0,0.0,0.0,0.0,0.0,0.0,0.0,0.0,0.0,0.0,0.0,0.0,0.0,0.0,0.0,0.0,0.0,0.0,0.0,0.0,0.0,0.0,0.0,0.0,0.0,0.0,0.0,0.0,0.0,0.0,0.0,0.0,0.0,0.0,0.0,0.0,0.0,0.0,0.0,0.0,0.0,0.0,0.0,0.0,0.0,0.0,0.0,0.0,0.0,0.0,0.0,2.2545,2.3436,2.4063,2.4524,2.47,2.4024,2.3179,0.0,0.0,0.0,0.0,0.0,0.0,0.0,0.0,0.0,0.0,0.0,0.0,0.0,0.0,0.0,0.0,0.0,0.0,0.0,0.0,0.0,0.0,0.0,0.0,0.0,0.0,0.0,0.0,0.0,0.0,0.0,0.0,0.0,0.0,0.0,0.0,0.0,0.0,0.0,0.0,0.0,0.0,0.0,0.0,0.0,0.0,0.0,0.0,0.0,0.0,0.0,0.0,0.0,0.0,0.0,0.0,0.0,0.0,0.0,0.0,0.0,0.0,0.0,0.0,0.0,0.0,0.0,0.0,0.0,0.0,0.0,0.0,0.0,0.0,0.0,0.0,0.0,0.0,0.0,0.0,0.0,0.0,0.0,0.0,0.0,0.0,0.0,0.0,0.0,0.0,0.0,0.0,0.0,0.0,0.0,0.0,0.0,0.0,0.0,0.0,0.0,0.0,0.0,0.0,0.0,0.0,0.0,0.0,2.3597,2.5023,2.4691,2.4847,2.5598,2.4918,2.3824,0.0,0.0,0.0,0.0,0.0,0.0,0.0,0.0,0.0,0.0,0.0,0.0,0.0,0.0,0.0,0.0,0.0,0.0,0.0,0.0,0.0,0.0,0.0,0.0,0.0,0.0,0.0,0.0,0.0,0.0,0.0,0.0,0.0,0.0,0.0,0.0,0.0,0.0,0.0,0.0,0.0,0.0,0.0,0.0,0.0,0.0,0.0,0.0,1.6978,0.0,0.0,0.0,0.0,0.0,0.0,0.0,0.0,0.0,0.0,0.0,0.0,0.0,0.0,0.0,0.0,0.0,0.0,0.0,0.0,0.0,0.0,0.0,0.0,0.0,0.0,0.0,0.0,0.0,0.0,0.0,0.0,0.0,0.0,0.0,0.0,0.0,0.0,0.0,0.0,0.0,0.0,0.0,0.0,0.0,0.0,0.0,0.0,0.0,0.0,0.0,0.0,0.0,0.0,0.0,0.0,0.0,0.0,0.0,2.39,2.5481,2.4863,2.4937,2.5835,2.5227,2.4238,0.0,0.0,0.0,0.0,0.0,0.0,0.0,0.0,0.0,0.0,0.0,0.0,0.0,0.0,0.0,0.0,0.0,0.0,0.0,0.0,0.0,0.0,0.0,0.0,0.0,0.0,0.0,0.0,0.0,0.0,0.0,0.0,0.0,0.0,0.0,0.0,0.0,0.0,0.0,0.0,0.0,0.0,0.0,0.0,0.0,0.0,0.0,0.0,0.0,0.0,0.0,0.0,0.0,0.0,0.0,0.0,0.0,0.0,0.0,0.0,0.0,0.0,0.0,0.0,0.0,0.0,0.0,0.0,0.0,0.0,0.0,0.0,0.0,0.0,0.0,0.0,0.0,0.0,0.0,0.0,0.0,0.0,0.0,0.0,0.0,0.0,0.0,0.0,0.0,0.0,0.0,0.0,0.0,0.0,0.0,0.0,0.0,0.0,0.0,0.0,0.0,0.0,0.0,0.0,0.0,0.0,0.0,2.2993,2.4187,2.5596,2.5053,2.5159,2.6058,2.5329,2.4607,2.3939,0.0,0.0,0.0,0.0,0.0,0.0,0.0,0.0,0.0,0.0,0.0,0.0,0.0,0.0,0.0,0.0,0.0,0.0,0.0,0.0,0.0,0.0,0.0,0.0,0.0,0.0,0.0,0.0,0.0,0.0,0.0,0.0,0.0,0.0,0.0,0.0,0.0,0.0,1.6694,1.74,0.0,0.0,0.0,0.0,0.0,0.0,0.0,0.0,1.7935,0.0,0.0,0.0,0.0,0.0,0.0,0.0,0.0,0.0,0.0,0.0,0.0,0.0,0.0,0.0,0.0,0.0,0.0,0.0,0.0,0.0,0.0,0.0,0.0,0.0,0.0,0.0,0.0,0.0,0.0,0.0,0.0,0.0,0.0,0.0,0.0,0.0,0.0,0.0,0.0,0.0,0.0,0.0,0.0,0.0,0.0,0.0,0.0,0.0,0.0,0.0,0.0,0.0,0.0,0.0,0.0,2.2807,2.4326,2.5601,2.6547,2.5989,2.6103,2.6919,2.5686,2.4949,2.4819,0.0,0.0,0.0,0.0,0.0,0.0,0.0,0.0,0.0,0.0,0.0,0.0,0.0,0.0,0.0,0.0,0.0,0.0,0.0,0.0,0.0,0.0,0.0,0.0,0.0,0.0,0.0,0.0,0.0,0.0,0.0,0.0,0.0,0.0,0.0,0.0,0.0,0.0,0.0,1.8278,1.8876,0.0,0.0,0.0,0.0,0.0,0.0,0.0,0.0,2.0024,0.0,0.0,0.0,0.0,0.0,0.0,0.0,0.0,0.0,0.0,0.0,0.0,0.0,0.0,0.0,0.0,0.0,0.0,0.0,0.0,0.0,0.0,0.0,0.0,0.0,0.0,0.0,0.0,0.0,0.0,0.0,0.0,0.0,0.0,0.0,0.0,0.0,0.0,0.0,0.0,0.0,0.0,0.0,0.0,0.0,0.0,0.0,0.0,0.0,0.0,0.0,0.0,0.0,0.0,0.0,2.3073,2.4677,2.6005,2.6856,2.6273,2.638,2.7238,2.5799,2.5057,0.0,0.0,0.0,0.0,0.0,0.0,0.0,0.0,0.0,0.0,0.0,0.0,0.0,0.0,0.0,0.0,0.0,0.0,0.0,0.0,0.0,0.0,0.0,0.0,0.0,0.0,0.0,0.0,0.0,0.0,0.0,0.0,0.0,0.0,0.0,0.0,0.0,0.0,0.0,0.0,1.9191,1.9709,1.9626,0.0,0.0,0.0,0.0,0.0,0.0,2.1272,2.1748,0.0,0.0,0.0,0.0,0.0,0.0,0.0,0.0,0.0,0.0,0.0,0.0,0.0,0.0,0.0,0.0,0.0,0.0,0.0,0.0,0.0,0.0,0.0,0.0,0.0,0.0,0.0,0.0,0.0,0.0,0.0,0.0,0.0,0.0,0.0,0.0,0.0,0.0,0.0,0.0,0.0,0.0,0.0,0.0,0.0,0.0,0.0,0.0,0.0,0.0,0.0,0.0,0.0,0.0,0.0,2.3524,2.5051,2.6233,2.6958,2.6514,2.6622,2.7358,2.5858,2.5093,0.0,0.0,0.0,0.0,0.0,0.0,0.0,0.0,0.0,0.0,0.0,0.0,0.0,0.0,0.0,0.0,0.0,0.0,0.0,0.0,0.0,0.0,0.0,0.0,0.0,0.0,0.0,0.0,0.0,0.0,0.0,0.0,0.0,0.0,0.0,0.0,0.0,0.0,0.0,0.0,0.0,2.069,2.0839,2.1385,0.0,0.0,0.0,0.0,2.2132,2.2735,0.0,0.0,0.0,0.0,0.0,0.0,0.0,0.0,0.0,0.0,0.0,0.0,0.0,0.0,0.0,0.0,0.0,0.0,0.0,0.0,0.0,0.0,0.0,0.0,0.0,0.0,0.0,0.0,0.0,0.0,0.0,0.0,0.0,0.0,0.0,0.0,0.0,0.0,0.0,0.0,0.0,0.0,0.0,0.0,0.0,0.0,0.0,0.0,0.0,0.0,0.0,0.0,0.0,0.0,0.0,0.0,2.5182,2.6175,2.6804,2.7082,2.7117,2.727,2.7444,2.5993,2.522,0.0,0.0,0.0,0.0,0.0,0.0,0.0,0.0,0.0,0.0,0.0,0.0,0.0,0.0,0.0,0.0,0.0,0.0,0.0,0.0,0.0,0.0,0.0,0.0,0.0,0.0,0.0,0.0,0.0,0.0,0.0,0.0,0.0,0.0,0.0,0.0,0.0,0.0,0.0,0.0,0.0,2.1811,2.257,2.2761,2.2775,0.0,0.0,2.3906,2.3969,2.4076,0.0,0.0,0.0,0.0,0.0,0.0,0.0,0.0,0.0,0.0,0.0,0.0,0.0,0.0,0.0,0.0,0.0,0.0,0.0,0.0,0.0,0.0,0.0,0.0,0.0,0.0,0.0,0.0,0.0,0.0,0.0,0.0,0.0,0.0,0.0,0.0,0.0,0.0,0.0,0.0,0.0,0.0,0.0,0.0,0.0,0.0,0.0,0.0,0.0,0.0,0.0,0.0,0.0,0.0,0.0,2.4283,2.5469,2.6399,2.6725,2.6501,2.7051,2.7184,2.6816,2.5772,2.5258,0.0,0.0,0.0,0.0,0.0,0.0,0.0,0.0,0.0,0.0,0.0,0.0,0.0,0.0,0.0,0.0,0.0,0.0,0.0,0.0,0.0,0.0,0.0,0.0,0.0,0.0,0.0,0.0,0.0,0.0,0.0,0.0,0.0,0.0,0.0,0.0,0.0,0.0,0.0,0.0,0.0,0.0,2.308,2.3904,0.0,0.0,0.0,2.5746,2.5773,0.0,0.0,0.0,0.0,0.0,0.0,0.0,0.0,0.0,0.0,0.0,0.0,0.0,0.0,0.0,0.0,0.0,0.0,0.0,0.0,0.0,0.0,0.0,0.0,0.0,0.0,0.0,0.0,0.0,0.0,0.0,0.0,0.0,0.0,0.0,0.0,0.0,0.0,0.0,0.0,0.0,0.0,0.0,0.0,0.0,0.0,0.0,0.0,0.0,0.0,0.0,0.0,0.0,0.0,0.0,0.0,0.0,2.5802,2.6719,2.6818,2.6053,2.6921,2.7069,2.6346,2.5586,0.0,0.0,0.0,0.0,0.0,0.0,0.0,0.0,0.0,0.0,0.0,0.0,0.0,0.0,0.0,0.0,0.0,0.0,0.0,0.0,0.0,0.0,0.0,0.0,0.0,0.0,0.0,1.6482,0.0,0.0,0.0,0.0,0.0,0.0,0.0,0.0,0.0,0.0,0.0,0.0,0.0,0.0,2.4647,2.4422,2.5509,2.6127,0.0,0.0,2.7557,2.7549,2.8085,2.8203,0.0,0.0,0.0,0.0,0.0,0.0,0.0,0.0,0.0,0.0,0.0,0.0,0.0,0.0,0.0,0.0,0.0,0.0,0.0,0.0,0.0,0.0,0.0,0.0,0.0,0.0,0.0,0.0,0.0,0.0,0.0,0.0,0.0,0.0,0.0,0.0,0.0,0.0,0.0,0.0,0.0,0.0,0.0,0.0,0.0,0.0,0.0,0.0,0.0,0.0,0.0,0.0,0.0,0.0,0.0,2.6618,2.7549,2.7373,2.6086,2.6925,2.708,2.6394,2.5636,2.5264,0.0,0.0,0.0,0.0,0.0,0.0,0.0,0.0,0.0,0.0,0.0,0.0,0.0,0.0,0.0,0.0,0.0,0.0,0.0,0.0,0.0,0.0,0.0,0.0,0.0,0.0,0.0,0.0,0.0,0.0,0.0,0.0,0.0,0.0,0.0,0.0,0.0,0.0,0.0,0.0,0.0,2.6189,2.7734,2.8046,2.8104,0.0,0.0,2.9321,2.934,2.9359,2.9093,2.816,0.0,0.0,0.0,0.0,0.0,0.0,0.0,0.0,0.0,0.0,0.0,0.0,0.0,0.0,0.0,0.0,0.0,0.0,0.0,0.0,0.0,0.0,0.0,0.0,0.0,0.0,0.0,0.0,0.0,0.0,0.0,0.0,0.0,0.0,0.0,0.0,0.0,0.0,0.0,0.0,0.0,0.0,0.0,0.0,0.0,0.0,0.0,0.0,0.0,0.0,0.0,0.0,0.0,2.6576,2.743,2.7863,2.7623,2.6664,2.7102,2.7017,2.6368,2.5655,2.5303,0.0,0.0,0.0,0.0,0.0,0.0,0.0,0.0,0.0,0.0,0.0,0.0,0.0,0.0,0.0,0.0,0.0,0.0,0.0,0.0,0.0,0.0,0.0,0.0,0.0,0.0,0.0,0.0,1.8333,1.8931,1.9994,0.0,0.0,0.0,0.0,0.0,0.0,0.0,0.0,0.0,0.0,2.7537,2.8219,2.8749,0.0,0.0,2.9763,3.0284,3.0289,3.0307,2.9985,2.9105,2.8186,0.0,0.0,0.0,0.0,0.0,0.0,0.0,0.0,0.0,0.0,0.0,0.0,0.0,0.0,0.0,0.0,0.0,0.0,0.0,0.0,0.0,0.0,0.0,0.0,0.0,0.0,0.0,0.0,0.0,0.0,0.0,0.0,0.0,0.0,0.0,0.0,0.0,0.0,0.0,0.0,0.0,0.0,0.0,0.0,0.0,0.0,0.0,0.0,0.0,0.0,0.0,0.0,2.7263,2.7887,2.8263,2.7983,2.7009,2.7175,2.6964,2.6286,2.561,2.5315,0.0,0.0,0.0,0.0,0.0,0.0,0.0,0.0,0.0,0.0,0.0,0.0,0.0,0.0,0.0,0.0,0.0,0.0,0.0,0.0,0.0,0.0,0.0,0.0,0.0,0.0,0.0,0.0,1.9731,2.0304,2.1779,0.0,0.0,0.0,0.0,0.0,0.0,0.0,0.0,0.0,0.0,2.8754,2.9022,2.9577,2.9974,2.9958,3.0429,3.08,3.0793,3.0796,3.0516,2.9641,0.0,0.0,0.0,0.0,0.0,0.0,0.0,0.0,0.0,0.0,0.0,0.0,0.0,0.0,0.0,0.0,0.0,0.0,0.0,0.0,0.0,0.0,0.0,0.0,0.0,0.0,0.0,0.0,0.0,0.0,0.0,0.0,0.0,0.0,0.0,0.0,0.0,0.0,0.0,0.0,0.0,0.0,0.0,0.0,0.0,0.0,0.0,0.0,0.0,0.0,0.0,0.0,0.0,2.7814,2.7924,2.8775,2.8535,2.7097,2.715,2.6917,2.6238,2.5557,2.5273,2.5399,0.0,0.0,0.0,0.0,0.0,0.0,0.0,0.0,0.0,0.0,0.0,0.0,0.0,0.0,0.0,0.0,0.0,0.0,0.0,0.0,0.0,0.0,0.0,0.0,0.0,0.0,2.2338,2.2471,2.2818,0.0,0.0,0.0,0.0,0.0,0.0,0.0,0.0,0.0,0.0,2.9447,2.9778,3.0589,3.0734,3.0745,3.0755,3.078,3.079,3.0801,3.0797,3.0489,0.0,0.0,0.0,0.0,0.0,0.0,0.0,0.0,0.0,0.0,0.0,0.0,0.0,0.0,0.0,0.0,0.0,0.0,0.0,0.0,0.0,0.0,0.0,0.0,0.0,0.0,0.0,0.0,0.0,0.0,0.0,0.0,0.0,0.0,0.0,0.0,0.0,0.0,0.0,0.0,2.9095,2.9195,0.0,0.0,0.0,0.0,0.0,0.0,0.0,0.0,0.0,0.0,0.0,0.0,2.8549,2.8603,2.8979,2.8957,2.8516,2.811,2.7557,2.6953,2.6307,2.5832,2.5496,0.0,0.0,0.0,0.0,0.0,0.0,0.0,0.0,0.0,0.0,0.0,0.0,0.0,0.0,0.0,0.0,0.0,0.0,0.0,0.0,0.0,0.0,0.0,0.0,0.0,2.2624,0.0,0.0,0.0,0.0,0.0,0.0,0.0,0.0,0.0,0.0,0.0,2.8751,2.9288,2.9914,3.0413,3.0686,3.073,3.0737,0.0,0.0,0.0,0.0,0.0,0.0,0.0,0.0,0.0,0.0,0.0,0.0,0.0,0.0,2.8093,2.7432,2.7553,2.7769,2.7787,0.0,0.0,0.0,0.0,0.0,0.0,0.0,0.0,0.0,0.0,0.0,0.0,0.0,0.0,0.0,0.0,2.7145,0.0,0.0,0.0,0.0,0.0,0.0,0.0,0.0,2.9509,3.0443,3.1352,3.1152,3.1354,0.0,3.0578,2.9472,0.0,0.0,0.0,0.0,0.0,0.0,0.0,0.0,2.8905,2.8893,2.9027,2.9158,2.9225,2.8562,2.8035,2.7685,2.687,2.6126,2.5496,2.6387,2.6655,0.0,0.0,0.0,0.0,0.0,0.0,0.0,0.0,0.0,0.0,0.0,0.0,0.0,0.0,0.0,0.0,0.0,0.0,0.0,0.0,0.0,0.0,0.0,2.3683,0.0,0.0,0.0,0.0,0.0,0.0,0.0,0.0,0.0,2.8509,2.8978,2.9408,2.9642,3.0242,3.0634,3.0626,0.0,0.0,0.0,0.0,0.0,0.0,0.0,3.0798,3.0801,3.0329,2.9951,2.9956,2.9446,2.9011,2.8978,0.0,0.0,2.8513,2.8616,2.8887,2.8867,2.9141,2.9395,2.945,2.9697,2.9935,0.0,0.0,0.0,0.0,0.0,0.0,0.0,0.0,2.9052,2.9071,0.0,2.9014,0.0,0.0,0.0,0.0,0.0,0.0,0.0,0.0,3.1859,3.2787,3.357,3.2958,3.2602,3.2572,3.1901,3.1488,3.1292,2.839,0.0,0.0,0.0,0.0,0.0,0.0,2.8905,2.8905,2.9027,2.9141,2.9171,2.858,2.8292,2.8368,2.7202,2.6224,2.559,2.6447,2.6946,2.6929,2.7064,0.0,0.0,0.0,0.0,0.0,0.0,0.0,0.0,0.0,0.0,0.0,0.0,0.0,0.0,0.0,0.0,0.0,0.0,0.0,0.0,2.5549,0.0,0.0,0.0,0.0,0.0,0.0,0.0,0.0,0.0,0.0,2.9313,2.9289,2.952,3.0289,0.0,0.0,0.0,0.0,3.0595,3.0601,3.0646,3.0704,3.0702,3.0755,3.0802,3.0796,0.0,0.0,3.0799,3.0775,3.0734,3.0811,3.0812,3.0545,2.9626,3.0153,3.068,3.0714,3.1326,3.197,3.2057,3.244,3.3046,3.5068,0.0,0.0,0.0,0.0,3.1059,3.1342,3.183,3.183,3.183,3.1787,3.1175,0.0,0.0,0.0,0.0,0.0,0.0,3.2586,3.3054,3.4066,3.4777,3.516,3.5,3.492,3.4892,3.4178,3.3526,3.2912,3.1488,3.0301,2.946,0.0,0.0,0.0,0.0,2.8828,2.8834,2.8952,2.9068,2.9117,2.9034,2.8833,2.8535,2.7766,2.7311,2.7178,2.7569,2.7783,2.7832,2.8441,0.0,0.0,0.0,0.0,0.0,0.0,0.0,0.0,0.0,0.0,0.0,0.0,0.0,0.0,0.0,0.0,0.0,0.0,0.0,2.7242,2.7384,2.7407,0.0,0.0,0.0,0.0,0.0,0.0,0.0,0.0,0.0,2.9938,2.9964,3.0055,0.0,0.0,3.0346,3.035,3.0411,3.0467,3.0522,0.0,0.0,0.0,3.0649,3.0665,3.0667,3.0684,3.0734,3.0735,3.0728,3.0949,3.1595,3.1687,3.1725,3.2084,3.1874,3.1712,3.1697,3.2324,3.2908,3.296,3.3143,3.3308,3.9396,3.7026,3.4772,3.3804,3.3763,3.372,3.3986,3.4394,3.4376,3.4376,3.435,3.3838,3.3574,3.3503,3.2816,0.0,0.0,0.0,3.5151,3.5776,3.6513,3.7123,3.7632,3.7418,3.7116,3.6797,3.6028,3.5251,3.4451,3.3989,3.2949,3.1414,0.0,0.0,2.9619,2.9694,2.9714,2.9745,2.9533,2.9476,2.9552,2.9404,2.91,2.8597,2.8276,2.8039,2.7838,2.8276,2.8407,2.8178,2.9021,2.8886,0.0,0.0,0.0,0.0,0.0,0.0,0.0,0.0,0.0,0.0,0.0,2.5891,0.0,0.0,0.0,0.0,2.7322,2.7566,2.8095,2.8161,0.0,0.0,0.0,0.0,0.0,0.0,0.0,2.9651,3.0005,3.0235,3.012,3.0162,3.0183,3.0172,3.0209,3.026,3.0244,0.0,3.0381,3.0414,3.044,3.047,3.0515,3.0511,3.0546,3.0548,3.0601,3.0623,3.066,3.0664,3.0972,3.1757,3.1981,3.2237,3.3067,3.3072,3.287,3.2563,3.3161,3.373,3.3757,3.3992,3.4348,4.3348,4.2915,3.8896,3.7106,3.6904,3.6835,3.6804,3.6821,3.6821,3.6811,3.6793,3.6752,3.6683,3.661,3.6448,0.0,0.0,3.6703,3.7446,3.8672,3.8882,3.9526,4.0447,3.9777,3.9106,3.8372,3.7621,3.6824,3.6003,3.5993,3.5178,3.3592,3.2182,3.1311,3.1034,3.107,3.1131,3.1185,3.0465,3.0088,3.0117,2.9712,2.9204,2.8636,2.881,2.8587,2.7964,2.8812,2.8995,2.8371,2.9132,2.919,2.838,0.0,0.0,0.0,0.0,0.0,0.0,0.0,0.0,0.0,0.0,0.0,0.0,0.0,0.0,0.0,2.8359,0.0,2.8405,2.8399,0.0,0.0,0.0,2.9463,2.9396,2.9989,3.037,3.0296,0.0,0.0,0.0,0.0,3.0018,3.0084,3.0151,3.0174,3.0181,3.0247,3.0292,3.0301,3.0346,3.04,3.0392,3.0395,3.0419,3.0476,3.0481,3.0516,3.0559,3.0593,3.0931,3.1885,3.1997,3.232,3.3144,3.397,3.4262,3.3544,3.4023,3.4573,3.4533,3.5034,3.5747,4.6184,4.5474,4.3192,4.1206,3.9576,3.9446,3.9399,3.9399,3.9416,3.9387,3.9364,3.8795,3.8225,3.7649,3.7701,3.7746,3.778,3.8168,3.8667,3.9227,3.9637,4.0028,4.0393,4.0284,4.0139,3.994,3.9741,3.8971,3.7675,3.7621,3.6816,3.5287,3.486,3.3444,3.1107,3.107,3.1104,3.1124,3.0458,2.9892,2.9483,3.0015,3.0011,2.943,2.9667,2.9731,2.9602,2.9929,3.0054,2.9939,3.024,3.0033,2.9176,2.9178,0.0,0.0,0.0,0.0,0.0,0.0,0.0,0.0,0.0,2.7763,2.7786,0.0,2.8375,0.0,2.9655,3.0015,3.0024,3.0024,0.0,0.0,3.0132,3.0226,3.0155,3.0259,3.0264,3.0159,3.0098,3.0026,2.994,2.9913,2.9936,2.9948,3.0018,3.0065,3.0117,3.0127,3.0161,3.0212,3.0238,3.0257,3.0302,3.0333,3.0323,3.0349,3.0354,3.0364,3.0442,3.043,3.0939,3.2355,3.269,3.3252,3.4597,3.5071,3.5088,3.4943,3.5093,3.5262,3.5248,3.541,3.58,4.7447,4.6694,4.5692,4.42,4.2372,4.1439,4.1017,4.1004,4.1004,4.1004,4.1,4.0577,4.0159,3.9767,3.983,3.9896,4.0058,4.0417,4.0677,4.0883,4.1249,4.1443,4.1475,4.1522,4.1324,4.098,4.1017,4.0393,3.9236,3.9216,3.8427,3.6888,3.687,3.562,3.3248,3.3176,3.3216,3.3215,3.2206,3.12,3.0259,3.0413,3.0415,3.0208,3.0055,3.0042,3.0108,3.0248,3.0333,3.0392,3.0533,3.0397,2.9906,2.9956,2.9793,0.0,0.0,0.0,0.0,0.0,0.0,0.0,0.0,0.0,0.0,0.0,2.9347,0.0,0.0,0.0,3.0518,3.0515,3.0496,3.0404,3.0375,3.0352,3.0331,3.0243,3.0171,3.0064,2.9996,2.9944,2.9916,2.9911,2.9911,2.9911,2.994,2.9976,3.0042,3.0091,3.0101,3.0155,3.018,3.0219,3.0246,3.0246,3.0266,3.025,3.0263,3.0267,3.0311,3.0314,3.088,3.2506,3.2885,3.341,3.5028,3.5385,3.5368,3.5353,3.5351,3.5381,3.5398,3.5402,3.5742,4.8179,4.7464,4.717,4.6358,4.5151,4.3132,4.222,4.2119,4.2119,4.2069,4.1986,4.1986,4.1919,4.1835,4.1879,4.2027,4.228,4.258,4.2738,4.2806,4.3107,4.3166,4.3051,4.2982,4.2586,4.1937,4.1876,4.1405,4.06,4.0637,3.9912,3.8544,3.8408,3.7631,3.6319,3.6174,3.597,3.574,3.4422,3.3067,3.1673,3.1014,3.0728,3.0761,3.0278,3.0011,2.9991,3.0111,3.0221,3.0289,3.0406,3.0487,3.0474,3.0519,3.0224,0.0,2.9429,0.0,0.0,0.0,0.0,0.0,0.0,0.0,0.0,3.0069,3.0524,3.0622,3.0576,3.0568,3.0694,3.0685,3.0661,3.059,3.0551,3.0504,3.0503,3.0456,3.038,3.0333,3.0262,3.0191,3.0093,3.0055,3.0028,2.9922,2.9907,2.9924,2.9972,3.0049,3.0098,3.0101,3.016,3.0215,3.0215,3.0211,3.0211,3.0208,3.0215,3.0218,3.0223,3.0207,3.0779,3.2339,3.2786,3.3361,3.499,3.5289,3.5281,3.5285,3.5265,3.5231,3.5285,3.5281,3.5868,5.0288,4.9509,4.8315,4.7653,4.7221,4.5079,4.3818,4.3287,4.3273,4.2956,4.2408,4.2377,4.206,4.1526,4.1655,4.1863,4.2142,4.2524,4.2926,4.3369,4.3785,4.414,4.4393,4.3931,4.3681,4.3578,4.2973,4.2257,4.146,4.146,4.0981,4.0066,3.946,3.9007,0.0,0.0,0.0,0.0,3.4636,3.3799,3.246,3.2304,3.175,3.0684,3.0638,0.0,2.9962,3.0042,3.0146,3.0219,3.0295,0.0,0.0,0.0,0.0,0.0,0.0,0.0,0.0,0.0,0.0,0.0,3.097,3.0681,3.0173,3.0215,3.0538,3.1225,3.1256,3.1499,3.22,3.2221,3.218,3.2161,3.2145,3.2133,3.2151,3.208,3.2032,3.202,3.1962,3.1644,3.0972,3.0823,3.055,3.0063,2.9912,2.991,2.9924,3.003,3.0095,3.0098,3.0164,3.0208,3.0208,3.0208,3.0208,3.0208,3.0208,3.0208,3.0215,3.0218,3.0788,3.2404,3.2722,3.3261,3.4909,3.5226,3.5222,3.5218,3.5209,3.519,3.5207,3.5215,3.5724,5.0866,0.0,4.9011,4.8117,0.0,0.0,4.55,4.4125,4.3762,4.3398,4.305,4.305,4.282,4.2487,4.2593,4.2808,4.3102,4.3427,4.3716,4.397,4.4383,4.4664,4.4796,4.4551,4.4514,4.4606,4.3841,4.3261,4.2824,4.2474,4.1877,4.1098,4.0718,4.0347,3.9922,3.917,3.7818,3.5846,3.5828,3.5116,3.3717,3.3353,3.269,3.168,0.0,0.0,0.0,0.0,0.0,0.0,0.0,0.0,0.0,0.0,0.0,3.1404,3.1392,3.1395,3.1378,3.138,3.1542,3.192,3.1865,3.1684,3.1366,3.1291,3.1485,3.1935,3.1961,3.2125,3.2552,3.2551,3.2545,3.2505,3.2499,3.2501,3.2501,3.2469,3.2452,3.2459,3.2419,3.2193,3.1755,3.126,3.0901,3.0525,3.0126,2.9935,2.9911,3.0018,3.0114,3.0127,3.0171,3.0208,3.0208,3.0208,3.0208,3.0208,3.0208,3.0208,3.0208,3.0208,3.0758,3.2298,3.268,3.3234,3.4766,3.5186,3.5186,3.5186,3.5186,3.5186,3.5186,3.5186,3.5572,5.0966,5.0137,4.9425,4.8332,4.7139,4.7603,4.6609,4.4654,0.0,0.0,0.0,4.3615,4.3615,4.3613,4.3628,4.3837,4.4128,4.4435,4.4589,4.4632,4.5039,4.5228,4.5215,4.5217,4.5289,4.5376,4.4672,4.4292,4.4195,4.3614,4.2918,4.2175,4.1986,4.1451,4.0537,3.9903,3.8889,3.7484,3.714,3.6393,3.5156,3.4295,3.3545,3.2897,3.1644,3.0977,3.0959,3.0514,3.0585,3.1259,3.1396,3.1784,3.2405,3.2463,3.2465,3.2457,3.248,3.2471,3.2444,3.2443,3.2479,3.258,3.2657,3.2619,3.2405,3.2372,3.247,3.2666,3.2662,3.2727,3.2873,3.2911,3.2902,3.2867,3.2839,3.2853,3.2843,3.2834,3.2911,3.2831,3.2893,3.2742,3.2529,3.194,3.1374,3.1259,3.0851,3.036,3.0326,3.0254,3.0117,3.016,3.0178,3.0208,3.0208,3.0208,3.0208,3.0208,3.0208,3.0208,3.0227,3.0322,3.1026,3.2413,3.2795,3.3582,3.4823,3.5186,3.5186,3.5186,3.5186,3.5186,3.5186,3.5186,3.5492,5.1447,5.012,4.9425,4.863,4.7802,4.7272,4.6146,4.467,4.3943,4.3615,4.3615,4.3615,4.3615,4.3613,4.3778,4.3939,4.414,4.4676,4.5108,0.0,4.5967,4.6448,4.682,4.6277,4.6142,4.6256,4.5526,4.5118,4.5108,4.5009,4.4548,4.3769,4.3073,4.1995,4.0628,4.0383,3.9922,3.907,3.772,3.6927,3.6726,3.5324,3.4233,3.3582,3.2811,3.2133,3.1597,3.1645,3.1803,3.2033,3.2123,3.2217,3.2322,3.2363,3.2335,3.2331,3.2326,3.2289,3.226,3.225,3.2546,3.3216,3.3877,3.3749,3.2444,3.2307,3.2609,3.3261,3.3365,3.3686,3.4352,3.4413,3.4395,3.4476,3.4485,3.4475,3.4462,3.4395,3.4342,3.4332,3.4405,3.4035,3.3422,3.3154,3.2759,3.2298,3.1905,3.1982,3.1762,3.0958,3.0182,3.0128,3.0164,3.0204,3.0208,3.0208,3.0208,3.0208,3.0208,3.0246,3.0322,3.0819,3.1599,3.2565,3.3276,3.4082,3.5014,3.5186,3.5186,3.5186,3.5186,3.5186,3.5186,3.5186,3.5473,5.2027,5.1264,5.017,4.9259,4.8514,4.7371,4.651,4.5847,4.5119,4.4325,4.3631,4.3615,4.3658,4.3763,4.3852,4.407,4.4352,4.4835,4.5288,4.5735,4.635,4.6819,4.716,4.6989,4.6998,4.7081,4.6341,4.5943,4.5914,4.5526,4.511,4.4739,4.4367,4.3389,4.1904,4.1796,4.1216,4.0012,3.8871,3.7899,3.7052,3.6336,3.542,3.428,3.3565,3.2883,3.2274,3.1981,3.2101,3.2673,3.2794,3.3013,3.3417,3.3443,3.3644,3.4087,3.4081,3.4229,3.4669,3.421,3.3908,3.3865,3.4216,3.416,3.3505,3.353,3.3708,3.4115,3.4139,3.4324,3.4751,3.4793,3.4822,3.4848,3.4809,3.4809,3.4843,3.4833,3.4788,3.4758,3.4708,3.4566,3.4198,3.3783,3.3418,3.2996,3.2703,3.2435,3.2447,3.153,3.0788,3.0761,3.0444,3.0179,3.0201,3.0208,3.0208,3.0208,3.0208,3.0399,3.0758,3.1328,3.2,3.3108,3.3777,3.4296,3.5033,3.5186,3.5186,3.5186,3.5186,3.5186,3.5186,3.5186,3.5664,5.2441,5.2043,5.0932,4.9922,4.9011,4.7885,4.7206,4.6858,4.6278,4.5317,4.4176,4.3974,4.3898,4.3914,4.3983,4.4224,4.4569,4.5028,4.5507,4.5975,4.6566,4.6991,4.7256,4.7436,4.7583,4.7606,4.7055,4.6765,4.6693,4.6142,4.5743,4.5562,4.5399,4.4675,4.3462,4.3435,4.2647,4.1117,4.0483,3.9341,3.7611,3.7357,3.6628,3.5289,3.4513,3.39,3.3445,3.297,3.3074,3.3788,3.3962,3.4282,3.4843,3.4899,3.5192,3.5789,3.5783,3.5987,3.6574,3.6008,3.5321,3.4736,3.4581,3.456,3.466,3.46,3.4612,3.4666,3.4633,3.4673,3.4742,3.4752,3.4763,3.4773,3.4744,3.4763,3.4773,3.4763,3.4728,3.4682,3.4671,3.4676,3.4579,3.417,3.3863,3.3805,3.3345,3.2985,3.288,3.2327,3.188,3.1485,3.0796,3.017,3.0148,3.0181,3.0204,3.0208,3.0399,3.0796,3.135,3.171,3.2458,3.3704,3.4163,3.4545,3.5053,3.5186,3.5186,3.5186,3.5186,3.5263,3.5511,3.5564,3.5969,5.2572,5.148,5.1248,5.0386,4.9177,4.8945,4.815,4.7007,4.6825,4.6361,4.5564,4.5041,4.4484,4.4006,4.4298,4.4564,4.4783,4.542,4.5963,4.6345,4.6795,4.7149,4.7446,4.75,4.7554,4.7678,4.758,4.7508,4.7508,4.7435,4.7073,4.6377,4.5653,4.5273,4.5073,4.5055,4.4277,4.2729,4.262,4.1479,3.9287,3.8454,3.7683,3.6804,3.6069,3.5703,3.5545,3.5758,3.586,3.6066,3.6085,3.6231,3.6351,3.6376,3.6387,3.6409,3.6426,3.6403,3.6357,3.6199,3.6128,3.6145,3.5553,3.5274,3.5415,3.4905,3.4552,3.4682,3.4661,3.4623,3.4599,3.4634,3.4655,3.4692,3.4666,3.4645,3.4706,3.4655,3.4599,3.4618,3.4623,3.4634,3.4673,3.4607,3.464,3.4633,3.4482,3.4377,3.432,3.3718,3.2949,3.2279,3.1138,3.025,3.0135,3.0167,3.0261,3.0284,3.0873,3.1389,3.1847,3.2802,3.3895,3.4048,3.4598,3.5037,3.511,3.5186,3.5186,3.5186,3.5239,3.5411,3.6099,3.6294,3.67,5.2491,5.1944,5.1944,5.1364,5.042,4.9939,4.921,4.8346,4.8313,4.773,4.6806,4.6685,4.6208,4.546,4.5387,4.553,4.5882,4.6079,4.632,4.6661,4.7086,4.7352,4.75,4.7575,4.7646,4.7707,4.7689,4.7689,4.7689,4.7689,4.7526,4.7228,4.6866,4.6486,4.6041,4.6005,4.5436,4.4331,4.3852,4.291,4.1515,4.0202,3.8952,3.7828,3.741,3.6805,3.6048,3.6045,3.6131,3.6204,3.6282,3.6325,3.636,3.6378,3.6567,3.6999,3.7441,3.743,3.6871,3.6822,3.661,3.6194,3.5967,3.5923,3.6103,3.5957,3.5922,3.5936,3.5176,3.4612,3.4631,3.4612,3.4612,3.4634,3.4604,3.4618,3.4639,3.4604,3.4612,3.4612,3.4634,3.4682,3.4744,3.4815,3.486,3.4903,3.4908,3.4908,3.4856,3.4207,3.341,3.2581,3.1514,3.0681,3.025,3.016,3.0372,3.0815,3.1217,3.1633,3.2802,3.336,3.4105,3.4579,3.4942,3.5167,3.5167,3.5186,3.5186,3.5186,3.5244,3.5469,3.6328,3.6525,3.7052,5.2391,5.2391,5.2391,5.1996,5.1318,5.0786,5.0258,4.9825,4.9758,4.9169,4.8283,4.8508,4.822,4.7468,4.6769,4.6711,4.7143,4.7163,4.7311,4.7604,4.8007,4.819,4.8215,4.8308,4.8351,4.8369,4.8387,4.8387,4.8322,4.8105,4.8033,4.8015,4.7826,4.7399,4.6892,4.682,4.6432,4.5653,4.5019,4.4268,4.3218,4.2085,4.0637,3.9034,3.8826,3.8207,3.6943,3.6897,3.6851,3.6728,3.6745,3.679,3.6812,3.682,3.7061,3.7587,3.811,3.8164,3.7517,3.7473,3.7236,3.6695,3.6585,3.6592,3.6765,3.6804,3.6883,3.6915,3.5966,3.5339,3.5283,3.5288,3.5288,3.5264,3.5133,3.4964,3.4983,3.4795,3.4612,3.4615,3.466,3.4723,3.4809,3.485,3.4908,3.4908,3.4908,3.4908,3.4875,3.4405,3.3788,3.2988,3.2171,3.126,3.0346,3.016,3.0525,3.0949,3.1331,3.2283,3.3547,3.3834,3.4373,3.4923,3.511,3.5186,3.5186,3.5186,3.5186,3.5186,3.5263,3.5641,3.6714,3.686,3.7711,5.2391,5.2409,5.2391,5.2101,5.149,5.1491,5.1279,5.094,5.094,5.0629,5.0198,5.0366,5.0274,4.9861,4.8633,4.8079,4.8428,4.8721,4.9043,4.9395,4.9631,4.9827,4.9981,4.9992,4.9938,4.9793,4.9775,4.9829,4.9829,4.9191,4.8865,4.8811,4.8141,4.7707,4.7645,4.758,4.7236,4.6504,4.6295,4.5617,4.4277,4.3978,4.2719,4.0718,4.0392,3.9967,3.9251,3.9205,3.8877,3.8216,3.8105,3.8164,3.8245,3.8234,3.8213,3.8222,3.8231,3.8207,3.8135,3.8099,3.8096,3.8053,3.7549,3.7338,3.7483,3.7216,3.7088,3.7043,3.7095,3.6986,3.6973,3.6772,3.6791,3.6748,3.6235,3.5897,3.5841,3.5152,3.469,3.4728,3.4735,3.4773,3.4877,3.4912,3.4903,3.4908,3.4908,3.4908,3.4894,3.487,3.4503,3.378,3.2949,3.1981,3.0544,3.016,3.0223,3.0704,3.1652,3.2623,3.3234,3.3845,3.4594,3.5152,3.5186,3.5186,3.5186,3.5186,3.5186,3.5224,3.5358,3.5912,3.7096,3.7625,3.8465,5.2825,5.2552,5.2816,5.2787,5.2621,5.2809,5.2638,5.2171,5.23,5.2108,5.178,5.1877,5.1984,5.206,5.1812,5.0938,4.973,4.9459,4.9524,4.9818,4.996,5.0049,5.0101,5.0101,5.0101,5.0101,5.0101,5.0101,5.0082,4.9793,4.9655,4.9528,4.8847,4.8467,4.8395,4.7942,4.7544,4.7254,4.6794,4.6214,4.5617,4.5128,4.4186,4.2873,4.1786,4.0917,4.0139,3.9641,3.926,3.9022,3.8532,3.8249,3.8256,3.8282,3.8248,3.8232,3.8217,3.82,3.82,3.82,3.8217,3.8214,3.8116,3.8034,3.8198,3.8221,3.828,3.842,3.8577,3.8646,3.8469,3.7768,3.711,3.7073,3.686,3.6641,3.6522,3.5959,3.5431,3.5397,3.5121,3.4868,3.4879,3.4917,3.4908,3.4908,3.4908,3.4908,3.4917,3.4969,3.4717,3.4027,3.353,3.2783,3.1127,3.0451,3.036,3.0949,3.171,3.2531,3.3219,3.3635,3.4288,3.4923,3.5053,3.5129,3.5129,3.5339,3.532,3.5377,3.5492,3.6428,3.7483,3.8105,3.9084,5.3773,5.3587,5.3937,5.3974,5.3873,5.4124,5.3927,5.3451,5.3543,5.3408,5.3147,5.3192,5.3315,5.3425,5.3673,5.3103,5.1697,5.1346,5.131,5.1514,5.1606,5.164,5.1604,5.1405,5.126,5.1224,5.0988,5.0879,5.0825,5.0608,5.0499,5.0445,4.9691,4.9155,4.8865,4.833,4.7986,4.7652,4.7164,4.6794,4.6486,4.5979,4.5291,4.4421,4.3162,4.1967,4.0954,4.0392,3.9985,3.9731,3.9224,3.8943,3.8934,3.8952,3.8934,3.8925,3.8726,3.8581,3.8544,3.8345,3.8217,3.8242,3.8328,3.847,3.8657,3.8877,3.9092,3.9289,3.9419,3.9471,3.902,3.8137,3.7611,3.773,3.7424,3.7129,3.7035,3.6128,3.556,3.541,3.5131,3.4926,3.4922,3.4908,3.4908,3.4908,3.4908,3.4908,3.4917,3.4931,3.485,3.4265,3.3925,3.3356,3.2367,3.1725,3.0665,3.0974,3.1363,3.2237,3.281,3.3268,3.3883,3.4518,3.4885,3.498,3.5171,3.5435,3.5568,3.5645,3.6298,3.7215,3.8017,3.8671,3.9511,5.5207,5.5354,5.5824,5.5587,5.5175,5.5286,5.5118,5.4733,5.4658,5.4482,5.4276,5.4314,5.4208,5.3966,5.4127,5.4054,5.4238,5.4323,5.4381,5.44,5.4496,5.4526,5.4436,5.3748,5.3367,5.3331,5.2788,5.2455,5.2245,5.164,5.1314,5.1169,5.0499,4.9745,4.8945,4.8847,4.8449,4.7852,4.7598,4.7272,4.662,4.6522,4.6124,4.5327,4.4512,4.3425,4.1922,4.1669,4.118,4.0583,4.0429,4.0465,4.0302,4.0302,4.041,4.0211,3.9759,3.9441,3.9323,3.8751,3.8394,3.8414,3.8413,3.8533,3.8758,3.8847,3.8994,3.9172,3.9195,3.9071,3.8414,3.8131,3.83,3.9176,3.7918,3.7148,3.6828,3.5683,3.4693,3.4872,3.4878,3.4903,3.4908,3.4908,3.4908,3.4908,3.4908,3.4908,3.4913,3.4969,3.4978,3.4816,3.4416,3.383,3.3477,3.3067,3.1758,3.0868,3.1169,3.1683,3.1951,3.2367,3.3226,3.3918,3.4674,3.4846,3.5587,3.5874,3.6256,3.6504,3.7273,3.7888,3.8472,3.9099,3.9669,5.5893,5.6013,5.6487,5.6581,5.6369,5.6192,5.5999,5.5831,5.5451,5.5261,5.5285,5.5347,5.5423,5.55,5.5638,5.5829,5.6057,5.6176,5.5815,5.5063,5.4943,5.4961,5.4907,5.4659,5.4243,5.3748,5.3458,5.3023,5.257,5.2274,5.2118,5.1984,5.1314,5.0517,4.9738,4.9173,4.8493,4.7797,4.7689,4.7562,4.7345,4.7337,4.6939,4.6214,4.587,4.5236,4.4194,4.2601,4.1642,4.1343,4.0791,4.0501,4.0519,4.0501,4.0501,4.0483,4.032,4.0201,4.0199,3.9604,3.9207,3.9195,3.8939,3.8739,3.8774,3.856,3.8471,3.8513,3.8103,3.7647,3.7519,3.7461,3.7649,3.7867,3.7411,3.7054,3.6853,3.6095,3.5402,3.4912,3.4864,3.4898,3.4908,3.4908,3.4903,3.4908,3.4908,3.4908,3.4917,3.4945,3.4983,3.4889,3.4579,3.4346,3.3938,3.3611,3.2832,3.1667,3.1456,3.1339,3.1474,3.1527,3.2405,3.3593,3.4327,3.5133,3.5855,3.6447,3.6925,3.7421,3.8075,3.8562,3.8953,3.947,4.0046,5.7295,5.7396,5.7862,5.7867,5.7622,5.7421,5.718,5.6845,5.62,5.6,5.6094,5.5956,5.6021,5.6207,5.6424,5.6622,5.6812,5.6899,5.6505,5.5842,5.5758,5.5758,5.5703,5.5414,5.4907,5.4273,5.4146,5.3892,5.3403,5.3096,5.2933,5.2824,5.2147,5.1332,5.0553,4.9745,4.8956,4.8232,4.787,4.7689,4.7689,4.7689,4.7453,4.6983,4.6657,4.624,4.5635,4.3977,4.2881,4.2529,4.1823,4.1406,4.1397,4.1415,4.137,4.1343,4.118,4.1079,4.1112,4.054,4.0215,4.0207,3.999,3.9889,3.9866,3.9472,3.9383,3.9386,3.8945,3.8284,3.8069,3.7392,3.7029,3.6654,3.6654,3.6504,3.6214,3.5792,3.5385,3.4912,3.483,3.4874,3.4893,3.4879,3.4865,3.4893,3.4922,3.4917,3.4927,3.495,3.4927,3.4922,3.4822,3.4576,3.4273,3.4003,3.3794,3.2807,3.1919,3.157,3.1389,3.1017,3.1383,3.3566,3.4751,3.5935,3.6734,3.7364,3.7899,3.8419,3.8858,3.9336,3.9755,3.9934,4.0342,5.9132,5.9386,5.9666,5.9324,5.8798,5.8801,5.8459,5.7792,5.7017,5.6776,5.6782,5.6328,5.6131,5.6286,5.6417,5.6541,5.6773,5.6807,5.691,5.6962,5.6989,5.6953,5.6844,5.635,5.5667,5.5033,5.4961,5.4876,5.4599,5.4055,5.3729,5.3512,5.2878,5.2111,5.1242,5.0499,4.9764,4.8974,4.8232,4.7852,4.7833,4.7707,4.7671,4.7598,4.7001,4.662,4.6439,4.5617,4.4838,4.4178,4.3371,4.3009,4.3018,4.3,4.2892,4.2838,4.2341,4.2104,4.1964,4.1539,4.1259,4.1368,4.1337,4.1575,4.1401,4.1139,4.1052,4.1186,4.0638,4.0071,3.9276,3.8181,3.7011,3.6085,3.5897,3.5522,3.4795,3.4736,3.4807,3.4811,3.4812,3.4833,3.4863,3.4834,3.4853,3.4872,3.4911,3.4903,3.4908,3.4927,3.4908,3.4913,3.4917,3.4823,3.4529,3.4491,3.4282,3.3794,3.2807,3.2163,3.1917,3.1588,3.1932,3.3959,3.5496,3.6642,3.7521,3.8147,3.8682,3.9121,3.9618,4.0153,4.0333,4.036,4.0418,5.9616,5.9716,5.991,5.992,5.9657,5.9248,5.8897,5.8581,5.7842,5.7539,5.7437,5.7005,5.6815,5.6833,5.6558,5.6546,5.6849,5.6848,5.6951,5.715,5.7188,5.7188,5.7188,5.6989,5.6446,5.5794,5.5703,5.5432,5.4925,5.4707,5.4309,5.3693,5.3476,5.2673,5.1459,5.1115,5.059,4.9782,4.8992,4.8576,4.8485,4.7996,4.7707,4.7671,4.7489,4.7363,4.7308,4.6613,4.5816,4.5055,4.4802,4.4657,4.453,4.4087,4.3826,4.3803,4.3315,4.2985,4.3056,4.265,4.24,4.2393,4.2135,4.1747,4.1805,4.1302,4.1087,4.094,4.0365,3.994,3.9527,3.8663,3.7455,3.6104,3.5559,3.502,3.4688,3.4655,3.4716,3.4737,3.4787,3.4807,3.4804,3.4804,3.4812,3.4833,3.4868,3.4897,3.4903,3.4917,3.4908,3.4908,3.4913,3.4913,3.487,3.487,3.4756,3.4548,3.3822,3.3006,3.3052,3.3187,3.417,3.5785,3.6581,3.7636,3.8247,3.882,3.9312,3.9733,4.0,4.0325,4.0334,4.0363,4.0427,5.9927,5.9943,6.0057,6.0089,6.0054,5.9633,5.9457,5.9317,5.8667,5.8316,5.82,5.7821,5.76,5.7591,5.7438,5.753,5.7738,5.746,5.7469,5.7616,5.7382,5.7206,5.7188,5.717,5.6935,5.6554,5.6482,5.6295,5.5884,5.554,5.5088,5.4635,5.4001,5.3204,5.2437,5.155,5.1115,5.0535,4.9836,4.9401,4.9347,4.8612,4.8268,4.8105,4.7924,4.7689,4.7616,4.7236,4.6504,4.558,4.5291,4.5291,4.5254,4.4874,4.4661,4.4768,4.4473,4.4435,4.4532,4.4172,4.3949,4.3882,4.336,4.3041,4.2957,4.252,4.2341,4.238,4.1586,4.1235,4.0885,3.9808,3.8338,3.7174,3.616,3.5382,3.4738,3.4639,3.4666,3.4687,3.4716,3.4737,3.4752,3.4742,3.4723,3.4744,3.4827,3.4863,3.4892,3.4898,3.4908,3.4908,3.4927,3.4936,3.4936,3.4936,3.4931,3.4775,3.4562,3.3779,3.3751,3.42,3.5238,3.6349,3.7474,3.84,3.8897,3.937,3.9752,4.0095,4.0287,4.032,4.0333,4.0376,4.0436,6.0089,6.0089,6.0089,6.0089,6.0089,6.0072,6.0019,5.9949,5.9387,5.9108,5.8993,5.8618,5.8399,5.8411,5.8402,5.8804,5.9073,5.839,5.8239,5.8048,5.7623,5.7188,5.7188,5.7188,5.7134,5.7062,5.717,5.7098,5.6808,5.6337,5.6047,5.5595,5.4562,5.3983,5.3476,5.2389,5.164,5.1495,5.0698,5.0264,5.0082,4.9456,4.8956,4.8637,4.8015,4.7725,4.7689,4.7562,4.7019,4.5635,4.5544,4.5697,4.5643,4.5544,4.5487,4.5571,4.5653,4.5771,4.6082,4.5674,4.5612,4.5518,4.5058,4.4677,4.4501,4.4231,4.3994,4.3757,4.3576,4.2719,4.2231,4.0804,3.9339,3.8206,3.7461,3.6485,3.5321,3.4851,3.4873,3.4897,3.4902,3.479,3.4768,3.4706,3.4615,3.4713,3.4768,3.4817,3.4863,3.4888,3.4903,3.4908,3.4931,3.4964,3.4964,3.4964,3.4959,3.4917,3.4879,3.4442,3.4087,3.4547,3.5567,3.665,3.7837,3.8763,3.9446,3.9866,4.0134,4.0267,4.0301,4.0319,4.0326,4.0394,4.0461,6.0089,6.0089,6.0089,6.0089,6.0089,6.0089,6.0089,6.0072,5.9914,5.9808,5.9747,5.9375,5.9193,5.9155,5.8968,5.8894,5.9298,5.9051,5.879,5.8285,5.7569,5.7243,5.7243,5.7315,5.7224,5.7206,5.7188,5.7188,5.7098,5.6953,5.6621,5.5987,5.5625,5.5208,5.4508,5.3675,5.3186,5.2933,5.1803,5.1115,5.0898,5.0264,4.9564,4.8992,4.8167,4.7779,4.7707,4.7689,4.7508,4.7254,4.7109,4.6964,4.692,4.6522,4.635,4.6422,4.6195,4.6181,4.639,4.6605,4.6638,4.6648,4.6389,4.616,4.5427,4.4845,4.4282,4.3625,4.2781,4.2255,4.1623,4.0985,3.9915,3.882,3.8225,3.7687,3.681,3.6509,3.6421,3.6351,3.5951,3.5619,3.5593,3.4972,3.4808,3.4738,3.4732,3.4752,3.4804,3.4859,3.4898,3.4912,3.4931,3.4978,3.504,3.5135,3.5306,3.5424,3.5415,3.5476,3.5103,3.4947,3.5982,3.7085,3.8223,3.8992,3.9446,3.9885,4.0057,4.0191,4.031,4.0327,4.0351,4.0417,4.0516,6.0089,6.0089,6.0089,6.0089,6.0089,6.0089,6.0089,6.0089,6.0089,6.0155,6.0213,6.0024,6.0002,6.0022,5.9905,6.0039,6.0178,6.0038,5.9596,5.9027,5.851,5.8365,5.8329,5.8202,5.8039,5.7387,5.7188,5.7188,5.7188,5.717,5.6953,5.6549,5.6205,5.5776,5.5377,5.4641,5.4037,5.3603,5.2915,5.2263,5.1821,5.1079,5.0282,4.9492,4.8703,4.8268,4.8286,4.787,4.7743,4.7707,4.7707,4.7707,4.7671,4.7319,4.7186,4.7262,4.7352,4.7339,4.759,4.7543,4.753,4.7556,4.7237,4.6798,4.6242,4.554,4.4939,4.4289,4.34,4.2311,4.1441,4.091,4.0234,3.9746,3.9089,3.8719,3.8256,3.7617,3.711,3.7035,3.6673,3.6515,3.6201,3.5651,3.535,3.5421,3.4843,3.4826,3.4763,3.4819,3.4892,3.4917,3.4941,3.4988,3.5088,3.5301,3.5704,3.5975,3.6264,3.6468,3.6495,3.6379,3.6407,3.7233,3.7884,3.8534,3.9011,3.947,3.9947,4.0215,4.0314,4.0335,4.0379,4.0477,4.0552,6.0089,6.0089,6.0089,6.0089,6.0089,6.0089,6.0089,6.0089,6.0089,6.0202,6.0411,6.055,6.0544,6.078,6.0942,6.1296,6.1349,6.0955,6.024,5.9819,5.947,5.933,5.9361,5.9222,5.8854,5.7641,5.7532,5.7442,5.7243,5.7188,5.7134,5.7043,5.6573,5.6283,5.6047,5.545,5.4834,5.4309,5.3748,5.3259,5.2643,5.1882,5.1097,5.03,4.951,4.9101,4.8974,4.8586,4.8116,4.7906,4.7888,4.7815,4.7707,4.771,4.7793,4.7984,4.8198,4.8392,4.8517,4.8501,4.8401,4.8371,4.7856,4.7361,4.7068,4.643,4.5829,4.5115,4.4177,4.2731,4.1911,4.1185,4.076,4.0384,3.9883,3.9664,3.937,3.8293,3.7805,3.7617,3.7499,3.7317,3.7047,3.6614,3.6346,3.5989,3.5407,3.5036,3.5025,3.5142,3.5424,3.5669,3.585,3.5918,3.6003,3.6046,3.6373,3.6616,3.7005,3.7257,3.7494,3.7235,3.6943,3.6689,3.7211,3.7899,3.8534,3.8992,3.9489,4.0028,4.0333,4.0334,4.0421,4.0511,4.0598,6.0089,6.0089,6.0089,6.0089,6.0089,6.0089,6.0089,6.0089,6.0089,6.0218,6.0394,6.0516,6.0668,6.0863,6.1149,6.1444,6.152,6.1172,6.0797,6.0489,6.0109,5.9819,5.9873,5.991,5.9511,5.9126,5.8619,5.8021,5.7387,5.7188,5.7188,5.7183,5.7025,5.6917,5.6712,5.6259,5.5734,5.5227,5.4454,5.3802,5.3277,5.2589,5.1876,5.1079,5.0318,4.9956,4.9901,4.9738,4.9383,4.8793,4.8721,4.8322,4.7938,4.7774,4.7827,4.8052,4.8411,4.8695,4.886,4.9123,4.9215,4.9246,4.9002,4.8589,4.8025,4.7237,4.6505,4.5517,4.4327,4.2787,4.1173,4.1135,4.0559,4.0096,3.9927,3.9796,3.9683,3.9458,3.9114,3.8982,3.8569,3.8106,3.7867,3.7535,3.7116,3.6834,3.6438,3.6214,3.6228,3.6403,3.6683,3.6873,3.7062,3.7101,3.714,3.7126,3.725,3.7366,3.7642,3.7823,3.7922,3.7705,3.7459,3.734,3.7111,3.7383,3.7956,3.861,3.9317,4.0081,4.0232,4.0351,4.0445,4.053,4.0598,6.0089,6.0089,6.0089,6.0089,6.0089,6.0089,6.0089,6.0089,6.0105,6.025,6.0472,6.0578,6.0747,6.0938,6.109,6.1386,6.1546,6.1584,6.1417,6.1304,6.1032,6.0833,6.0797,6.0797,6.0543,6.0235,5.976,5.8927,5.7876,5.7369,5.7243,5.7188,5.7188,5.7188,5.7134,5.6839,5.6386,5.5921,5.5233,5.4436,5.3711,5.2933,5.2281,5.1828,5.1187,5.0771,5.0644,5.0227,4.997,4.9615,4.9234,4.8849,4.8512,4.821,4.8045,4.8224,4.8476,4.8749,4.8978,4.9279,4.9463,4.949,4.9509,4.934,4.8814,4.8089,4.7113,4.5923,4.5254,4.3857,4.2374,4.2111,4.168,4.106,4.0797,4.0778,4.0816,4.0816,4.0572,4.0221,3.9552,3.9063,3.8869,3.8462,3.793,3.7591,3.7379,3.7351,3.7391,3.7485,3.7635,3.7643,3.7719,3.774,3.7831,3.8007,3.8095,3.8231,3.8384,3.8585,3.8661,3.8573,3.8357,3.8166,3.788,3.7642,3.8071,3.893,3.9542,4.0062,4.0245,4.0377,4.0469,4.056,4.0714,6.0089,6.0089,6.0089,6.0089,6.0089,6.0089,6.0089,6.0089,6.0089,6.0266,6.0534,6.0594,6.0762,6.1019,6.1182,6.1372,6.1666,6.1859,6.1924,6.1919,6.1865,6.1937,6.1973,6.1937,6.1593,6.1068,6.0652,5.9964,5.8474,5.7804,5.7442,5.7243,5.7188,5.7188,5.7152,5.7098,5.6699,5.641,5.5987,5.5196,5.3911,5.3114,5.2625,5.248,5.1876,5.155,5.1477,5.1112,5.0755,5.0486,5.0085,4.9648,4.948,4.906,4.8809,4.8823,4.8827,4.8856,4.9061,4.9303,4.9509,4.9509,4.9509,4.949,4.9358,4.8728,4.7883,4.6561,4.6167,4.551,4.4083,4.3595,4.3081,4.2405,4.2023,4.1929,4.1804,4.1673,4.1448,4.1004,4.039,3.9908,3.9558,3.9245,3.8675,3.8562,3.8356,3.8291,3.8313,3.822,3.8276,3.8202,3.8217,3.8233,3.8414,3.8774,3.8907,3.9078,3.9293,3.9494,3.9576,3.9618,3.9331,3.9002,3.885,3.8693,3.9012,3.9108,3.9499,3.9885,4.0211,4.0405,4.0453,4.0816,4.1164,6.0089,6.0089,6.0089,6.0089,6.0089,6.0089,6.0089,6.0089,6.0089,6.0218,6.0474,6.0547,6.0699,6.0923,6.1343,6.1605,6.1774,6.1895,6.201,6.201,6.201,6.201,6.201,6.201,6.1955,6.163,6.1141,5.991,5.8854,5.8402,5.7858,5.7424,5.7243,5.7188,5.7188,5.7188,5.7165,5.6929,5.6337,5.5287,5.4055,5.3675,5.3204,5.2715,5.2444,5.2292,5.2272,5.2014,5.1919,5.1493,5.1472,5.1189,5.0802,5.0763,5.086,5.0537,4.9866,4.8969,4.9256,4.9407,4.9509,4.9509,4.9509,4.9509,4.9434,4.9358,4.8803,4.8089,4.7864,4.7113,4.5697,4.4864,4.4076,4.3381,4.2874,4.248,4.223,4.2661,4.2417,4.2049,4.1529,4.0672,4.0052,3.9758,3.9458,3.9401,3.9376,3.9325,3.9191,3.9073,3.9001,3.895,3.8931,3.8947,3.8954,3.9347,3.954,3.9774,3.9946,4.0171,4.0101,4.0038,4.0134,3.9857,3.9666,3.9505,3.9552,3.9571,3.9557,3.9924,4.0524,4.0547,4.0412,4.0931,4.169,6.0089,6.0089,6.0089,6.0089,6.0089,6.0089,6.0089,6.0089,6.0089,6.0266,6.0487,6.0581,6.0747,6.1016,6.1433,6.1619,6.1718,6.1895,6.201,6.201,6.201,6.201,6.201,6.201,6.201,6.1919,6.1593,6.1032,5.9819,5.8818,5.8166,5.7876,5.7406,5.7188,5.7188,5.7188,5.7188,5.6953,5.641,5.5685,5.507,5.4562,5.3983,5.3204,5.3168,5.2931,5.2679,5.2672,5.2715,5.2422,5.2332,5.2044,5.1777,5.1547,5.1369,5.1392,5.0976,5.0438,5.0064,4.9727,4.9568,4.9509,4.9509,4.9509,4.9509,4.9471,4.9415,4.8991,4.8927,4.8288,4.7387,4.6843,4.5866,4.5003,4.4177,4.3776,4.3494,4.34,4.3438,4.3062,4.2687,4.1999,4.136,4.1116,4.091,4.0666,4.061,4.0572,4.0225,3.9826,3.9767,3.9754,3.9737,3.9747,3.9722,3.987,3.9977,4.0133,4.0147,4.0305,4.0292,4.0282,4.0396,4.0349,4.0058,3.9986,4.0047,4.0051,4.0056,4.0482,4.0969,4.1129,4.1323,4.189,4.2604,6.0089,6.0089,6.0089,6.0089,6.0089,6.0089,6.0089,6.0089,6.0089,6.0266,6.0501,6.0625,6.0854,6.1152,6.143,6.1619,6.1676,6.19,6.1996,6.201,6.201,6.201,6.201,6.201,6.201,6.201,6.1937,6.1539,6.0833,5.985,5.8963,5.8402,5.7532,5.7243,5.7188,5.7188,5.7188,5.7134,5.6663,5.621,5.583,5.5414,5.4617,5.4001,5.3633,5.3353,5.2754,5.2809,5.3019,5.3132,5.2985,5.2863,5.2912,5.2677,5.2477,5.2461,5.2202,5.1815,5.1174,5.0566,4.9858,4.9565,4.9509,4.9509,4.9509,4.9509,4.949,4.9396,4.9396,4.9077,4.8645,4.8269,4.7425,4.6599,4.6017,4.5634,4.5258,4.5014,4.4902,4.4808,4.4414,4.3813,4.3238,4.2837,4.2461,4.2042,4.1887,4.1763,4.1323,4.0743,4.0777,4.0829,4.0878,4.0913,4.0904,4.0821,4.0761,4.0677,4.0673,4.0659,4.0788,4.0688,4.0649,4.0554,4.0473,4.0581,4.0708,4.063,4.0639,4.1253,4.1819,4.2164,4.2496,4.3004,4.3497,6.0089,6.0089,6.0089,6.0089,6.0089,6.0089,6.0089,6.0089,6.0089,6.0218,6.0472,6.0684,6.0986,6.1252,6.1473,6.1662,6.1788,6.1923,6.1996,6.201,6.201,6.201,6.201,6.201,6.201,6.201,6.201,6.1955,6.1666,6.076,5.9651,5.8528,5.7876,5.7406,5.7188,5.7188,5.7188,5.7188,5.6971,5.6645,5.6283,5.5848,5.5269,5.4164,5.3729,5.3371,5.2692,5.301,5.3235,5.3518,5.3561,5.3702,5.379,5.375,5.3661,5.36,5.3297,5.2938,5.2392,5.1351,5.0353,4.979,4.9509,4.9509,4.9509,4.9509,4.9509,4.9509,4.9509,4.9471,4.9096,4.872,4.8213,4.765,4.7068,4.6674,4.6392,4.6385,4.6328,4.6479,4.6047,4.5277,4.4796,4.4301,4.3456,4.2962,4.2464,4.2341,4.2259,4.1846,4.1982,4.2069,4.2142,4.2213,4.2286,4.2152,4.1826,4.177,4.1823,4.1657,4.1528,4.138,4.1261,4.1132,4.1165,4.1277,4.1454,4.1634,4.1881,4.2278,4.2683,4.2981,4.3355,4.379,4.4332,6.0089,6.0089,6.0089,6.0089,6.0089,6.0089,6.0089,6.0089,6.0105,6.0248,6.055,6.0854,6.1123,6.1328,6.1519,6.1676,6.1798,6.1941,6.1996,6.201,6.201,6.201,6.201,6.201,6.201,6.201,6.201,6.201,6.1901,6.1249,6.0688,5.9638,5.8583,5.7713,5.7387,5.7297,5.7243,5.7224,5.7206,5.6971,5.6893,5.6694,5.621,5.5251,5.5106,5.4507,5.3741,5.3836,5.383,5.3817,5.401,5.4182,5.4314,5.4359,5.4366,5.4382,5.4023,5.3704,5.314,5.2108,5.1123,5.0316,4.9828,4.9565,4.9678,4.9565,4.9509,4.9509,4.9546,4.9602,4.9358,4.9152,4.8852,4.8326,4.792,4.7594,4.7425,4.7406,4.7323,4.7286,4.6967,4.6422,4.6028,4.5679,4.4733,4.3851,4.3342,4.2925,4.2919,4.286,4.2904,4.2951,4.2992,4.2982,4.304,4.2909,4.2796,4.2882,4.2936,4.2664,4.2412,4.2316,4.2197,4.201,4.1971,4.2274,4.2552,4.28,4.3066,4.3316,4.3536,4.3757,4.4157,4.4532,4.4885,6.0089,6.0089,6.0089,6.0089,6.0089,6.0089,6.0089,6.0105,6.0171,6.0376,6.0668,6.0974,6.1229,6.1404,6.1534,6.1718,6.1858,6.1969,6.1996,6.201,6.201,6.201,6.201,6.201,6.201,6.201,6.201,6.201,6.1973,6.143,6.0978,6.0435,5.9742,5.8836,5.8112,5.7641,5.7569,5.755,5.7297,5.7206,5.717,5.7116,5.6766,5.6024,5.5861,5.5384,5.4581,5.4382,5.4316,5.4247,5.426,5.4326,5.4393,5.4409,5.4409,5.4409,5.4334,5.4098,5.3497,5.2475,5.1705,5.1067,5.0691,5.0391,5.0222,5.0166,5.0316,4.9546,4.9659,4.9715,4.9471,4.9114,4.9227,4.8814,4.8758,4.8476,4.8288,4.8213,4.8101,4.8018,4.7661,4.7323,4.7012,4.6568,4.5519,4.4631,4.4104,4.3818,4.3832,4.3755,4.3648,4.3665,4.3702,4.3645,4.3595,4.3762,4.3928,4.4015,4.3968,4.3586,4.3348,4.3291,4.2966,4.2555,4.2687,4.3248,4.3579,4.3757,4.3994,4.426,4.4396,4.446,4.4666,4.498,4.5065,6.0054,6.0089,6.0036,6.0001,5.9949,6.0089,6.0089,6.0137,6.0313,6.0547,6.077,6.1016,6.1288,6.1519,6.1605,6.176,6.1941,6.1996,6.201,6.201,6.201,6.201,6.201,6.201,6.201,6.201,6.201,6.201,6.201,6.1847,6.1467,6.1123,6.0652,6.0091,5.9475,5.8746,5.8402,5.8257,5.7587,5.7387,5.7188,5.7188,5.6766,5.6404,5.621,5.5843,5.5305,5.502,5.4893,5.469,5.4522,5.4477,5.4393,5.4382,5.439,5.4409,5.4409,5.4371,5.424,5.2794,5.2175,5.1874,5.1536,5.1424,5.1668,5.1611,5.1161,5.026,5.0335,4.9892,4.9385,4.902,4.9377,4.9152,4.902,4.8927,4.8664,4.857,4.8382,4.8589,4.842,4.8138,4.7856,4.7346,4.6255,4.542,4.4866,4.4649,4.4638,4.4505,4.4303,4.4315,4.432,4.441,4.4454,4.4871,4.5067,4.5149,4.4958,4.4532,4.436,4.4374,4.3916,4.3305,4.3887,4.4891,4.4832,4.4671,4.5154,4.556,4.512,4.5105,4.5288,4.5427,4.5575,5.9354,5.9317,5.8808,5.8562,5.872,5.9685,6.0171,6.0329,6.0545,6.0694,6.0845,6.1105,6.1357,6.1562,6.1704,6.183,6.1982,6.201,6.201,6.201,6.201,6.201,6.201,6.201,6.201,6.201,6.201,6.201,6.201,6.201,6.1937,6.163,6.1394,6.0815,5.9891,5.9216,5.8999,5.8474,5.8076,5.7786,5.7279,5.717,5.7056,5.6766,5.6736,5.6442,5.5951,5.5777,5.5564,5.5118,5.4857,5.4751,5.4502,5.4422,5.4409,5.4409,5.4409,5.4409,5.4352,5.3714,5.3339,5.285,5.2344,5.2118,5.1922,5.1912,5.1518,5.1265,5.1273,5.0804,5.0324,5.0155,5.0042,4.8784,4.8465,4.8484,4.8371,4.8401,4.842,4.8964,4.9096,4.8626,4.8288,4.8176,4.728,4.6553,4.6019,4.5317,4.5111,4.4977,4.4813,4.4857,4.4919,4.5094,4.5308,4.5692,4.5736,4.5665,4.5569,4.5354,4.5297,4.5463,4.5731,4.5559,4.605,4.6541,4.6271,4.6184,4.6672,4.686,4.6227,4.5717,4.5684,4.5913,4.6181,5.8827,5.8544,5.8018,5.7807,5.7948,5.8895,5.9442,5.9746,6.0164,6.0439,6.0582,6.1033,6.1415,6.1591,6.1746,6.1872,6.1996,6.201,6.201,6.201,6.201,6.201,6.201,6.201,6.201,6.201,6.201,6.201,6.201,6.201,6.1973,6.1955,6.1992,6.1448,6.0652,6.0217,5.9633,5.9035,5.8546,5.7949,5.7442,5.7188,5.7188,5.7134,5.711,5.6992,5.6746,5.654,5.6353,5.5678,5.5307,5.5165,5.4787,5.4518,5.4457,5.4409,5.4409,5.4409,5.4371,5.4352,5.3939,5.3647,5.3019,5.2813,5.2767,5.2963,5.2419,5.2156,5.2231,5.163,5.1019,5.0925,5.0605,4.9385,4.9066,4.9122,4.9036,4.913,4.8867,4.9411,4.9468,4.9036,4.8754,4.8687,4.8355,4.7775,4.7211,4.6483,4.5817,4.5703,4.5666,4.5744,4.5915,4.6205,4.6358,4.6476,4.6443,4.6219,4.6194,4.6214,4.6495,4.6738,4.7272,4.7635,4.7425,4.733,4.754,4.7712,4.7706,4.7483,4.701,4.6557,4.6194,4.6486,4.6907,5.8459,5.7807,5.7754,5.7649,5.7702,5.7732,5.7988,5.8397,5.9284,5.9751,5.9916,6.0736,6.1053,6.1389,6.1566,6.1687,6.1819,6.1847,6.1937,6.1992,6.201,6.201,6.201,6.201,6.201,6.201,6.201,6.201,6.201,6.201,6.201,6.201,6.201,6.1774,6.1485,6.1068,6.0321,5.9524,5.8896,5.8166,5.7442,5.7188,5.7188,5.7188,5.7165,5.7215,5.7042,5.6884,5.6832,5.6435,5.6,5.5613,5.5219,5.4799,5.4579,5.4409,5.4409,5.4409,5.4409,5.4409,5.439,5.4183,5.4202,5.4296,5.4183,5.3902,5.3395,5.2963,5.2869,5.2051,5.1357,5.1601,5.1762,5.1104,5.0624,5.0482,5.0302,5.0065,4.9633,4.9622,4.9592,4.9393,4.9333,4.9258,4.9035,4.8798,4.8302,4.8118,4.7478,4.6929,4.692,4.6962,4.7154,4.7446,4.7498,4.7278,4.7169,4.692,4.7188,4.7297,4.7622,4.7889,4.8195,4.8329,4.808,4.8138,4.852,4.8462,4.8208,4.7966,4.8048,4.7526,4.7221,4.7491,4.7857,5.7158,5.6894,5.6403,5.6142,5.6172,5.6362,5.7141,5.827,5.8803,5.9019,5.9095,5.9579,5.9989,5.9896,6.0129,6.0616,6.0964,6.1231,6.1575,6.1756,6.1955,6.1992,6.201,6.201,6.201,6.201,6.201,6.201,6.201,6.201,6.201,6.201,6.201,6.201,6.1919,6.1738,6.076,5.9887,5.9276,5.8402,5.755,5.7188,5.7188,5.7188,5.7188,5.7244,5.7174,5.7188,5.7111,5.6765,5.675,5.6406,5.5295,5.5224,5.5132,5.4465,5.4409,5.4409,5.4409,5.4409,5.4409,5.4409,5.4409,5.4409,5.4409,5.4334,5.409,5.377,5.3583,5.2971,5.2529,5.2604,5.2454,5.1917,5.1482,5.1262,5.1033,5.0643,5.0255,5.0335,5.0267,4.9853,4.9823,4.9607,4.9409,4.9422,4.9346,4.9174,4.8938,4.8327,4.8048,4.8071,4.8111,4.8333,4.8039,4.7775,4.7736,4.7717,4.8042,4.8334,4.8563,4.8812,4.906,4.9117,4.9035,4.9284,4.9666,4.9436,4.9054,4.9436,4.95,4.8806,4.8353,4.8578,4.8777,5.642,5.6122,5.5701,5.551,5.5552,5.5793,5.6506,5.7375,5.7989,5.8274,5.8338,5.8972,5.9199,5.9312,5.9578,5.991,6.0326,6.076,6.1104,6.1376,6.1883,6.1973,6.201,6.201,6.201,6.201,6.201,6.201,6.201,6.201,6.201,6.201,6.201,6.201,6.1973,6.1829,6.105,6.0145,5.9348,5.8583,5.7822,5.7188,5.7188,5.7188,5.7188,5.7188,5.7213,5.7344,5.7267,5.7127,5.7298,5.6932,5.5985,5.5874,5.551,5.489,5.454,5.4465,5.4409,5.4409,5.4409,5.4409,5.4409,5.4409,5.4409,5.4371,5.4334,5.424,5.4259,5.4173,5.3908,5.3606,5.3013,5.2427,5.214,5.1878,5.1506,5.1122,5.1088,5.1213,5.0919,5.0421,5.0133,4.9929,4.975,4.9672,4.9676,4.9656,4.9534,4.9277,4.9055,4.9036,4.9019,4.9068,4.873,4.8577,4.873,4.8863,4.9093,4.9347,4.9524,4.9582,4.9691,4.9901,5.0105,5.0181,5.0105,5.0181,5.0029,5.0302,5.0319,4.9782,4.9365,4.9499,4.9689,5.6122,5.5528,5.551,5.551,5.5537,5.5775,5.5957,5.6018,5.7078,5.7499,5.7698,5.8537,5.8835,5.8723,5.8954,5.9222,5.9687,6.0163,6.067,6.0851,6.1702,6.1992,6.201,6.201,6.201,6.201,6.201,6.201,6.201,6.201,6.201,6.201,6.201,6.201,6.201,6.201,6.1195,5.9891,5.9416,5.8854,5.7659,5.7188,5.7188,5.7188,5.7188,5.7188,5.7226,5.7338,5.7498,5.7523,5.7504,5.7312,5.6976,5.6173,5.5665,5.5267,5.4757,5.4503,5.4409,5.4409,5.4409,5.4409,5.4409,5.4409,5.4409,5.4409,5.4409,5.4409,5.4371,5.4371,5.4144,5.4119,5.3739,5.3481,5.3314,5.3173,5.2994,5.2477,5.2043,5.2008,5.1574,5.1132,5.1045,5.0896,5.0589,5.0232,5.0089,5.015,4.9945,4.9879,4.9905,4.9841,4.9717,4.9666,4.9742,4.9666,4.9895,5.0067,5.0034,5.0015,4.9939,5.0073,5.0258,5.0296,5.0296,5.0296,5.0258,5.0296,5.0302,5.0308,5.035,5.0396,5.0358,5.0273,5.0315,5.5668,5.551,5.551,5.551,5.5537,5.5775,5.5904,5.5933,5.6437,5.6773,5.6913,5.7236,5.7508,5.7739,5.7913,5.8202,5.8818,5.9511,6.0199,6.0797,6.1539,6.1919,6.201,6.201,6.201,6.201,6.201,6.201,6.201,6.201,6.201,6.201,6.201,6.201,6.201,6.1992,6.1231,5.9728,5.9493,5.8782,5.7442,5.7188,5.7188,5.7188,5.7188,5.7188,5.7213,5.7226,5.7474,5.7658,5.7808,5.7779,5.7654,5.6304,5.5665,5.5444,5.4945,5.4597,5.4409,5.4409,5.4409,5.4409,5.4409,5.4409,5.4409,5.4409,5.4409,5.4409,5.4409,5.4409,5.4434,5.4483,5.4511,5.4449,5.4414,5.4403,5.439,5.3774,5.3099,5.2683,5.2266,5.2058,5.1982,5.1736,5.1448,5.1197,5.0969,5.0796,5.0363,5.0208,5.0418,5.0374,5.0168,5.0156,5.0296,5.0296,5.0296,5.0296,5.0181,5.022,5.0296,5.0296,5.0296,5.0296,5.0296,5.0296,5.0296,5.0296,5.0302,5.0308,5.0367,5.0412,5.0502,5.0469,5.0592,5.551,5.551,5.551,5.5537,5.5622,5.5822,5.5947,5.6077,5.6286,5.6505,5.6675,5.6768,5.6873,5.7015,5.7156,5.7351,5.8003,5.8709,5.9457,6.0272,6.105,6.163,6.1829,6.1955,6.201,6.201,6.201,6.201,6.201,6.201,6.201,6.201,6.201,6.201,6.201,6.1883,6.1213,5.9674,5.962,5.8709,5.7387,5.7188,5.7188,5.7188,5.7188,5.7188,5.7188,5.7201,5.7369,5.7667,5.79,5.8269,5.8091,5.7323,5.6564,5.6073,5.5489,5.4784,5.4559,5.4465,5.4446,5.4428,5.4409,5.4409,5.4409,5.4409,5.4409,5.4409,5.4409,5.4409,5.4474,5.4549,5.4622,5.4621,5.4654,5.4686,5.4723,5.4486,5.4162,5.4024,5.3528,5.303,5.2826,5.2302,5.2051,5.1912,5.1729,5.1687,5.1204,5.0791,5.0938,5.0958,5.0809,5.0437,5.0296,5.0296,5.0296,5.0296,5.0487,5.0392,5.0449,5.0353,5.0296,5.0392,5.0411,5.0296,5.0296,5.0296,5.0296,5.0302,5.0354,5.041,5.0528,5.0635,5.0773,5.5156,5.5227,5.5329,5.5452,5.5597,5.5858,5.6035,5.6193,5.6373,5.6541,5.6768,5.6821,5.6912,5.7041,5.7143,5.7163,5.7496,5.8275,5.8963,5.9506,6.0272,6.096,6.1485,6.1774,6.1829,6.1937,6.201,6.201,6.201,6.201,6.201,6.201,6.201,6.201,6.201,6.1829,6.1213,6.0018,5.9384,5.8673,5.7858,5.7188,5.7188,5.7188,5.7188,5.7188,5.7188,5.7213,5.7282,5.7583,5.7953,5.8415,5.8471,5.7987,5.7566,5.6926,5.6249,5.547,5.4888,5.4728,5.4597,5.4465,5.4428,5.4428,5.4428,5.4409,5.4409,5.4409,5.4409,5.4451,5.4516,5.4606,5.4705,5.4791,5.4849,5.4919,5.4962,5.5014,5.4997,5.496,5.4538,5.3976,5.3606,5.3063,5.2833,5.2667,5.2554,5.2497,5.2342,5.1996,5.1865,5.1783,5.1598,5.1157,5.0793,5.0799,5.0971,5.1104,5.1295,5.0913,5.0716,5.1085,5.1085,5.0665,5.0627,5.0621,5.0392,5.0296,5.0296,5.043,5.0348,5.041,5.0497,5.0634,5.0873,5.3643,5.3696,5.444,5.4775,5.4935,5.5723,5.6151,5.6239,5.6433,5.6667,5.6812,5.6925,5.7041,5.715,5.7176,5.7206,5.7315,5.7967,5.8293,5.8746,5.9506,6.0272,6.0815,6.105,6.1448,6.1611,6.1738,6.1955,6.1774,6.1865,6.201,6.1992,6.201,6.201,6.201,6.1774,6.1322,6.0199,5.947,5.8854,5.7732,5.7243,5.7188,5.7188,5.7188,5.7188,5.7188,5.7188,5.7294,5.7547,5.7964,5.8479,5.8618,5.8417,5.8016,5.7639,5.6972,5.6259,5.5696,5.5433,5.5283,5.4607,5.4578,5.4503,5.4465,5.4409,5.4409,5.4409,5.4426,5.4458,5.4532,5.4641,5.4728,5.481,5.4901,5.4992,5.5047,5.5075,5.5095,5.5076,5.4955,5.4699,5.4635,5.4246,5.4023,5.3845,5.3553,5.3465,5.304,5.2893,5.2831,5.2698,5.2526,5.2442,5.2327,5.204,5.2098,5.2193,5.2155,5.1849,5.1849,5.2276,5.2161,5.1525,5.1238,5.12,5.0907,5.0818,5.0659,5.0766,5.0482,5.041,5.0563,5.0911,5.1395]}]]